Behrens, Klaus (2017): Radiosonde measurements from station Lindenberg (2013-09) [dataset]. Meteorologisches Observatorium Potsdam, PANGAEA, https://doi.org/10.1594/PANGAEA.880735
Always quote citation above when using data! You can download the citation in several formats below.
Published: 2017-09-18 • DOI registered: 2017-10-16
Other version:
Behrens, Klaus (2017): BSRN Station-to-archive file for station Lindenberg (2013-09) [dataset]. ftp://ftp.bsrn.awi.de/lin/lin0913.dat.gz
Project(s):
Coverage:
Latitude: 52.210000 * Longitude: 14.122000
Date/Time Start: 2013-09-01T00:00:00 * Date/Time End: 2013-09-30T18:00:00
Minimum ALTITUDE: 112 m * Maximum ALTITUDE: 38515 m
Event(s):
LIN (Lindenberg) * Latitude: 52.210000 * Longitude: 14.122000 * Date/Time: 1994-09-01T00:00:00 * Elevation: 125.0 m * Location: Germany * Method/Device: Monitoring station (MONS) * Comment: BSRN station no: 12; Surface type: cultivated; Topography type: hilly, rural; Horizon: doi:10.1594/PANGAEA.669521; Station scientist: Stefan Wacker (Stefan.Wacker@dwd.de)
Parameter(s):
| # | Name | Short Name | Unit | Principal Investigator | Method/Device | Comment |
|---|---|---|---|---|---|---|
| 1 | DATE/TIME | Date/Time | Behrens, Klaus | Geocode | ||
| 2 | ALTITUDE | Altitude | m | Behrens, Klaus | Geocode | |
| 3 | Pressure, at given altitude | PPPP | hPa | Behrens, Klaus | Radiosonde, Vaisala, RS92 | |
| 4 | Temperature, air | TTT | °C | Behrens, Klaus | Radiosonde, Vaisala, RS92 | |
| 5 | Dew/frost point | TdTdTd | °C | Behrens, Klaus | Radiosonde, Vaisala, RS92 | |
| 6 | Wind direction | dd | deg | Behrens, Klaus | Radiosonde, Vaisala, RS92 | |
| 7 | Wind speed | ff | m/s | Behrens, Klaus | Radiosonde, Vaisala, RS92 | |
| 8 | Ozone, partial pressure | pO3 | mPa | Behrens, Klaus | Radiosonde, Vaisala, RS92 |
License:
Size:
1956309 data points
Data
| 1 Date/Time | 2 Altitude [m] | 3 PPPP [hPa] | 4 TTT [°C] | 5 TdTdTd [°C] | 6 dd [deg] | 7 ff [m/s] | 8 pO3 [mPa] |
|---|---|---|---|---|---|---|---|
| 2013-09-01T00:00 | 112 | 1005 | 14.5 | 13.9 | 300 | 4 | |
| 2013-09-01T00:00 | 118 | 1004 | 14.5 | 13.9 | 300 | 3 | |
| 2013-09-01T00:00 | 127 | 1003 | 14.5 | 13.7 | 302 | 3 | |
| 2013-09-01T00:00 | 138 | 1002 | 14.5 | 13.7 | 304 | 4 | |
| 2013-09-01T00:00 | 151 | 1001 | 14.4 | 13.6 | 305 | 4 | |
| 2013-09-01T00:00 | 164 | 999 | 14.2 | 13.4 | 307 | 5 | |
| 2013-09-01T00:00 | 175 | 998 | 14.2 | 13.3 | 308 | 5 | |
| 2013-09-01T00:00 | 184 | 997 | 14.2 | 13.1 | 309 | 6 | |
| 2013-09-01T00:00 | 193 | 996 | 14.2 | 12.9 | 310 | 6 | |
| 2013-09-01T00:00 | 201 | 995 | 14.2 | 12.9 | 310 | 7 | |
| 2013-09-01T00:00 | 211 | 994 | 14.1 | 13.0 | 311 | 7 | |
| 2013-09-01T00:00 | 221 | 992 | 14.0 | 12.9 | 311 | 8 | |
| 2013-09-01T00:00 | 231 | 991 | 14.0 | 12.7 | 312 | 8 | |
| 2013-09-01T00:00 | 242 | 990 | 14.0 | 12.6 | 312 | 8 | |
| 2013-09-01T00:00 | 252 | 989 | 14.0 | 12.4 | 312 | 9 | |
| 2013-09-01T00:00 | 261 | 988 | 13.9 | 12.3 | 312 | 9 | |
| 2013-09-01T00:00 | 269 | 987 | 13.8 | 12.4 | 313 | 9 | |
| 2013-09-01T00:00 | 277 | 986 | 13.7 | 12.3 | 313 | 10 | |
| 2013-09-01T00:00 | 284 | 985 | 13.6 | 12.3 | 314 | 10 | |
| 2013-09-01T00:00 | 292 | 984 | 13.5 | 12.4 | 314 | 10 | |
| 2013-09-01T00:00 | 301 | 983 | 13.4 | 12.3 | 315 | 11 | |
| 2013-09-01T00:00 | 311 | 982 | 13.4 | 12.1 | 316 | 11 | |
| 2013-09-01T00:00 | 321 | 981 | 13.2 | 11.8 | 317 | 11 | |
| 2013-09-01T00:00 | 331 | 980 | 13.2 | 11.9 | 318 | 12 | |
| 2013-09-01T00:00 | 340 | 979 | 13.1 | 11.8 | 319 | 12 | |
| 2013-09-01T00:00 | 347 | 978 | 13.1 | 11.7 | 319 | 12 | |
| 2013-09-01T00:00 | 355 | 977 | 13.2 | 11.4 | 320 | 13 | |
| 2013-09-01T00:00 | 363 | 976 | 13.1 | 11.3 | 320 | 13 | |
| 2013-09-01T00:00 | 373 | 975 | 13.0 | 11.1 | 321 | 13 | |
| 2013-09-01T00:00 | 386 | 973 | 13.0 | 11.1 | 321 | 13 | |
| 2013-09-01T00:00 | 398 | 972 | 12.9 | 11.1 | 321 | 13 | |
| 2013-09-01T00:00 | 406 | 971 | 12.8 | 11.0 | 320 | 14 | |
| 2013-09-01T00:00 | 413 | 970 | 12.8 | 11.0 | 320 | 14 | |
| 2013-09-01T00:00 | 421 | 969 | 12.7 | 10.9 | 320 | 14 | |
| 2013-09-01T00:00 | 431 | 968 | 12.6 | 10.8 | 320 | 13 | |
| 2013-09-01T00:00 | 443 | 967 | 12.5 | 10.9 | 320 | 13 | |
| 2013-09-01T00:00 | 456 | 965 | 12.4 | 10.8 | 320 | 13 | |
| 2013-09-01T00:00 | 466 | 964 | 12.2 | 10.6 | 320 | 13 | |
| 2013-09-01T00:00 | 474 | 963 | 12.2 | 10.6 | 321 | 13 | |
| 2013-09-01T00:00 | 483 | 962 | 12.2 | 10.6 | 321 | 13 | |
| 2013-09-01T00:00 | 493 | 961 | 12.2 | 10.6 | 322 | 13 | |
| 2013-09-01T00:00 | 501 | 960 | 12.1 | 10.5 | 322 | 13 | |
| 2013-09-01T00:00 | 510 | 959 | 12.1 | 10.7 | 323 | 13 | |
| 2013-09-01T00:00 | 519 | 958 | 12.1 | 11.0 | 323 | 13 | |
| 2013-09-01T00:00 | 527 | 957 | 12.0 | 10.9 | 324 | 13 | |
| 2013-09-01T00:00 | 534 | 956 | 12.0 | 11.1 | 324 | 13 | |
| 2013-09-01T00:00 | 542 | 955 | 11.9 | 11.0 | 324 | 14 | |
| 2013-09-01T00:00 | 552 | 954 | 11.8 | 10.9 | 325 | 14 | |
| 2013-09-01T00:00 | 562 | 953 | 11.8 | 10.7 | 325 | 14 | |
| 2013-09-01T00:00 | 575 | 952 | 11.7 | 10.6 | 325 | 14 | |
| 2013-09-01T00:00 | 586 | 950 | 11.6 | 10.4 | 325 | 14 | |
| 2013-09-01T00:00 | 596 | 949 | 11.5 | 10.3 | 325 | 14 | |
| 2013-09-01T00:00 | 606 | 948 | 11.4 | 10.2 | 325 | 14 | |
| 2013-09-01T00:00 | 615 | 947 | 11.2 | 10.0 | 325 | 14 | |
| 2013-09-01T00:00 | 626 | 946 | 11.2 | 9.8 | 326 | 14 | |
| 2013-09-01T00:00 | 638 | 944 | 11.2 | 9.8 | 326 | 13 | |
| 2013-09-01T00:00 | 650 | 943 | 11.1 | 9.9 | 326 | 13 | |
| 2013-09-01T00:00 | 662 | 942 | 11.0 | 9.9 | 326 | 13 | |
| 2013-09-01T00:00 | 674 | 940 | 10.9 | 10.0 | 326 | 13 | |
| 2013-09-01T00:00 | 686 | 939 | 10.8 | 9.9 | 325 | 13 | |
| 2013-09-01T00:00 | 696 | 938 | 10.8 | 9.9 | 325 | 13 | |
| 2013-09-01T00:00 | 706 | 937 | 10.7 | 9.8 | 325 | 13 | |
| 2013-09-01T00:00 | 716 | 936 | 10.7 | 9.6 | 324 | 13 | |
| 2013-09-01T00:00 | 727 | 934 | 10.6 | 9.4 | 324 | 12 | |
| 2013-09-01T00:00 | 737 | 933 | 10.6 | 9.0 | 323 | 12 | |
| 2013-09-01T00:00 | 747 | 932 | 10.6 | 8.7 | 322 | 12 | |
| 2013-09-01T00:00 | 759 | 931 | 10.6 | 8.7 | 322 | 12 | |
| 2013-09-01T00:00 | 770 | 930 | 10.5 | 8.8 | 321 | 12 | |
| 2013-09-01T00:00 | 780 | 928 | 10.5 | 8.9 | 320 | 12 | |
| 2013-09-01T00:00 | 791 | 927 | 10.4 | 9.0 | 320 | 12 | |
| 2013-09-01T00:00 | 800 | 926 | 10.4 | 9.0 | 319 | 12 | |
| 2013-09-01T00:00 | 808 | 925 | 10.4 | 9.2 | 318 | 12 | |
| 2013-09-01T00:00 | 815 | 925 | 10.2 | 9.0 | 318 | 11 | |
| 2013-09-01T00:00 | 822 | 924 | 10.2 | 9.0 | 317 | 11 | |
| 2013-09-01T00:00 | 830 | 923 | 10.2 | 9.0 | 317 | 11 | |
| 2013-09-01T00:00 | 839 | 922 | 10.2 | 9.0 | 316 | 11 | |
| 2013-09-01T00:00 | 849 | 921 | 10.2 | 8.8 | 316 | 11 | |
| 2013-09-01T00:00 | 858 | 920 | 10.2 | 8.8 | 315 | 11 | |
| 2013-09-01T00:00 | 868 | 919 | 10.2 | 8.8 | 315 | 11 | |
| 2013-09-01T00:00 | 877 | 918 | 10.2 | 8.8 | 314 | 11 | |
| 2013-09-01T00:00 | 884 | 917 | 10.2 | 8.8 | 313 | 11 | |
| 2013-09-01T00:00 | 892 | 916 | 10.1 | 8.9 | 313 | 11 | |
| 2013-09-01T00:00 | 901 | 915 | 10.1 | 8.9 | 312 | 11 | |
| 2013-09-01T00:00 | 912 | 914 | 10.0 | 8.8 | 312 | 11 | |
| 2013-09-01T00:00 | 923 | 913 | 9.9 | 8.7 | 311 | 11 | |
| 2013-09-01T00:00 | 933 | 912 | 9.8 | 8.7 | 311 | 11 | |
| 2013-09-01T00:00 | 943 | 911 | 9.7 | 8.8 | 311 | 10 | |
| 2013-09-01T00:00 | 952 | 909 | 9.7 | 8.8 | 310 | 10 | |
| 2013-09-01T00:00 | 960 | 909 | 9.6 | 8.7 | 310 | 10 | |
| 2013-09-01T00:00 | 967 | 908 | 9.6 | 8.7 | 310 | 10 | |
| 2013-09-01T00:00 | 975 | 907 | 9.6 | 8.7 | 310 | 10 | |
| 2013-09-01T00:00 | 982 | 906 | 9.5 | 8.4 | 310 | 10 | |
| 2013-09-01T00:00 | 990 | 905 | 9.5 | 8.4 | 310 | 10 | |
| 2013-09-01T00:00 | 1003 | 904 | 9.5 | 8.1 | 310 | 10 | |
| 2013-09-01T00:00 | 1017 | 902 | 9.4 | 7.7 | 310 | 10 | |
| 2013-09-01T00:00 | 1029 | 901 | 9.4 | 7.7 | 310 | 11 | |
| 2013-09-01T00:00 | 1040 | 900 | 9.2 | 7.5 | 309 | 11 | |
| 2013-09-01T00:00 | 1049 | 899 | 9.2 | 7.5 | 309 | 11 | |
| 2013-09-01T00:00 | 1057 | 898 | 9.2 | 7.2 | 308 | 11 | |
| 2013-09-01T00:00 | 1066 | 897 | 9.2 | 6.8 | 307 | 11 | |
| 2013-09-01T00:00 | 1078 | 896 | 9.1 | 6.5 | 306 | 11 | |
| 2013-09-01T00:00 | 1090 | 894 | 9.0 | 6.4 | 305 | 11 | |
| 2013-09-01T00:00 | 1101 | 893 | 8.9 | 6.4 | 304 | 12 | |
| 2013-09-01T00:00 | 1113 | 892 | 8.8 | 6.3 | 303 | 12 | |
| 2013-09-01T00:00 | 1124 | 891 | 8.8 | 6.4 | 302 | 12 | |
| 2013-09-01T00:00 | 1135 | 890 | 8.7 | 6.3 | 302 | 12 | |
| 2013-09-01T00:00 | 1147 | 888 | 8.6 | 6.2 | 301 | 12 | |
| 2013-09-01T00:00 | 1156 | 887 | 8.5 | 6.1 | 301 | 12 | |
| 2013-09-01T00:00 | 1165 | 886 | 8.4 | 6.0 | 301 | 12 | |
| 2013-09-01T00:00 | 1177 | 885 | 8.2 | 5.8 | 301 | 12 | |
| 2013-09-01T00:00 | 1190 | 884 | 8.2 | 6.0 | 301 | 12 | |
| 2013-09-01T00:00 | 1202 | 882 | 8.1 | 5.9 | 301 | 12 | |
| 2013-09-01T00:00 | 1213 | 881 | 8.0 | 6.0 | 302 | 12 | |
| 2013-09-01T00:00 | 1223 | 880 | 7.8 | 5.9 | 303 | 12 | |
| 2013-09-01T00:00 | 1232 | 879 | 7.8 | 5.9 | 303 | 12 | |
| 2013-09-01T00:00 | 1240 | 878 | 7.7 | 5.8 | 304 | 11 | |
| 2013-09-01T00:00 | 1249 | 877 | 7.6 | 5.7 | 304 | 11 | |
| 2013-09-01T00:00 | 1258 | 876 | 7.5 | 5.6 | 305 | 11 | |
| 2013-09-01T00:00 | 1268 | 875 | 7.5 | 5.6 | 305 | 11 | |
| 2013-09-01T00:00 | 1280 | 874 | 7.4 | 5.6 | 305 | 11 | |
| 2013-09-01T00:00 | 1294 | 873 | 7.2 | 5.4 | 305 | 11 | |
| 2013-09-01T00:00 | 1307 | 871 | 7.2 | 5.4 | 304 | 11 | |
| 2013-09-01T00:00 | 1318 | 870 | 7.1 | 5.3 | 304 | 11 | |
| 2013-09-01T00:00 | 1329 | 869 | 7.0 | 5.2 | 303 | 11 | |
| 2013-09-01T00:00 | 1339 | 868 | 6.9 | 5.1 | 303 | 11 | |
| 2013-09-01T00:00 | 1347 | 867 | 6.9 | 302 | 11 | ||
| 2013-09-01T00:00 | 1355 | 866 | 6.8 | 5.1 | 302 | 11 | |
| 2013-09-01T00:00 | 1363 | 865 | 6.7 | 5.0 | 301 | 11 | |
| 2013-09-01T00:00 | 1372 | 864 | 6.6 | 5.1 | 301 | 11 | |
| 2013-09-01T00:00 | 1383 | 863 | 6.6 | 5.1 | 301 | 11 | |
| 2013-09-01T00:00 | 1396 | 862 | 6.4 | 5.0 | 300 | 11 | |
| 2013-09-01T00:00 | 1410 | 860 | 6.2 | 5.0 | 300 | 11 | |
| 2013-09-01T00:00 | 1422 | 859 | 6.2 | 5.3 | 300 | 11 | |
| 2013-09-01T00:00 | 1433 | 858 | 6.1 | 5.4 | 299 | 11 | |
| 2013-09-01T00:00 | 1442 | 857 | 6.0 | 5.4 | 299 | 11 | |
| 2013-09-01T00:00 | 1451 | 856 | 6.0 | 5.4 | 299 | 10 | |
| 2013-09-01T00:00 | 1461 | 855 | 5.9 | 5.3 | 298 | 10 | |
| 2013-09-01T00:00 | 1469 | 854 | 5.8 | 5.4 | 298 | 10 | |
| 2013-09-01T00:00 | 1478 | 853 | 5.7 | 5.3 | 298 | 10 | |
| 2013-09-01T00:00 | 1488 | 852 | 5.7 | 5.3 | 298 | 10 | |
| 2013-09-01T00:00 | 1501 | 851 | 5.6 | 5.0 | 298 | 10 | |
| 2013-09-01T00:00 | 1513 | 850 | 5.5 | 4.9 | 298 | 10 | |
| 2013-09-01T00:00 | 1522 | 849 | 5.5 | 4.9 | 299 | 10 | |
| 2013-09-01T00:00 | 1529 | 848 | 5.4 | 5.0 | 299 | 10 | |
| 2013-09-01T00:00 | 1539 | 847 | 5.2 | 4.9 | 300 | 10 | |
| 2013-09-01T00:00 | 1549 | 846 | 5.1 | 5.0 | 301 | 10 | |
| 2013-09-01T00:00 | 1557 | 845 | 5.1 | 5.0 | 302 | 9 | |
| 2013-09-01T00:00 | 1565 | 844 | 5.0 | 5.0 | 302 | 9 | |
| 2013-09-01T00:00 | 1574 | 843 | 5.0 | 5.0 | 303 | 9 | |
| 2013-09-01T00:00 | 1583 | 842 | 5.0 | 5.0 | 304 | 9 | |
| 2013-09-01T00:00 | 1592 | 842 | 4.9 | 4.9 | 304 | 9 | |
| 2013-09-01T00:00 | 1601 | 841 | 4.9 | 4.9 | 304 | 9 | |
| 2013-09-01T00:00 | 1610 | 840 | 4.9 | 4.9 | 304 | 9 | |
| 2013-09-01T00:00 | 1620 | 839 | 4.8 | 4.8 | 304 | 9 | |
| 2013-09-01T00:00 | 1629 | 838 | 4.8 | 4.8 | 304 | 9 | |
| 2013-09-01T00:00 | 1637 | 837 | 4.7 | 4.7 | 303 | 9 | |
| 2013-09-01T00:00 | 1646 | 836 | 4.7 | 4.7 | 303 | 9 | |
| 2013-09-01T00:00 | 1655 | 835 | 4.5 | 4.5 | 302 | 9 | |
| 2013-09-01T00:00 | 1663 | 834 | 4.4 | 4.4 | 302 | 9 | |
| 2013-09-01T00:00 | 1670 | 834 | 4.4 | 4.4 | 302 | 9 | |
| 2013-09-01T00:00 | 1678 | 833 | 4.4 | 4.4 | 301 | 9 | |
| 2013-09-01T00:00 | 1686 | 832 | 4.2 | 4.2 | 301 | 9 | |
| 2013-09-01T00:00 | 1694 | 831 | 4.2 | 4.2 | 301 | 9 | |
| 2013-09-01T00:00 | 1701 | 830 | 4.0 | 4.0 | 301 | 9 | |
| 2013-09-01T00:00 | 1709 | 830 | 3.9 | 3.9 | 301 | 9 | |
| 2013-09-01T00:00 | 1718 | 829 | 3.9 | 3.9 | 301 | 9 | |
| 2013-09-01T00:00 | 1728 | 828 | 3.8 | 3.8 | 301 | 9 | |
| 2013-09-01T00:00 | 1739 | 827 | 3.6 | 3.5 | 301 | 9 | |
| 2013-09-01T00:00 | 1750 | 825 | 3.4 | 3.1 | 301 | 9 | |
| 2013-09-01T00:00 | 1759 | 824 | 3.2 | 2.9 | 300 | 10 | |
| 2013-09-01T00:00 | 1769 | 823 | 3.2 | 2.8 | 300 | 10 | |
| 2013-09-01T00:00 | 1780 | 822 | 3.2 | 2.8 | 299 | 10 | |
| 2013-09-01T00:00 | 1790 | 821 | 3.2 | 2.6 | 299 | 11 | |
| 2013-09-01T00:00 | 1800 | 820 | 3.2 | 2.3 | 298 | 11 | |
| 2013-09-01T00:00 | 1809 | 819 | 3.1 | 1.9 | 298 | 11 | |
| 2013-09-01T00:00 | 1817 | 819 | 3.2 | 1.4 | 297 | 11 | |
| 2013-09-01T00:00 | 1824 | 818 | 3.5 | 0.9 | 296 | 12 | |
| 2013-09-01T00:00 | 1831 | 817 | 3.7 | 0.4 | 295 | 12 | |
| 2013-09-01T00:00 | 1837 | 817 | 4.0 | -0.7 | 295 | 12 | |
| 2013-09-01T00:00 | 1844 | 816 | 4.4 | -3.4 | 294 | 12 | |
| 2013-09-01T00:00 | 1853 | 815 | 4.8 | -7.7 | 294 | 12 | |
| 2013-09-01T00:00 | 1862 | 814 | 5.0 | -11.1 | 293 | 12 | |
| 2013-09-01T00:00 | 1870 | 813 | 5.0 | -12.9 | 293 | 12 | |
| 2013-09-01T00:00 | 1880 | 812 | 5.0 | -15.0 | 293 | 13 | |
| 2013-09-01T00:00 | 1890 | 811 | 5.1 | -16.7 | 293 | 13 | |
| 2013-09-01T00:00 | 1902 | 810 | 5.0 | -18.2 | 293 | 13 | |
| 2013-09-01T00:00 | 1912 | 809 | 4.9 | -19.1 | 293 | 13 | |
| 2013-09-01T00:00 | 1923 | 808 | 4.8 | -18.4 | 293 | 13 | |
| 2013-09-01T00:00 | 1936 | 807 | 4.7 | -18.5 | 293 | 13 | |
| 2013-09-01T00:00 | 1949 | 805 | 4.7 | -19.2 | 293 | 14 | |
| 2013-09-01T00:00 | 1960 | 804 | 4.7 | -21.0 | 293 | 14 | |
| 2013-09-01T00:00 | 1971 | 803 | 4.8 | -24.2 | 292 | 14 | |
| 2013-09-01T00:00 | 1981 | 802 | 4.8 | -27.0 | 292 | 15 | |
| 2013-09-01T00:00 | 1990 | 801 | 4.9 | -28.7 | 292 | 15 | |
| 2013-09-01T00:00 | 1999 | 801 | 5.0 | -28.7 | 292 | 16 | |
| 2013-09-01T00:00 | 2009 | 799 | 5.1 | -30.8 | 292 | 16 | |
| 2013-09-01T00:00 | 2021 | 798 | 5.2 | -30.7 | 291 | 17 | |
| 2013-09-01T00:00 | 2032 | 797 | 5.4 | -33.3 | 291 | 17 | |
| 2013-09-01T00:00 | 2044 | 796 | 5.4 | -33.3 | 291 | 17 | |
| 2013-09-01T00:00 | 2058 | 795 | 5.2 | -33.4 | 291 | 18 | |
| 2013-09-01T00:00 | 2069 | 794 | 5.4 | -33.3 | 291 | 18 | |
| 2013-09-01T00:00 | 2079 | 793 | 5.6 | -36.9 | 291 | 18 | |
| 2013-09-01T00:00 | 2088 | 792 | 5.6 | -36.9 | 291 | 18 | |
| 2013-09-01T00:00 | 2097 | 791 | 5.5 | -36.9 | 291 | 18 | |
| 2013-09-01T00:00 | 2108 | 790 | 5.4 | -37.0 | 291 | 18 | |
| 2013-09-01T00:00 | 2117 | 789 | 5.4 | -37.0 | 292 | 18 | |
| 2013-09-01T00:00 | 2127 | 788 | 5.4 | -37.0 | 292 | 18 | |
| 2013-09-01T00:00 | 2139 | 787 | 5.6 | -36.9 | 292 | 18 | |
| 2013-09-01T00:00 | 2151 | 786 | 5.7 | -36.8 | 292 | 18 | |
| 2013-09-01T00:00 | 2161 | 785 | 5.7 | -43.0 | 293 | 18 | |
| 2013-09-01T00:00 | 2171 | 784 | 5.6 | -43.0 | 293 | 18 | |
| 2013-09-01T00:00 | 2181 | 783 | 5.6 | -43.0 | 293 | 18 | |
| 2013-09-01T00:00 | 2189 | 782 | 5.5 | -43.1 | 293 | 18 | |
| 2013-09-01T00:00 | 2198 | 781 | 5.4 | -43.1 | 292 | 18 | |
| 2013-09-01T00:00 | 2208 | 780 | 5.2 | -43.3 | 292 | 18 | |
| 2013-09-01T00:00 | 2218 | 779 | 5.2 | -43.3 | 291 | 18 | |
| 2013-09-01T00:00 | 2227 | 778 | 5.2 | -37.1 | 291 | 18 | |
| 2013-09-01T00:00 | 2236 | 778 | 5.1 | -37.2 | 290 | 18 | |
| 2013-09-01T00:00 | 2245 | 777 | 5.0 | -37.3 | 289 | 18 | |
| 2013-09-01T00:00 | 2254 | 776 | 4.9 | -37.3 | 288 | 18 | |
| 2013-09-01T00:00 | 2267 | 775 | 4.8 | -37.4 | 287 | 18 | |
| 2013-09-01T00:00 | 2281 | 773 | 4.7 | -37.5 | 286 | 18 | |
| 2013-09-01T00:00 | 2295 | 772 | 4.6 | -37.5 | 285 | 17 | |
| 2013-09-01T00:00 | 2306 | 771 | 4.5 | -37.6 | 283 | 17 | |
| 2013-09-01T00:00 | 2315 | 770 | 4.5 | -37.6 | 282 | 17 | |
| 2013-09-01T00:00 | 2323 | 769 | 4.5 | -37.6 | 281 | 17 | |
| 2013-09-01T00:00 | 2332 | 768 | 4.4 | -37.6 | 280 | 17 | |
| 2013-09-01T00:00 | 2339 | 768 | 4.4 | -37.6 | 279 | 17 | |
| 2013-09-01T00:00 | 2348 | 767 | 4.2 | -37.8 | 279 | 16 | |
| 2013-09-01T00:00 | 2358 | 766 | 4.2 | -43.9 | 278 | 16 | |
| 2013-09-01T00:00 | 2367 | 765 | 4.2 | -43.9 | 278 | 16 | |
| 2013-09-01T00:00 | 2374 | 764 | 4.2 | -43.9 | 277 | 16 | |
| 2013-09-01T00:00 | 2382 | 764 | 4.2 | -43.9 | 277 | 16 | |
| 2013-09-01T00:00 | 2391 | 763 | 4.2 | -43.9 | 277 | 16 | |
| 2013-09-01T00:00 | 2401 | 762 | 4.2 | -37.8 | 276 | 15 | |
| 2013-09-01T00:00 | 2412 | 761 | 4.2 | -29.2 | 276 | 15 | |
| 2013-09-01T00:00 | 2423 | 760 | 4.4 | -22.2 | 276 | 15 | |
| 2013-09-01T00:00 | 2433 | 759 | 4.2 | -22.3 | 275 | 16 | |
| 2013-09-01T00:00 | 2443 | 758 | 4.2 | -20.4 | 275 | 16 | |
| 2013-09-01T00:00 | 2455 | 757 | 4.1 | -15.1 | 274 | 16 | |
| 2013-09-01T00:00 | 2467 | 756 | 4.1 | -11.0 | 274 | 16 | |
| 2013-09-01T00:00 | 2479 | 755 | 4.0 | -9.3 | 273 | 16 | |
| 2013-09-01T00:00 | 2489 | 754 | 3.9 | -8.1 | 273 | 16 | |
| 2013-09-01T00:00 | 2500 | 753 | 3.8 | -7.6 | 272 | 16 | |
| 2013-09-01T00:00 | 2511 | 752 | 3.7 | -7.7 | 271 | 17 | |
| 2013-09-01T00:00 | 2523 | 751 | 3.6 | -7.2 | 271 | 17 | |
| 2013-09-01T00:00 | 2535 | 750 | 3.5 | -7.0 | 270 | 17 | |
| 2013-09-01T00:00 | 2547 | 748 | 3.4 | -6.6 | 269 | 17 | |
| 2013-09-01T00:00 | 2558 | 747 | 3.2 | -6.5 | 269 | 17 | |
| 2013-09-01T00:00 | 2566 | 747 | 3.2 | -6.2 | 268 | 17 | |
| 2013-09-01T00:00 | 2573 | 746 | 3.1 | -6.1 | 267 | 17 | |
| 2013-09-01T00:00 | 2581 | 745 | 3.0 | -5.9 | 267 | 17 | |
| 2013-09-01T00:00 | 2589 | 745 | 2.9 | -6.0 | 266 | 17 | |
| 2013-09-01T00:00 | 2597 | 744 | 2.8 | -5.9 | 265 | 17 | |
| 2013-09-01T00:00 | 2605 | 743 | 2.8 | -5.6 | 264 | 17 | |
| 2013-09-01T00:00 | 2613 | 742 | 2.7 | -5.5 | 263 | 17 | |
| 2013-09-01T00:00 | 2621 | 742 | 2.6 | -5.3 | 263 | 17 | |
| 2013-09-01T00:00 | 2631 | 741 | 2.5 | -5.0 | 262 | 17 | |
| 2013-09-01T00:00 | 2644 | 739 | 2.4 | -4.7 | 261 | 17 | |
| 2013-09-01T00:00 | 2659 | 738 | 2.2 | -4.4 | 261 | 17 | |
| 2013-09-01T00:00 | 2672 | 737 | 2.2 | -4.0 | 261 | 17 | |
| 2013-09-01T00:00 | 2681 | 736 | 2.1 | -3.7 | 261 | 17 | |
| 2013-09-01T00:00 | 2689 | 735 | 2.0 | -3.8 | 261 | 17 | |
| 2013-09-01T00:00 | 2697 | 735 | 1.9 | -3.9 | 261 | 17 | |
| 2013-09-01T00:00 | 2705 | 734 | 1.8 | -3.8 | 262 | 17 | |
| 2013-09-01T00:00 | 2714 | 733 | 1.7 | -3.7 | 262 | 17 | |
| 2013-09-01T00:00 | 2723 | 732 | 1.7 | -3.5 | 262 | 17 | |
| 2013-09-01T00:00 | 2732 | 731 | 1.6 | -3.2 | 263 | 17 | |
| 2013-09-01T00:00 | 2741 | 731 | 1.6 | -2.9 | 263 | 17 | |
| 2013-09-01T00:00 | 2753 | 730 | 1.5 | -3.0 | 263 | 17 | |
| 2013-09-01T00:00 | 2767 | 728 | 1.2 | -3.1 | 263 | 17 | |
| 2013-09-01T00:00 | 2780 | 727 | 1.2 | -2.9 | 263 | 17 | |
| 2013-09-01T00:00 | 2793 | 726 | 1.1 | -3.0 | 263 | 17 | |
| 2013-09-01T00:00 | 2805 | 725 | 1.0 | -2.9 | 262 | 17 | |
| 2013-09-01T00:00 | 2816 | 724 | 0.9 | -2.8 | 262 | 17 | |
| 2013-09-01T00:00 | 2827 | 723 | 0.8 | -2.9 | 261 | 17 | |
| 2013-09-01T00:00 | 2838 | 722 | 0.7 | -2.9 | 261 | 17 | |
| 2013-09-01T00:00 | 2850 | 721 | 0.5 | -3.0 | 260 | 17 | |
| 2013-09-01T00:00 | 2861 | 720 | 0.4 | -3.0 | 259 | 17 | |
| 2013-09-01T00:00 | 2873 | 719 | 0.2 | -3.0 | 259 | 17 | |
| 2013-09-01T00:00 | 2883 | 718 | 0.2 | -3.0 | 259 | 17 | |
| 2013-09-01T00:00 | 2891 | 717 | 0.1 | -2.9 | 258 | 18 | |
| 2013-09-01T00:00 | 2899 | 716 | 0.1 | -2.9 | 258 | 18 | |
| 2013-09-01T00:00 | 2908 | 716 | 0.0 | -3.0 | 258 | 18 | |
| 2013-09-01T00:00 | 2920 | 715 | -0.1 | -2.9 | 258 | 18 | |
| 2013-09-01T00:00 | 2933 | 713 | -0.3 | -3.1 | 258 | 18 | |
| 2013-09-01T00:00 | 2945 | 712 | -0.4 | -3.1 | 259 | 18 | |
| 2013-09-01T00:00 | 2956 | 711 | -0.5 | -3.2 | 259 | 17 | |
| 2013-09-01T00:00 | 2966 | 710 | -0.6 | -3.1 | 259 | 17 | |
| 2013-09-01T00:00 | 2975 | 710 | -0.8 | -3.3 | 259 | 17 | |
| 2013-09-01T00:00 | 2985 | 709 | -0.8 | -3.2 | 259 | 17 | |
| 2013-09-01T00:00 | 2995 | 708 | -0.9 | -3.3 | 260 | 17 | |
| 2013-09-01T00:00 | 3006 | 707 | -1.0 | -3.2 | 260 | 17 | |
| 2013-09-01T00:00 | 3018 | 706 | -1.1 | -3.3 | 260 | 17 | |
| 2013-09-01T00:00 | 3031 | 705 | -1.2 | -3.4 | 260 | 17 | |
| 2013-09-01T00:00 | 3046 | 703 | -1.3 | -3.5 | 260 | 17 | |
| 2013-09-01T00:00 | 3060 | 702 | -1.4 | -3.6 | 260 | 17 | |
| 2013-09-01T00:00 | 3071 | 701 | -1.6 | -3.5 | 259 | 17 | |
| 2013-09-01T00:00 | 3082 | 700 | -1.8 | -3.6 | 259 | 17 | |
| 2013-09-01T00:00 | 3091 | 699 | -1.8 | -3.6 | 259 | 17 | |
| 2013-09-01T00:00 | 3099 | 699 | -1.9 | -3.6 | 258 | 17 | |
| 2013-09-01T00:00 | 3109 | 698 | -1.9 | -3.6 | 258 | 16 | |
| 2013-09-01T00:00 | 3122 | 697 | -2.1 | -3.8 | 258 | 16 | |
| 2013-09-01T00:00 | 3134 | 696 | -2.2 | -3.9 | 257 | 16 | |
| 2013-09-01T00:00 | 3145 | 695 | -2.3 | -4.0 | 257 | 16 | |
| 2013-09-01T00:00 | 3156 | 694 | -2.4 | -3.9 | 256 | 15 | |
| 2013-09-01T00:00 | 3167 | 693 | -2.5 | -4.0 | 256 | 15 | |
| 2013-09-01T00:00 | 3181 | 692 | -2.5 | -4.2 | 255 | 15 | |
| 2013-09-01T00:00 | 3195 | 690 | -2.6 | -4.4 | 255 | 15 | |
| 2013-09-01T00:00 | 3210 | 689 | -2.6 | -4.5 | 255 | 14 | |
| 2013-09-01T00:00 | 3225 | 688 | -2.6 | -4.9 | 254 | 14 | |
| 2013-09-01T00:00 | 3236 | 687 | -2.6 | -5.2 | 254 | 14 | |
| 2013-09-01T00:00 | 3248 | 686 | -2.8 | -5.4 | 254 | 14 | |
| 2013-09-01T00:00 | 3261 | 685 | -2.8 | -5.3 | 253 | 14 | |
| 2013-09-01T00:00 | 3272 | 684 | -3.0 | -5.3 | 253 | 14 | |
| 2013-09-01T00:00 | 3283 | 683 | -3.0 | -5.2 | 253 | 14 | |
| 2013-09-01T00:00 | 3294 | 682 | -3.2 | -5.1 | 253 | 14 | |
| 2013-09-01T00:00 | 3308 | 681 | -3.3 | -5.1 | 253 | 14 | |
| 2013-09-01T00:00 | 3323 | 679 | -3.4 | -5.0 | 253 | 14 | |
| 2013-09-01T00:00 | 3336 | 678 | -3.5 | -4.9 | 253 | 14 | |
| 2013-09-01T00:00 | 3346 | 677 | -3.6 | -5.0 | 254 | 14 | |
| 2013-09-01T00:00 | 3354 | 677 | -3.8 | -5.0 | 255 | 14 | |
| 2013-09-01T00:00 | 3363 | 676 | -3.8 | -5.0 | 255 | 14 | |
| 2013-09-01T00:00 | 3374 | 675 | -3.8 | -4.9 | 256 | 14 | |
| 2013-09-01T00:00 | 3388 | 674 | -3.8 | -5.3 | 258 | 14 | |
| 2013-09-01T00:00 | 3403 | 672 | -3.8 | -6.1 | 259 | 14 | |
| 2013-09-01T00:00 | 3416 | 671 | -3.8 | -6.7 | 261 | 14 | |
| 2013-09-01T00:00 | 3430 | 670 | -3.8 | -7.2 | 262 | 14 | |
| 2013-09-01T00:00 | 3442 | 669 | -3.5 | -7.8 | 264 | 14 | |
| 2013-09-01T00:00 | 3452 | 668 | -3.5 | -8.5 | 265 | 14 | |
| 2013-09-01T00:00 | 3462 | 667 | -3.5 | -9.2 | 266 | 14 | |
| 2013-09-01T00:00 | 3471 | 667 | -3.4 | -10.3 | 267 | 14 | |
| 2013-09-01T00:00 | 3478 | 666 | -3.3 | -11.1 | 267 | 14 | |
| 2013-09-01T00:00 | 3486 | 665 | -3.3 | -11.5 | 267 | 14 | |
| 2013-09-01T00:00 | 3495 | 665 | -3.4 | -11.8 | 267 | 14 | |
| 2013-09-01T00:00 | 3503 | 664 | -3.4 | -12.3 | 266 | 14 | |
| 2013-09-01T00:00 | 3513 | 663 | -3.4 | -12.8 | 266 | 14 | |
| 2013-09-01T00:00 | 3522 | 662 | -3.5 | -13.4 | 265 | 14 | |
| 2013-09-01T00:00 | 3529 | 662 | -3.5 | -13.4 | 264 | 13 | |
| 2013-09-01T00:00 | 3538 | 661 | -3.6 | -13.5 | 263 | 13 | |
| 2013-09-01T00:00 | 3547 | 660 | -3.8 | -13.7 | 262 | 13 | |
| 2013-09-01T00:00 | 3555 | 660 | -3.8 | -13.2 | 262 | 13 | |
| 2013-09-01T00:00 | 3564 | 659 | -3.8 | -12.9 | 262 | 13 | |
| 2013-09-01T00:00 | 3573 | 658 | -3.9 | -12.8 | 261 | 13 | |
| 2013-09-01T00:00 | 3583 | 657 | -4.0 | -11.7 | 262 | 13 | |
| 2013-09-01T00:00 | 3593 | 656 | -4.1 | -10.0 | 262 | 12 | |
| 2013-09-01T00:00 | 3602 | 656 | -4.1 | -9.8 | 262 | 13 | |
| 2013-09-01T00:00 | 3612 | 655 | -4.0 | -10.5 | 263 | 13 | |
| 2013-09-01T00:00 | 3625 | 654 | -4.1 | -11.0 | 263 | 13 | |
| 2013-09-01T00:00 | 3639 | 653 | -4.2 | -10.9 | 264 | 13 | |
| 2013-09-01T00:00 | 3652 | 652 | -4.2 | -10.9 | 265 | 13 | |
| 2013-09-01T00:00 | 3663 | 651 | -4.3 | -11.6 | 265 | 13 | |
| 2013-09-01T00:00 | 3674 | 650 | -4.3 | -13.1 | 266 | 14 | |
| 2013-09-01T00:00 | 3682 | 649 | -4.3 | -14.7 | 267 | 14 | |
| 2013-09-01T00:00 | 3690 | 648 | -4.3 | -15.5 | 267 | 14 | |
| 2013-09-01T00:00 | 3697 | 648 | -4.4 | -15.9 | 268 | 14 | |
| 2013-09-01T00:00 | 3705 | 647 | -4.5 | -16.3 | 268 | 14 | |
| 2013-09-01T00:00 | 3713 | 646 | -4.5 | -16.6 | 269 | 14 | |
| 2013-09-01T00:00 | 3722 | 646 | -4.5 | -16.9 | 269 | 14 | |
| 2013-09-01T00:00 | 3730 | 645 | -4.5 | -17.9 | 270 | 14 | |
| 2013-09-01T00:00 | 3740 | 644 | -4.6 | -19.1 | 270 | 14 | |
| 2013-09-01T00:00 | 3752 | 643 | -4.5 | -22.2 | 271 | 14 | |
| 2013-09-01T00:00 | 3765 | 642 | -4.5 | -24.4 | 272 | 14 | |
| 2013-09-01T00:00 | 3776 | 641 | -4.5 | -26.5 | 272 | 14 | |
| 2013-09-01T00:00 | 3786 | 641 | -4.4 | -30.0 | 273 | 14 | |
| 2013-09-01T00:00 | 3795 | 640 | -4.1 | -33.6 | 274 | 14 | |
| 2013-09-01T00:00 | 3802 | 639 | -4.0 | -35.2 | 275 | 14 | |
| 2013-09-01T00:00 | 3809 | 639 | -3.9 | -35.1 | 277 | 14 | |
| 2013-09-01T00:00 | 3818 | 638 | -3.8 | -37.1 | 278 | 14 | |
| 2013-09-01T00:00 | 3828 | 637 | -3.8 | -37.1 | 279 | 14 | |
| 2013-09-01T00:00 | 3837 | 636 | -3.8 | -33.4 | 280 | 14 | |
| 2013-09-01T00:00 | 3845 | 636 | -3.8 | -31.9 | 281 | 14 | |
| 2013-09-01T00:00 | 3852 | 635 | -3.8 | -31.9 | 282 | 14 | |
| 2013-09-01T00:00 | 3861 | 634 | -3.8 | -31.9 | 283 | 14 | |
| 2013-09-01T00:00 | 3872 | 634 | -3.9 | -32.0 | 283 | 14 | |
| 2013-09-01T00:00 | 3883 | 633 | -4.0 | -32.1 | 284 | 14 | |
| 2013-09-01T00:00 | 3892 | 632 | -4.1 | -32.1 | 284 | 14 | |
| 2013-09-01T00:00 | 3900 | 631 | -4.2 | -32.2 | 285 | 13 | |
| 2013-09-01T00:00 | 3908 | 631 | -4.3 | -32.3 | 285 | 13 | |
| 2013-09-01T00:00 | 3916 | 630 | -4.3 | -32.3 | 285 | 13 | |
| 2013-09-01T00:00 | 3924 | 629 | -4.4 | -32.4 | 285 | 12 | |
| 2013-09-01T00:00 | 3934 | 629 | -4.5 | -32.5 | 285 | 12 | |
| 2013-09-01T00:00 | 3944 | 628 | -4.6 | -32.5 | 285 | 12 | |
| 2013-09-01T00:00 | 3952 | 627 | -4.6 | -32.5 | 285 | 11 | |
| 2013-09-01T00:00 | 3959 | 627 | -4.8 | -31.4 | 285 | 11 | |
| 2013-09-01T00:00 | 3967 | 626 | -4.8 | -31.4 | 284 | 11 | |
| 2013-09-01T00:00 | 3975 | 625 | -4.8 | -30.3 | 284 | 11 | |
| 2013-09-01T00:00 | 3983 | 625 | -4.9 | -30.4 | 283 | 11 | |
| 2013-09-01T00:00 | 3993 | 624 | -4.9 | -29.4 | 281 | 11 | |
| 2013-09-01T00:00 | 4002 | 623 | -5.0 | -28.5 | 280 | 11 | |
| 2013-09-01T00:00 | 4010 | 623 | -5.1 | -28.6 | 279 | 11 | |
| 2013-09-01T00:00 | 4019 | 622 | -5.1 | -28.6 | 278 | 11 | |
| 2013-09-01T00:00 | 4030 | 621 | -5.2 | -28.7 | 277 | 11 | |
| 2013-09-01T00:00 | 4041 | 620 | -5.3 | -27.9 | 276 | 11 | |
| 2013-09-01T00:00 | 4052 | 619 | -5.4 | -28.0 | 276 | 12 | |
| 2013-09-01T00:00 | 4060 | 619 | -5.5 | -27.3 | 275 | 12 | |
| 2013-09-01T00:00 | 4068 | 618 | -5.5 | -27.3 | 275 | 12 | |
| 2013-09-01T00:00 | 4076 | 617 | -5.6 | -27.4 | 275 | 12 | |
| 2013-09-01T00:00 | 4087 | 617 | -5.8 | -27.6 | 276 | 12 | |
| 2013-09-01T00:00 | 4100 | 615 | -5.8 | -27.6 | 276 | 12 | |
| 2013-09-01T00:00 | 4114 | 614 | -6.0 | -27.8 | 277 | 12 | |
| 2013-09-01T00:00 | 4127 | 613 | -6.1 | -27.1 | 277 | 12 | |
| 2013-09-01T00:00 | 4137 | 613 | -6.2 | -27.2 | 277 | 12 | |
| 2013-09-01T00:00 | 4146 | 612 | -6.3 | -27.3 | 278 | 12 | |
| 2013-09-01T00:00 | 4157 | 611 | -6.4 | -27.4 | 278 | 12 | |
| 2013-09-01T00:00 | 4170 | 610 | -6.5 | -27.5 | 277 | 12 | |
| 2013-09-01T00:00 | 4182 | 609 | -6.6 | -27.5 | 277 | 12 | |
| 2013-09-01T00:00 | 4192 | 608 | -6.8 | -27.7 | 277 | 13 | |
| 2013-09-01T00:00 | 4201 | 608 | -6.8 | -27.7 | 276 | 13 | |
| 2013-09-01T00:00 | 4210 | 607 | -6.9 | -27.8 | 276 | 13 | |
| 2013-09-01T00:00 | 4220 | 606 | -7.0 | -27.9 | 276 | 13 | |
| 2013-09-01T00:00 | 4231 | 605 | -7.1 | -28.0 | 276 | 13 | |
| 2013-09-01T00:00 | 4244 | 604 | -7.2 | -27.4 | 275 | 13 | |
| 2013-09-01T00:00 | 4259 | 603 | -7.3 | -28.1 | 275 | 13 | |
| 2013-09-01T00:00 | 4275 | 602 | -7.4 | -28.2 | 276 | 13 | |
| 2013-09-01T00:00 | 4288 | 601 | -7.6 | -28.4 | 276 | 13 | |
| 2013-09-01T00:00 | 4299 | 600 | -7.6 | 276 | 13 | ||
| 2013-09-01T00:00 | 4306 | 599 | -7.8 | -27.9 | 276 | 13 | |
| 2013-09-01T00:00 | 4313 | 599 | -7.8 | -27.9 | 276 | 13 | |
| 2013-09-01T00:00 | 4321 | 598 | -7.8 | -27.9 | 276 | 13 | |
| 2013-09-01T00:00 | 4331 | 597 | -7.9 | -28.0 | 276 | 13 | |
| 2013-09-01T00:00 | 4344 | 597 | -8.0 | -28.1 | 276 | 13 | |
| 2013-09-01T00:00 | 4356 | 596 | -8.1 | -28.1 | 276 | 13 | |
| 2013-09-01T00:00 | 4369 | 595 | -8.2 | -28.2 | 275 | 13 | |
| 2013-09-01T00:00 | 4381 | 594 | -8.3 | -29.0 | 275 | 12 | |
| 2013-09-01T00:00 | 4395 | 593 | -8.4 | -29.1 | 275 | 12 | |
| 2013-09-01T00:00 | 4411 | 591 | -8.5 | -28.5 | 275 | 12 | |
| 2013-09-01T00:00 | 4426 | 590 | -8.8 | -28.7 | 275 | 12 | |
| 2013-09-01T00:00 | 4438 | 589 | -8.8 | -28.7 | 275 | 12 | |
| 2013-09-01T00:00 | 4451 | 588 | -8.9 | -28.8 | 275 | 13 | |
| 2013-09-01T00:00 | 4466 | 587 | -9.0 | -29.6 | 275 | 13 | |
| 2013-09-01T00:00 | 4478 | 586 | -9.0 | -29.6 | 275 | 13 | |
| 2013-09-01T00:00 | 4487 | 586 | -9.1 | -29.7 | 275 | 13 | |
| 2013-09-01T00:00 | 4498 | 585 | -9.2 | -29.7 | 275 | 13 | |
| 2013-09-01T00:00 | 4508 | 584 | -9.3 | -29.8 | 274 | 13 | |
| 2013-09-01T00:00 | 4516 | 583 | -9.3 | -29.8 | 274 | 13 | |
| 2013-09-01T00:00 | 4526 | 583 | -9.4 | -29.9 | 274 | 13 | |
| 2013-09-01T00:00 | 4537 | 582 | -9.4 | -30.6 | 273 | 13 | |
| 2013-09-01T00:00 | 4547 | 581 | -9.4 | -30.6 | 272 | 13 | |
| 2013-09-01T00:00 | 4557 | 580 | -9.5 | -30.7 | 272 | 13 | |
| 2013-09-01T00:00 | 4566 | 580 | -9.5 | -30.7 | 271 | 13 | |
| 2013-09-01T00:00 | 4579 | 579 | -9.6 | -30.8 | 270 | 13 | |
| 2013-09-01T00:00 | 4594 | 578 | -9.8 | -31.0 | 269 | 12 | |
| 2013-09-01T00:00 | 4608 | 576 | -9.8 | -31.0 | 268 | 12 | |
| 2013-09-01T00:00 | 4623 | 575 | -9.9 | -31.0 | 267 | 12 | |
| 2013-09-01T00:00 | 4638 | 574 | -10.0 | -31.1 | 266 | 11 | |
| 2013-09-01T00:00 | 4651 | 573 | -10.1 | -31.2 | 265 | 11 | |
| 2013-09-01T00:00 | 4662 | 572 | -10.2 | -31.3 | 264 | 11 | |
| 2013-09-01T00:00 | 4670 | 572 | -10.2 | -31.3 | 263 | 10 | |
| 2013-09-01T00:00 | 4679 | 571 | -10.3 | -31.4 | 263 | 10 | |
| 2013-09-01T00:00 | 4688 | 571 | -10.4 | -31.5 | 262 | 10 | |
| 2013-09-01T00:00 | 4697 | 570 | -10.5 | -31.6 | 262 | 10 | |
| 2013-09-01T00:00 | 4708 | 569 | -10.5 | -31.6 | 261 | 10 | |
| 2013-09-01T00:00 | 4718 | 568 | -10.6 | -31.6 | 261 | 10 | |
| 2013-09-01T00:00 | 4731 | 567 | -10.8 | -31.8 | 260 | 10 | |
| 2013-09-01T00:00 | 4742 | 567 | -10.8 | -32.6 | 260 | 10 | |
| 2013-09-01T00:00 | 4751 | 566 | -10.8 | -32.6 | 260 | 10 | |
| 2013-09-01T00:00 | 4762 | 565 | -10.9 | -32.6 | 259 | 10 | |
| 2013-09-01T00:00 | 4774 | 564 | -11.0 | -32.7 | 259 | 10 | |
| 2013-09-01T00:00 | 4786 | 563 | -11.1 | -32.8 | 258 | 11 | |
| 2013-09-01T00:00 | 4795 | 563 | -11.2 | -32.9 | 258 | 11 | |
| 2013-09-01T00:00 | 4805 | 562 | -11.2 | -32.9 | 258 | 11 | |
| 2013-09-01T00:00 | 4818 | 561 | -11.3 | -33.0 | 258 | 11 | |
| 2013-09-01T00:00 | 4831 | 560 | -11.4 | -33.1 | 258 | 11 | |
| 2013-09-01T00:00 | 4842 | 559 | -11.5 | -33.2 | 258 | 10 | |
| 2013-09-01T00:00 | 4854 | 558 | -11.6 | -33.2 | 259 | 10 | |
| 2013-09-01T00:00 | 4865 | 557 | -11.8 | -33.4 | 259 | 10 | |
| 2013-09-01T00:00 | 4875 | 557 | -11.8 | -33.4 | 260 | 10 | |
| 2013-09-01T00:00 | 4884 | 556 | -11.8 | -33.4 | 261 | 10 | |
| 2013-09-01T00:00 | 4892 | 556 | -11.8 | -33.4 | 262 | 10 | |
| 2013-09-01T00:00 | 4903 | 555 | -11.8 | -33.4 | 263 | 10 | |
| 2013-09-01T00:00 | 4915 | 554 | -11.9 | -33.5 | 264 | 10 | |
| 2013-09-01T00:00 | 4925 | 553 | -11.9 | -33.5 | 265 | 11 | |
| 2013-09-01T00:00 | 4935 | 552 | -12.0 | -33.6 | 266 | 11 | |
| 2013-09-01T00:00 | 4947 | 552 | -12.1 | -33.7 | 267 | 11 | |
| 2013-09-01T00:00 | 4958 | 551 | -12.2 | -33.7 | 268 | 12 | |
| 2013-09-01T00:00 | 4969 | 550 | -12.2 | -33.7 | 269 | 12 | |
| 2013-09-01T00:00 | 4984 | 549 | -12.3 | -34.6 | 270 | 12 | |
| 2013-09-01T00:00 | 5000 | 548 | -12.3 | -34.6 | 270 | 13 | |
| 2013-09-01T00:00 | 5017 | 546 | -12.3 | -34.6 | 271 | 13 | |
| 2013-09-01T00:00 | 5031 | 546 | -12.3 | -35.5 | 271 | 13 | |
| 2013-09-01T00:00 | 5040 | 545 | -12.3 | -36.5 | 272 | 13 | |
| 2013-09-01T00:00 | 5048 | 544 | -12.3 | -36.5 | 272 | 14 | |
| 2013-09-01T00:00 | 5057 | 544 | -12.3 | -36.5 | 272 | 14 | |
| 2013-09-01T00:00 | 5068 | 543 | -12.3 | -36.5 | 272 | 14 | |
| 2013-09-01T00:00 | 5078 | 542 | -12.3 | -37.5 | 272 | 14 | |
| 2013-09-01T00:00 | 5088 | 541 | -12.4 | -37.6 | 271 | 14 | |
| 2013-09-01T00:00 | 5098 | 541 | -12.4 | -37.6 | 271 | 14 | |
| 2013-09-01T00:00 | 5108 | 540 | -12.5 | -37.7 | 270 | 14 | |
| 2013-09-01T00:00 | 5118 | 539 | -12.5 | -37.7 | 270 | 14 | |
| 2013-09-01T00:00 | 5130 | 539 | -12.6 | -37.8 | 269 | 14 | |
| 2013-09-01T00:00 | 5139 | 538 | -12.8 | -37.9 | 269 | 14 | |
| 2013-09-01T00:00 | 5149 | 537 | -12.8 | -37.9 | 268 | 14 | |
| 2013-09-01T00:00 | 5162 | 536 | -12.9 | -38.0 | 268 | 14 | |
| 2013-09-01T00:00 | 5173 | 535 | -13.0 | -38.1 | 269 | 13 | |
| 2013-09-01T00:00 | 5180 | 535 | -13.0 | -37.0 | 269 | 13 | |
| 2013-09-01T00:00 | 5187 | 534 | -13.1 | -37.1 | 269 | 13 | |
| 2013-09-01T00:00 | 5194 | 534 | -13.2 | -37.2 | 270 | 13 | |
| 2013-09-01T00:00 | 5201 | 533 | -13.3 | -37.3 | 271 | 13 | |
| 2013-09-01T00:00 | 5211 | 533 | -13.3 | -37.3 | 271 | 13 | |
| 2013-09-01T00:00 | 5221 | 532 | -13.4 | -37.4 | 272 | 12 | |
| 2013-09-01T00:00 | 5232 | 531 | -13.5 | -37.5 | 273 | 12 | |
| 2013-09-01T00:00 | 5244 | 531 | -13.6 | -37.5 | 273 | 12 | |
| 2013-09-01T00:00 | 5253 | 530 | -13.8 | -37.7 | 273 | 12 | |
| 2013-09-01T00:00 | 5260 | 529 | -13.8 | -37.7 | 273 | 12 | |
| 2013-09-01T00:00 | 5269 | 529 | -13.9 | -37.8 | 273 | 12 | |
| 2013-09-01T00:00 | 5277 | 528 | -14.0 | -36.9 | 273 | 12 | |
| 2013-09-01T00:00 | 5285 | 528 | -14.0 | -36.9 | 273 | 12 | |
| 2013-09-01T00:00 | 5293 | 527 | -14.1 | -37.0 | 273 | 12 | |
| 2013-09-01T00:00 | 5300 | 527 | -14.2 | -37.1 | 272 | 11 | |
| 2013-09-01T00:00 | 5309 | 526 | -14.3 | -37.2 | 272 | 11 | |
| 2013-09-01T00:00 | 5318 | 525 | -14.4 | -37.3 | 272 | 11 | |
| 2013-09-01T00:00 | 5328 | 525 | -14.4 | -36.4 | 272 | 11 | |
| 2013-09-01T00:00 | 5341 | 524 | -14.6 | -36.6 | 271 | 11 | |
| 2013-09-01T00:00 | 5352 | 523 | -14.8 | -36.7 | 271 | 11 | |
| 2013-09-01T00:00 | 5361 | 522 | -14.8 | -36.7 | 271 | 12 | |
| 2013-09-01T00:00 | 5369 | 522 | -14.8 | -36.7 | 270 | 12 | |
| 2013-09-01T00:00 | 5377 | 521 | -14.9 | -36.0 | 270 | 12 | |
| 2013-09-01T00:00 | 5385 | 521 | -15.0 | -36.1 | 269 | 12 | |
| 2013-09-01T00:00 | 5394 | 520 | -15.1 | -36.2 | 269 | 12 | |
| 2013-09-01T00:00 | 5404 | 519 | -15.1 | -35.4 | 268 | 12 | |
| 2013-09-01T00:00 | 5417 | 519 | -15.3 | -35.6 | 267 | 12 | |
| 2013-09-01T00:00 | 5429 | 518 | -15.4 | -35.7 | 267 | 12 | |
| 2013-09-01T00:00 | 5439 | 517 | -15.5 | -35.8 | 267 | 12 | |
| 2013-09-01T00:00 | 5450 | 516 | -15.6 | -35.9 | 266 | 12 | |
| 2013-09-01T00:00 | 5458 | 516 | -15.8 | -35.4 | 266 | 12 | |
| 2013-09-01T00:00 | 5466 | 515 | -15.8 | -35.4 | 267 | 12 | |
| 2013-09-01T00:00 | 5475 | 515 | -15.9 | -35.4 | 267 | 12 | |
| 2013-09-01T00:00 | 5483 | 514 | -15.9 | -35.4 | 268 | 12 | |
| 2013-09-01T00:00 | 5492 | 513 | -16.0 | -35.5 | 268 | 11 | |
| 2013-09-01T00:00 | 5503 | 513 | -16.1 | -35.6 | 269 | 11 | |
| 2013-09-01T00:00 | 5515 | 512 | -16.2 | -35.7 | 270 | 11 | |
| 2013-09-01T00:00 | 5526 | 511 | -16.3 | -35.2 | 271 | 11 | |
| 2013-09-01T00:00 | 5534 | 511 | -16.4 | -34.6 | 271 | 11 | |
| 2013-09-01T00:00 | 5545 | 510 | -16.5 | -31.8 | 272 | 10 | |
| 2013-09-01T00:00 | 5557 | 509 | -16.6 | -29.5 | 273 | 10 | |
| 2013-09-01T00:00 | 5567 | 508 | -16.8 | -29.1 | 273 | 10 | |
| 2013-09-01T00:00 | 5575 | 508 | -16.8 | -28.7 | 273 | 10 | |
| 2013-09-01T00:00 | 5587 | 507 | -16.9 | -28.5 | 274 | 10 | |
| 2013-09-01T00:00 | 5597 | 506 | -17.0 | -28.3 | 274 | 10 | |
| 2013-09-01T00:00 | 5606 | 506 | -17.1 | -28.4 | 274 | 10 | |
| 2013-09-01T00:00 | 5615 | 505 | -17.2 | -28.5 | 274 | 10 | |
| 2013-09-01T00:00 | 5625 | 504 | -17.3 | -28.6 | 274 | 10 | |
| 2013-09-01T00:00 | 5635 | 504 | -17.4 | -28.4 | 274 | 11 | |
| 2013-09-01T00:00 | 5644 | 503 | -17.5 | -28.5 | 273 | 11 | |
| 2013-09-01T00:00 | 5654 | 502 | -17.6 | -28.6 | 273 | 11 | |
| 2013-09-01T00:00 | 5668 | 501 | -17.7 | -28.4 | 272 | 12 | |
| 2013-09-01T00:00 | 5684 | 500 | -17.8 | -28.5 | 271 | 12 | |
| 2013-09-01T00:00 | 5699 | 499 | -18.0 | -28.7 | 271 | 12 | |
| 2013-09-01T00:00 | 5712 | 499 | -18.1 | -28.5 | 270 | 12 | |
| 2013-09-01T00:00 | 5721 | 498 | -18.2 | -28.6 | 269 | 12 | |
| 2013-09-01T00:00 | 5730 | 497 | -18.3 | -28.7 | 268 | 13 | |
| 2013-09-01T00:00 | 5740 | 497 | -18.4 | -28.7 | 267 | 13 | |
| 2013-09-01T00:00 | 5750 | 496 | -18.5 | -28.6 | 266 | 13 | |
| 2013-09-01T00:00 | 5758 | 495 | -18.6 | -28.7 | 266 | 13 | |
| 2013-09-01T00:00 | 5767 | 495 | -18.7 | -28.8 | 265 | 13 | |
| 2013-09-01T00:00 | 5778 | 494 | -18.8 | -28.8 | 265 | 13 | |
| 2013-09-01T00:00 | 5791 | 493 | -18.9 | -28.9 | 265 | 13 | |
| 2013-09-01T00:00 | 5804 | 492 | -19.0 | -29.0 | 265 | 12 | |
| 2013-09-01T00:00 | 5813 | 492 | -19.1 | -29.4 | 265 | 12 | |
| 2013-09-01T00:00 | 5822 | 491 | -19.2 | -29.8 | 265 | 12 | |
| 2013-09-01T00:00 | 5836 | 490 | -19.3 | -29.8 | 265 | 12 | |
| 2013-09-01T00:00 | 5849 | 489 | -19.4 | -29.7 | 265 | 12 | |
| 2013-09-01T00:00 | 5862 | 489 | -19.6 | -29.9 | 265 | 12 | |
| 2013-09-01T00:00 | 5873 | 488 | -19.7 | -29.9 | 265 | 11 | |
| 2013-09-01T00:00 | 5882 | 487 | -19.7 | -29.9 | 265 | 11 | |
| 2013-09-01T00:00 | 5892 | 487 | -19.8 | -30.0 | 265 | 11 | |
| 2013-09-01T00:00 | 5901 | 486 | -20.0 | -30.0 | 265 | 11 | |
| 2013-09-01T00:00 | 5909 | 486 | -20.0 | -30.0 | 264 | 11 | |
| 2013-09-01T00:00 | 5917 | 485 | -20.1 | -30.0 | 264 | 11 | |
| 2013-09-01T00:00 | 5925 | 484 | -20.2 | -30.4 | 264 | 11 | |
| 2013-09-01T00:00 | 5936 | 484 | -20.2 | -30.9 | 263 | 11 | |
| 2013-09-01T00:00 | 5948 | 483 | -20.3 | -32.5 | 262 | 11 | |
| 2013-09-01T00:00 | 5957 | 482 | -20.4 | -34.8 | 261 | 11 | |
| 2013-09-01T00:00 | 5968 | 482 | -20.4 | -37.0 | 260 | 11 | |
| 2013-09-01T00:00 | 5981 | 481 | -20.5 | -38.8 | 259 | 11 | |
| 2013-09-01T00:00 | 5992 | 480 | -20.5 | -39.4 | 259 | 11 | |
| 2013-09-01T00:00 | 6000 | 480 | -20.6 | -39.5 | 258 | 11 | |
| 2013-09-01T00:00 | 6007 | 479 | -20.7 | -39.6 | 257 | 11 | |
| 2013-09-01T00:00 | 6015 | 479 | -20.7 | -39.6 | 257 | 11 | |
| 2013-09-01T00:00 | 6024 | 478 | -20.8 | -39.6 | 257 | 11 | |
| 2013-09-01T00:00 | 6033 | 477 | -20.9 | -39.7 | 257 | 11 | |
| 2013-09-01T00:00 | 6040 | 477 | -21.0 | -39.8 | 258 | 11 | |
| 2013-09-01T00:00 | 6048 | 476 | -21.0 | -39.8 | 258 | 11 | |
| 2013-09-01T00:00 | 6055 | 476 | -21.1 | -39.9 | 260 | 11 | |
| 2013-09-01T00:00 | 6061 | 476 | -21.2 | -40.0 | 261 | 11 | |
| 2013-09-01T00:00 | 6068 | 475 | -21.2 | -40.0 | 262 | 11 | |
| 2013-09-01T00:00 | 6076 | 475 | -21.3 | -40.1 | 263 | 11 | |
| 2013-09-01T00:00 | 6084 | 474 | -21.4 | -40.2 | 265 | 11 | |
| 2013-09-01T00:00 | 6093 | 474 | -21.4 | -40.2 | 266 | 11 | |
| 2013-09-01T00:00 | 6102 | 473 | -21.5 | -40.2 | 267 | 12 | |
| 2013-09-01T00:00 | 6112 | 472 | -21.6 | -40.3 | 267 | 12 | |
| 2013-09-01T00:00 | 6124 | 472 | -21.7 | -39.8 | 268 | 12 | |
| 2013-09-01T00:00 | 6135 | 471 | -21.8 | -39.9 | 268 | 12 | |
| 2013-09-01T00:00 | 6146 | 470 | -21.9 | -39.4 | 268 | 12 | |
| 2013-09-01T00:00 | 6154 | 470 | -22.0 | -39.5 | 268 | 12 | |
| 2013-09-01T00:00 | 6165 | 469 | -22.1 | -39.6 | 268 | 13 | |
| 2013-09-01T00:00 | 6177 | 468 | -22.2 | -39.1 | 268 | 13 | |
| 2013-09-01T00:00 | 6188 | 467 | -22.3 | -39.2 | 268 | 13 | |
| 2013-09-01T00:00 | 6197 | 467 | -22.3 | -38.7 | 267 | 13 | |
| 2013-09-01T00:00 | 6206 | 466 | -22.4 | -38.8 | 267 | 13 | |
| 2013-09-01T00:00 | 6217 | 466 | -22.5 | -37.9 | 266 | 12 | |
| 2013-09-01T00:00 | 6228 | 465 | -22.6 | -37.2 | 266 | 12 | |
| 2013-09-01T00:00 | 6238 | 464 | -22.7 | -36.5 | 266 | 12 | |
| 2013-09-01T00:00 | 6247 | 464 | -22.8 | -36.2 | 265 | 12 | |
| 2013-09-01T00:00 | 6254 | 463 | -22.8 | -35.5 | 265 | 12 | |
| 2013-09-01T00:00 | 6262 | 463 | -22.9 | -34.6 | 264 | 12 | |
| 2013-09-01T00:00 | 6269 | 462 | -23.0 | -34.1 | 264 | 12 | |
| 2013-09-01T00:00 | 6275 | 462 | -23.1 | -33.9 | 263 | 12 | |
| 2013-09-01T00:00 | 6282 | 462 | -23.1 | -33.6 | 263 | 12 | |
| 2013-09-01T00:00 | 6290 | 461 | -23.2 | -33.4 | 263 | 12 | |
| 2013-09-01T00:00 | 6299 | 460 | -23.3 | -33.5 | 263 | 12 | |
| 2013-09-01T00:00 | 6309 | 460 | -23.4 | -33.9 | 263 | 12 | |
| 2013-09-01T00:00 | 6322 | 459 | -23.5 | -33.7 | 263 | 12 | |
| 2013-09-01T00:00 | 6335 | 458 | -23.6 | -33.5 | 263 | 12 | |
| 2013-09-01T00:00 | 6345 | 458 | -23.7 | -33.4 | 263 | 12 | |
| 2013-09-01T00:00 | 6353 | 457 | -23.8 | -33.2 | 263 | 12 | |
| 2013-09-01T00:00 | 6364 | 456 | -23.9 | -33.6 | 263 | 12 | |
| 2013-09-01T00:00 | 6373 | 456 | -24.0 | -33.9 | 264 | 12 | |
| 2013-09-01T00:00 | 6381 | 455 | -24.1 | -34.0 | 264 | 12 | |
| 2013-09-01T00:00 | 6391 | 455 | -24.2 | -34.6 | 264 | 11 | |
| 2013-09-01T00:00 | 6400 | 454 | -24.2 | -34.9 | 264 | 11 | |
| 2013-09-01T00:00 | 6409 | 454 | -24.3 | -35.6 | 263 | 11 | |
| 2013-09-01T00:00 | 6419 | 453 | -24.4 | -36.3 | 263 | 11 | |
| 2013-09-01T00:00 | 6428 | 452 | -24.5 | -36.7 | 263 | 11 | |
| 2013-09-01T00:00 | 6439 | 452 | -24.6 | -37.1 | 262 | 11 | |
| 2013-09-01T00:00 | 6451 | 451 | -24.7 | -37.9 | 261 | 11 | |
| 2013-09-01T00:00 | 6464 | 450 | -24.8 | -38.3 | 261 | 11 | |
| 2013-09-01T00:00 | 6477 | 449 | -24.9 | -38.4 | 260 | 11 | |
| 2013-09-01T00:00 | 6488 | 449 | -25.0 | -38.5 | 260 | 12 | |
| 2013-09-01T00:00 | 6497 | 448 | -25.1 | -38.2 | 259 | 12 | |
| 2013-09-01T00:00 | 6506 | 448 | -25.2 | -38.3 | 258 | 12 | |
| 2013-09-01T00:00 | 6516 | 447 | -25.3 | -38.1 | 258 | 12 | |
| 2013-09-01T00:00 | 6526 | 446 | -25.4 | -38.2 | 257 | 12 | |
| 2013-09-01T00:00 | 6537 | 446 | -25.5 | -37.9 | 256 | 13 | |
| 2013-09-01T00:00 | 6547 | 445 | -25.6 | -37.7 | 255 | 13 | |
| 2013-09-01T00:00 | 6557 | 444 | -25.7 | -37.1 | 254 | 13 | |
| 2013-09-01T00:00 | 6566 | 444 | -25.8 | -36.6 | 254 | 13 | |
| 2013-09-01T00:00 | 6574 | 443 | -25.9 | -36.5 | 253 | 13 | |
| 2013-09-01T00:00 | 6584 | 443 | -26.0 | -36.3 | 252 | 13 | |
| 2013-09-01T00:00 | 6593 | 442 | -26.1 | -36.4 | 251 | 13 | |
| 2013-09-01T00:00 | 6602 | 442 | -26.1 | -36.1 | 250 | 13 | |
| 2013-09-01T00:00 | 6613 | 441 | -26.3 | -35.5 | 249 | 13 | |
| 2013-09-01T00:00 | 6624 | 440 | -26.4 | -34.3 | 248 | 13 | |
| 2013-09-01T00:00 | 6634 | 440 | -26.4 | -33.7 | 248 | 13 | |
| 2013-09-01T00:00 | 6645 | 439 | -26.5 | -33.8 | 247 | 13 | |
| 2013-09-01T00:00 | 6656 | 438 | -26.6 | -34.5 | 246 | 13 | |
| 2013-09-01T00:00 | 6667 | 438 | -26.6 | -35.6 | 246 | 13 | |
| 2013-09-01T00:00 | 6677 | 437 | -26.7 | -36.1 | 246 | 13 | |
| 2013-09-01T00:00 | 6688 | 436 | -26.8 | -36.7 | 246 | 13 | |
| 2013-09-01T00:00 | 6698 | 436 | -26.9 | -36.8 | 246 | 12 | |
| 2013-09-01T00:00 | 6707 | 435 | -27.0 | -37.2 | 246 | 12 | |
| 2013-09-01T00:00 | 6714 | 435 | -27.1 | -37.6 | 246 | 12 | |
| 2013-09-01T00:00 | 6721 | 434 | -27.1 | -37.6 | 247 | 12 | |
| 2013-09-01T00:00 | 6728 | 434 | -27.2 | -37.6 | 247 | 12 | |
| 2013-09-01T00:00 | 6735 | 434 | -27.3 | -37.7 | 248 | 12 | |
| 2013-09-01T00:00 | 6743 | 433 | -27.3 | -37.7 | 249 | 12 | |
| 2013-09-01T00:00 | 6751 | 433 | -27.4 | -37.8 | 250 | 12 | |
| 2013-09-01T00:00 | 6760 | 432 | -27.5 | -37.9 | 250 | 12 | |
| 2013-09-01T00:00 | 6769 | 432 | -27.6 | -38.0 | 251 | 12 | |
| 2013-09-01T00:00 | 6778 | 431 | -27.7 | -37.8 | 251 | 12 | |
| 2013-09-01T00:00 | 6787 | 430 | -27.8 | -37.7 | 252 | 12 | |
| 2013-09-01T00:00 | 6799 | 430 | -27.9 | -37.3 | 252 | 12 | |
| 2013-09-01T00:00 | 6810 | 429 | -28.0 | -37.1 | 252 | 12 | |
| 2013-09-01T00:00 | 6821 | 428 | -28.0 | -36.9 | 252 | 12 | |
| 2013-09-01T00:00 | 6832 | 428 | -28.1 | -37.2 | 251 | 12 | |
| 2013-09-01T00:00 | 6846 | 427 | -28.3 | -37.4 | 251 | 12 | |
| 2013-09-01T00:00 | 6857 | 426 | -28.4 | -37.0 | 250 | 11 | |
| 2013-09-01T00:00 | 6866 | 426 | -28.5 | -36.4 | 250 | 11 | |
| 2013-09-01T00:00 | 6874 | 425 | -28.5 | -35.8 | 249 | 11 | |
| 2013-09-01T00:00 | 6884 | 425 | -28.6 | -35.5 | 248 | 11 | |
| 2013-09-01T00:00 | 6895 | 424 | -28.7 | -35.3 | 248 | 11 | |
| 2013-09-01T00:00 | 6903 | 424 | -28.8 | -35.0 | 247 | 11 | |
| 2013-09-01T00:00 | 6911 | 423 | -28.9 | -34.7 | 247 | 11 | |
| 2013-09-01T00:00 | 6920 | 423 | -29.0 | -34.5 | 246 | 10 | |
| 2013-09-01T00:00 | 6927 | 422 | -29.0 | -34.3 | 246 | 10 | |
| 2013-09-01T00:00 | 6935 | 422 | -29.1 | -34.3 | 246 | 10 | |
| 2013-09-01T00:00 | 6944 | 421 | -29.2 | -34.2 | 246 | 10 | |
| 2013-09-01T00:00 | 6953 | 421 | -29.2 | -34.2 | 247 | 10 | |
| 2013-09-01T00:00 | 6964 | 420 | -29.2 | -33.9 | 247 | 10 | |
| 2013-09-01T00:00 | 6975 | 419 | -29.2 | -33.0 | 248 | 10 | |
| 2013-09-01T00:00 | 6985 | 419 | -29.2 | -32.2 | 250 | 10 | |
| 2013-09-01T00:00 | 6995 | 418 | -29.3 | -31.8 | 251 | 10 | |
| 2013-09-01T00:00 | 7003 | 418 | -29.4 | -31.7 | 253 | 11 | |
| 2013-09-01T00:00 | 7010 | 417 | -29.4 | -31.5 | 254 | 11 | |
| 2013-09-01T00:00 | 7021 | 417 | -29.5 | -31.5 | 256 | 11 | |
| 2013-09-01T00:00 | 7034 | 416 | -29.6 | -31.3 | 258 | 11 | |
| 2013-09-01T00:00 | 7047 | 415 | -29.7 | -31.1 | 259 | 11 | |
| 2013-09-01T00:00 | 7058 | 414 | -29.7 | -31.0 | 260 | 11 | |
| 2013-09-01T00:00 | 7068 | 414 | -29.8 | -31.0 | 261 | 11 | |
| 2013-09-01T00:00 | 7078 | 413 | -29.9 | -30.9 | 262 | 11 | |
| 2013-09-01T00:00 | 7087 | 413 | -30.0 | -31.0 | 262 | 12 | |
| 2013-09-01T00:00 | 7097 | 412 | -30.1 | -31.1 | 262 | 12 | |
| 2013-09-01T00:00 | 7107 | 412 | -30.2 | -31.1 | 262 | 12 | |
| 2013-09-01T00:00 | 7116 | 411 | -30.3 | -31.1 | 261 | 12 | |
| 2013-09-01T00:00 | 7126 | 411 | -30.4 | -31.1 | 260 | 12 | |
| 2013-09-01T00:00 | 7135 | 410 | -30.5 | -31.2 | 259 | 12 | |
| 2013-09-01T00:00 | 7144 | 410 | -30.5 | -31.3 | 257 | 12 | |
| 2013-09-01T00:00 | 7154 | 409 | -30.7 | -31.4 | 256 | 12 | |
| 2013-09-01T00:00 | 7164 | 408 | -30.8 | -31.6 | 255 | 12 | |
| 2013-09-01T00:00 | 7174 | 408 | -30.9 | -31.7 | 254 | 12 | |
| 2013-09-01T00:00 | 7183 | 407 | -31.0 | -31.8 | 254 | 13 | |
| 2013-09-01T00:00 | 7192 | 407 | -31.1 | -31.8 | 254 | 13 | |
| 2013-09-01T00:00 | 7199 | 406 | -31.1 | -31.8 | 254 | 13 | |
| 2013-09-01T00:00 | 7205 | 406 | -31.1 | -31.6 | 254 | 13 | |
| 2013-09-01T00:00 | 7212 | 406 | -31.2 | -31.8 | 254 | 14 | |
| 2013-09-01T00:00 | 7218 | 405 | -31.4 | -32.1 | 254 | 14 | |
| 2013-09-01T00:00 | 7226 | 405 | -31.5 | -32.2 | 255 | 14 | |
| 2013-09-01T00:00 | 7236 | 404 | -31.5 | -32.1 | 255 | 14 | |
| 2013-09-01T00:00 | 7246 | 404 | -31.5 | -32.0 | 255 | 14 | |
| 2013-09-01T00:00 | 7258 | 403 | -31.6 | -32.0 | 256 | 14 | |
| 2013-09-01T00:00 | 7271 | 402 | -31.8 | -32.2 | 256 | 14 | |
| 2013-09-01T00:00 | 7285 | 401 | -31.9 | -32.3 | 256 | 14 | |
| 2013-09-01T00:00 | 7298 | 401 | -32.1 | -32.5 | 256 | 14 | |
| 2013-09-01T00:00 | 7312 | 400 | -32.2 | -32.7 | 256 | 14 | |
| 2013-09-01T00:00 | 7327 | 399 | -32.3 | -33.2 | 256 | 14 | |
| 2013-09-01T00:00 | 7344 | 398 | -32.2 | -35.0 | 256 | 14 | |
| 2013-09-01T00:00 | 7356 | 397 | -32.0 | -37.9 | 256 | 14 | |
| 2013-09-01T00:00 | 7364 | 397 | -31.7 | -40.3 | 257 | 15 | |
| 2013-09-01T00:00 | 7372 | 396 | -31.6 | -43.4 | 257 | 15 | |
| 2013-09-01T00:00 | 7379 | 396 | -31.6 | -45.6 | 257 | 15 | |
| 2013-09-01T00:00 | 7386 | 396 | -31.6 | -46.8 | 257 | 15 | |
| 2013-09-01T00:00 | 7395 | 395 | -31.6 | -47.8 | 257 | 15 | |
| 2013-09-01T00:00 | 7404 | 395 | -31.6 | -48.4 | 257 | 15 | |
| 2013-09-01T00:00 | 7414 | 394 | -31.6 | -48.4 | 257 | 16 | |
| 2013-09-01T00:00 | 7425 | 394 | -31.7 | -49.0 | 257 | 16 | |
| 2013-09-01T00:00 | 7436 | 393 | -31.8 | -49.1 | 258 | 16 | |
| 2013-09-01T00:00 | 7447 | 392 | -31.9 | -49.2 | 258 | 16 | |
| 2013-09-01T00:00 | 7459 | 392 | -31.9 | -49.2 | 258 | 16 | |
| 2013-09-01T00:00 | 7469 | 391 | -32.0 | -49.3 | 258 | 16 | |
| 2013-09-01T00:00 | 7479 | 391 | -32.0 | -49.9 | 258 | 16 | |
| 2013-09-01T00:00 | 7490 | 390 | -32.1 | -50.6 | 258 | 16 | |
| 2013-09-01T00:00 | 7501 | 389 | -32.1 | -51.3 | 259 | 16 | |
| 2013-09-01T00:00 | 7514 | 389 | -32.1 | -52.1 | 259 | 16 | |
| 2013-09-01T00:00 | 7526 | 388 | -32.2 | -53.0 | 259 | 16 | |
| 2013-09-01T00:00 | 7535 | 387 | -32.2 | -53.9 | 260 | 16 | |
| 2013-09-01T00:00 | 7544 | 387 | -32.3 | -54.0 | 260 | 16 | |
| 2013-09-01T00:00 | 7553 | 386 | -32.4 | -54.1 | 261 | 16 | |
| 2013-09-01T00:00 | 7561 | 386 | -32.4 | -54.1 | 261 | 16 | |
| 2013-09-01T00:00 | 7569 | 386 | -32.5 | -54.1 | 262 | 16 | |
| 2013-09-01T00:00 | 7577 | 385 | -32.5 | -54.1 | 262 | 16 | |
| 2013-09-01T00:00 | 7586 | 385 | -32.6 | -54.2 | 263 | 16 | |
| 2013-09-01T00:00 | 7595 | 384 | -32.6 | -54.2 | 263 | 16 | |
| 2013-09-01T00:00 | 7604 | 384 | -32.7 | -54.3 | 263 | 16 | |
| 2013-09-01T00:00 | 7613 | 383 | -32.7 | -54.3 | 263 | 16 | |
| 2013-09-01T00:00 | 7621 | 383 | -32.8 | -54.4 | 264 | 16 | |
| 2013-09-01T00:00 | 7629 | 382 | -32.9 | -53.6 | 264 | 16 | |
| 2013-09-01T00:00 | 7638 | 382 | -33.0 | -52.8 | 264 | 16 | |
| 2013-09-01T00:00 | 7646 | 381 | -33.0 | -52.1 | 264 | 16 | |
| 2013-09-01T00:00 | 7655 | 381 | -33.1 | -52.1 | 264 | 16 | |
| 2013-09-01T00:00 | 7664 | 380 | -33.2 | -51.5 | 264 | 16 | |
| 2013-09-01T00:00 | 7673 | 380 | -33.3 | -51.6 | 264 | 16 | |
| 2013-09-01T00:00 | 7683 | 379 | -33.3 | -51.6 | 264 | 16 | |
| 2013-09-01T00:00 | 7693 | 379 | -33.4 | -51.7 | 264 | 16 | |
| 2013-09-01T00:00 | 7703 | 378 | -33.5 | -52.5 | 264 | 16 | |
| 2013-09-01T00:00 | 7713 | 378 | -33.5 | -52.5 | 264 | 16 | |
| 2013-09-01T00:00 | 7725 | 377 | -33.6 | -52.6 | 264 | 16 | |
| 2013-09-01T00:00 | 7738 | 376 | -33.7 | -52.0 | 264 | 16 | |
| 2013-09-01T00:00 | 7749 | 376 | -33.8 | -52.0 | 264 | 16 | |
| 2013-09-01T00:00 | 7757 | 375 | -33.9 | -51.5 | 264 | 17 | |
| 2013-09-01T00:00 | 7766 | 375 | -34.0 | -51.0 | 264 | 17 | |
| 2013-09-01T00:00 | 7775 | 374 | -34.1 | -50.5 | 263 | 17 | |
| 2013-09-01T00:00 | 7783 | 374 | -34.1 | -49.5 | 263 | 17 | |
| 2013-09-01T00:00 | 7792 | 374 | -34.2 | -49.1 | 263 | 17 | |
| 2013-09-01T00:00 | 7800 | 373 | -34.3 | -49.2 | 263 | 17 | |
| 2013-09-01T00:00 | 7808 | 373 | -34.4 | -48.9 | 262 | 17 | |
| 2013-09-01T00:00 | 7818 | 372 | -34.5 | -48.5 | 262 | 17 | |
| 2013-09-01T00:00 | 7827 | 372 | -34.6 | -48.6 | 262 | 17 | |
| 2013-09-01T00:00 | 7835 | 371 | -34.6 | -48.2 | 262 | 17 | |
| 2013-09-01T00:00 | 7844 | 371 | -34.7 | -47.9 | 261 | 17 | |
| 2013-09-01T00:00 | 7853 | 370 | -34.8 | -47.6 | 261 | 17 | |
| 2013-09-01T00:00 | 7861 | 370 | -34.9 | -47.7 | 261 | 17 | |
| 2013-09-01T00:00 | 7870 | 369 | -34.9 | -47.7 | 261 | 17 | |
| 2013-09-01T00:00 | 7879 | 369 | -35.0 | -47.5 | 261 | 17 | |
| 2013-09-01T00:00 | 7889 | 368 | -35.1 | -47.6 | 261 | 17 | |
| 2013-09-01T00:00 | 7900 | 368 | -35.1 | -47.6 | 261 | 17 | |
| 2013-09-01T00:00 | 7912 | 367 | -35.2 | -48.0 | 261 | 17 | |
| 2013-09-01T00:00 | 7924 | 367 | -35.3 | -48.1 | 261 | 17 | |
| 2013-09-01T00:00 | 7937 | 366 | -35.4 | -48.2 | 261 | 17 | |
| 2013-09-01T00:00 | 7950 | 365 | -35.5 | -48.6 | 260 | 17 | |
| 2013-09-01T00:00 | 7961 | 365 | -35.5 | -48.6 | 260 | 17 | |
| 2013-09-01T00:00 | 7973 | 364 | -35.6 | -48.7 | 260 | 17 | |
| 2013-09-01T00:00 | 7983 | 363 | -35.7 | -49.2 | 259 | 17 | |
| 2013-09-01T00:00 | 7991 | 363 | -35.7 | -49.2 | 259 | 17 | |
| 2013-09-01T00:00 | 8001 | 363 | -35.8 | -49.3 | 258 | 17 | |
| 2013-09-01T00:00 | 8010 | 362 | -35.9 | -49.4 | 258 | 17 | |
| 2013-09-01T00:00 | 8020 | 361 | -35.9 | -49.4 | 257 | 17 | |
| 2013-09-01T00:00 | 8031 | 361 | -36.0 | -49.5 | 256 | 17 | |
| 2013-09-01T00:00 | 8040 | 360 | -36.1 | -49.6 | 256 | 17 | |
| 2013-09-01T00:00 | 8049 | 360 | -36.2 | -49.3 | 256 | 17 | |
| 2013-09-01T00:00 | 8058 | 360 | -36.3 | -49.4 | 255 | 17 | |
| 2013-09-01T00:00 | 8068 | 359 | -36.4 | -49.4 | 255 | 17 | |
| 2013-09-01T00:00 | 8077 | 359 | -36.4 | -49.4 | 255 | 17 | |
| 2013-09-01T00:00 | 8087 | 358 | -36.5 | -49.5 | 255 | 17 | |
| 2013-09-01T00:00 | 8097 | 358 | -36.6 | -49.3 | 255 | 17 | |
| 2013-09-01T00:00 | 8108 | 357 | -36.7 | -49.3 | 255 | 17 | |
| 2013-09-01T00:00 | 8120 | 356 | -36.8 | -49.4 | 255 | 17 | |
| 2013-09-01T00:00 | 8132 | 356 | -37.0 | -49.3 | 255 | 17 | |
| 2013-09-01T00:00 | 8144 | 355 | -37.1 | -49.4 | 255 | 17 | |
| 2013-09-01T00:00 | 8154 | 355 | -37.2 | -49.5 | 255 | 17 | |
| 2013-09-01T00:00 | 8164 | 354 | -37.2 | -49.1 | 255 | 17 | |
| 2013-09-01T00:00 | 8174 | 354 | -37.3 | -48.9 | 255 | 17 | |
| 2013-09-01T00:00 | 8184 | 353 | -37.3 | -48.6 | 255 | 17 | |
| 2013-09-01T00:00 | 8194 | 353 | -37.4 | -48.7 | 255 | 17 | |
| 2013-09-01T00:00 | 8203 | 352 | -37.5 | -48.5 | 255 | 17 | |
| 2013-09-01T00:00 | 8213 | 352 | -37.6 | -48.6 | 254 | 17 | |
| 2013-09-01T00:00 | 8223 | 351 | -37.7 | -48.6 | 254 | 17 | |
| 2013-09-01T00:00 | 8233 | 351 | -37.8 | -48.4 | 254 | 17 | |
| 2013-09-01T00:00 | 8242 | 350 | -37.9 | -48.5 | 254 | 17 | |
| 2013-09-01T00:00 | 8252 | 350 | -38.0 | -48.6 | 254 | 17 | |
| 2013-09-01T00:00 | 8263 | 349 | -38.1 | -48.7 | 254 | 17 | |
| 2013-09-01T00:00 | 8274 | 348 | -38.2 | -48.5 | 254 | 17 | |
| 2013-09-01T00:00 | 8285 | 348 | -38.3 | -48.6 | 254 | 17 | |
| 2013-09-01T00:00 | 8295 | 347 | -38.4 | -48.7 | 254 | 17 | |
| 2013-09-01T00:00 | 8305 | 347 | -38.5 | -48.8 | 254 | 17 | |
| 2013-09-01T00:00 | 8314 | 346 | -38.6 | -48.9 | 254 | 17 | |
| 2013-09-01T00:00 | 8323 | 346 | -38.6 | -48.9 | 254 | 18 | |
| 2013-09-01T00:00 | 8332 | 346 | -38.7 | -49.0 | 254 | 18 | |
| 2013-09-01T00:00 | 8340 | 345 | -38.8 | -49.1 | 255 | 18 | |
| 2013-09-01T00:00 | 8349 | 345 | -38.8 | -49.1 | 255 | 18 | |
| 2013-09-01T00:00 | 8358 | 344 | -38.9 | -49.2 | 255 | 18 | |
| 2013-09-01T00:00 | 8368 | 344 | -39.0 | -49.3 | 255 | 18 | |
| 2013-09-01T00:00 | 8376 | 343 | -39.1 | -49.1 | 256 | 18 | |
| 2013-09-01T00:00 | 8386 | 343 | -39.2 | -49.2 | 256 | 18 | |
| 2013-09-01T00:00 | 8394 | 342 | -39.3 | -49.3 | 256 | 18 | |
| 2013-09-01T00:00 | 8404 | 342 | -39.4 | -49.4 | 256 | 18 | |
| 2013-09-01T00:00 | 8413 | 341 | -39.4 | -49.1 | 257 | 18 | |
| 2013-09-01T00:00 | 8422 | 341 | -39.5 | -49.2 | 257 | 18 | |
| 2013-09-01T00:00 | 8429 | 341 | -39.6 | -49.3 | 257 | 18 | |
| 2013-09-01T00:00 | 8437 | 340 | -39.6 | -49.0 | 257 | 18 | |
| 2013-09-01T00:00 | 8444 | 340 | -39.7 | -49.1 | 257 | 18 | |
| 2013-09-01T00:00 | 8453 | 339 | -39.8 | -49.2 | 256 | 18 | |
| 2013-09-01T00:00 | 8463 | 339 | -39.9 | -49.1 | 256 | 18 | |
| 2013-09-01T00:00 | 8473 | 338 | -40.0 | -49.2 | 256 | 18 | |
| 2013-09-01T00:00 | 8485 | 338 | -40.1 | -49.0 | 255 | 18 | |
| 2013-09-01T00:00 | 8497 | 337 | -40.1 | -49.0 | 255 | 18 | |
| 2013-09-01T00:00 | 8508 | 337 | -40.2 | -49.1 | 255 | 18 | |
| 2013-09-01T00:00 | 8518 | 336 | -40.3 | -49.0 | 254 | 18 | |
| 2013-09-01T00:00 | 8529 | 336 | -40.5 | -49.2 | 254 | 18 | |
| 2013-09-01T00:00 | 8538 | 335 | -40.5 | -49.2 | 254 | 18 | |
| 2013-09-01T00:00 | 8549 | 335 | -40.6 | -49.3 | 253 | 18 | |
| 2013-09-01T00:00 | 8560 | 334 | -40.7 | -49.1 | 253 | 18 | |
| 2013-09-01T00:00 | 8570 | 334 | -40.8 | -49.2 | 253 | 18 | |
| 2013-09-01T00:00 | 8580 | 333 | -40.9 | -49.3 | 253 | 18 | |
| 2013-09-01T00:00 | 8591 | 333 | -41.0 | -49.2 | 253 | 18 | |
| 2013-09-01T00:00 | 8602 | 332 | -41.1 | -49.1 | 253 | 18 | |
| 2013-09-01T00:00 | 8612 | 332 | -41.2 | -49.0 | 253 | 18 | |
| 2013-09-01T00:00 | 8622 | 331 | -41.3 | -48.8 | 253 | 18 | |
| 2013-09-01T00:00 | 8632 | 331 | -41.3 | -48.6 | 253 | 18 | |
| 2013-09-01T00:00 | 8643 | 330 | -41.4 | -48.7 | 253 | 18 | |
| 2013-09-01T00:00 | 8653 | 330 | -41.5 | -48.6 | 253 | 18 | |
| 2013-09-01T00:00 | 8663 | 329 | -41.6 | -48.7 | 253 | 18 | |
| 2013-09-01T00:00 | 8674 | 329 | -41.7 | -48.6 | 253 | 18 | |
| 2013-09-01T00:00 | 8686 | 328 | -41.9 | -48.8 | 253 | 18 | |
| 2013-09-01T00:00 | 8698 | 327 | -42.0 | -48.7 | 253 | 18 | |
| 2013-09-01T00:00 | 8709 | 327 | -42.1 | -48.8 | 252 | 18 | |
| 2013-09-01T00:00 | 8721 | 326 | -42.2 | -48.7 | 252 | 18 | |
| 2013-09-01T00:00 | 8731 | 326 | -42.3 | -48.8 | 252 | 18 | |
| 2013-09-01T00:00 | 8741 | 325 | -42.4 | -48.8 | 251 | 18 | |
| 2013-09-01T00:00 | 8751 | 325 | -42.5 | -48.9 | 251 | 18 | |
| 2013-09-01T00:00 | 8761 | 324 | -42.6 | -48.8 | 251 | 18 | |
| 2013-09-01T00:00 | 8771 | 324 | -42.7 | -48.9 | 251 | 18 | |
| 2013-09-01T00:00 | 8782 | 323 | -42.8 | -48.8 | 251 | 18 | |
| 2013-09-01T00:00 | 8791 | 323 | -42.9 | -48.9 | 251 | 18 | |
| 2013-09-01T00:00 | 8801 | 322 | -43.0 | -48.8 | 251 | 18 | |
| 2013-09-01T00:00 | 8812 | 322 | -43.1 | -48.9 | 251 | 18 | |
| 2013-09-01T00:00 | 8823 | 321 | -43.2 | -49.0 | 252 | 18 | |
| 2013-09-01T00:00 | 8835 | 321 | -43.3 | -49.1 | 252 | 18 | |
| 2013-09-01T00:00 | 8846 | 320 | -43.3 | -49.3 | 253 | 18 | |
| 2013-09-01T00:00 | 8856 | 320 | -43.3 | -50.0 | 253 | 18 | |
| 2013-09-01T00:00 | 8867 | 319 | -43.2 | -51.2 | 254 | 18 | |
| 2013-09-01T00:00 | 8877 | 319 | -43.2 | -52.6 | 254 | 18 | |
| 2013-09-01T00:00 | 8886 | 318 | -43.2 | -53.7 | 255 | 18 | |
| 2013-09-01T00:00 | 8896 | 318 | -43.3 | -54.6 | 255 | 18 | |
| 2013-09-01T00:00 | 8908 | 317 | -43.4 | -55.4 | 255 | 18 | |
| 2013-09-01T00:00 | 8919 | 317 | -43.4 | -56.1 | 255 | 18 | |
| 2013-09-01T00:00 | 8931 | 316 | -43.4 | -56.4 | 255 | 18 | |
| 2013-09-01T00:00 | 8942 | 316 | -43.5 | -56.9 | 255 | 18 | |
| 2013-09-01T00:00 | 8952 | 315 | -43.6 | -57.4 | 254 | 18 | |
| 2013-09-01T00:00 | 8961 | 315 | -43.6 | -57.8 | 253 | 18 | |
| 2013-09-01T00:00 | 8970 | 315 | -43.6 | -57.8 | 253 | 18 | |
| 2013-09-01T00:00 | 8979 | 314 | -43.7 | -58.4 | 252 | 18 | |
| 2013-09-01T00:00 | 8987 | 314 | -43.8 | -58.5 | 251 | 18 | |
| 2013-09-01T00:00 | 8995 | 313 | -43.9 | -58.6 | 250 | 19 | |
| 2013-09-01T00:00 | 9004 | 313 | -43.9 | -58.6 | 249 | 19 | |
| 2013-09-01T00:00 | 9013 | 313 | -44.0 | -58.7 | 249 | 19 | |
| 2013-09-01T00:00 | 9021 | 312 | -44.0 | -58.7 | 248 | 19 | |
| 2013-09-01T00:00 | 9030 | 312 | -44.1 | -58.7 | 247 | 19 | |
| 2013-09-01T00:00 | 9039 | 311 | -44.1 | -58.7 | 247 | 19 | |
| 2013-09-01T00:00 | 9047 | 311 | -44.2 | -59.3 | 247 | 19 | |
| 2013-09-01T00:00 | 9056 | 311 | -44.2 | -59.3 | 246 | 19 | |
| 2013-09-01T00:00 | 9064 | 310 | -44.3 | -59.4 | 246 | 19 | |
| 2013-09-01T00:00 | 9072 | 310 | -44.3 | -59.9 | 246 | 19 | |
| 2013-09-01T00:00 | 9081 | 309 | -44.4 | -60.0 | 246 | 19 | |
| 2013-09-01T00:00 | 9089 | 309 | -44.4 | -60.0 | 246 | 19 | |
| 2013-09-01T00:00 | 9096 | 309 | -44.5 | -60.1 | 246 | 19 | |
| 2013-09-01T00:00 | 9104 | 308 | -44.5 | -60.1 | 246 | 19 | |
| 2013-09-01T00:00 | 9112 | 308 | -44.6 | -60.2 | 246 | 19 | |
| 2013-09-01T00:00 | 9120 | 308 | -44.6 | -60.2 | 246 | 19 | |
| 2013-09-01T00:00 | 9129 | 307 | -44.7 | -60.3 | 246 | 20 | |
| 2013-09-01T00:00 | 9136 | 307 | -44.7 | -60.3 | 246 | 20 | |
| 2013-09-01T00:00 | 9144 | 306 | -44.8 | -60.3 | 246 | 20 | |
| 2013-09-01T00:00 | 9152 | 306 | -44.9 | -60.4 | 246 | 20 | |
| 2013-09-01T00:00 | 9160 | 306 | -44.9 | -60.4 | 246 | 20 | |
| 2013-09-01T00:00 | 9168 | 305 | -45.0 | -60.5 | 246 | 20 | |
| 2013-09-01T00:00 | 9176 | 305 | -45.1 | -60.1 | 246 | 20 | |
| 2013-09-01T00:00 | 9183 | 305 | -45.1 | -60.1 | 246 | 20 | |
| 2013-09-01T00:00 | 9190 | 304 | -45.2 | -60.2 | 246 | 20 | |
| 2013-09-01T00:00 | 9199 | 304 | -45.2 | -60.2 | 246 | 20 | |
| 2013-09-01T00:00 | 9207 | 304 | -45.3 | -60.3 | 246 | 20 | |
| 2013-09-01T00:00 | 9214 | 303 | -45.4 | -60.4 | 247 | 20 | |
| 2013-09-01T00:00 | 9222 | 303 | -45.4 | -60.4 | 247 | 20 | |
| 2013-09-01T00:00 | 9230 | 303 | -45.5 | -60.0 | 247 | 20 | |
| 2013-09-01T00:00 | 9238 | 302 | -45.6 | -60.1 | 247 | 20 | |
| 2013-09-01T00:00 | 9245 | 302 | -45.6 | -60.1 | 247 | 20 | |
| 2013-09-01T00:00 | 9252 | 302 | -45.7 | -60.1 | 247 | 20 | |
| 2013-09-01T00:00 | 9260 | 301 | -45.7 | -60.1 | 246 | 20 | |
| 2013-09-01T00:00 | 9267 | 301 | -45.8 | -60.2 | 246 | 20 | |
| 2013-09-01T00:00 | 9276 | 300 | -45.9 | -60.3 | 246 | 20 | |
| 2013-09-01T00:00 | 9284 | 300 | -45.9 | -59.9 | 246 | 20 | |
| 2013-09-01T00:00 | 9291 | 300 | -46.0 | -60.0 | 246 | 20 | |
| 2013-09-01T00:00 | 9298 | 299 | -46.1 | -60.1 | 246 | 20 | |
| 2013-09-01T00:00 | 9306 | 299 | -46.1 | -60.1 | 246 | 20 | |
| 2013-09-01T00:00 | 9313 | 299 | -46.2 | -60.1 | 245 | 21 | |
| 2013-09-01T00:00 | 9320 | 298 | -46.2 | -60.1 | 245 | 21 | |
| 2013-09-01T00:00 | 9327 | 298 | -46.2 | -60.1 | 245 | 21 | |
| 2013-09-01T00:00 | 9334 | 298 | -46.3 | -59.8 | 245 | 21 | |
| 2013-09-01T00:00 | 9343 | 297 | -46.3 | -59.8 | 245 | 21 | |
| 2013-09-01T00:00 | 9351 | 297 | -46.3 | -59.8 | 245 | 21 | |
| 2013-09-01T00:00 | 9359 | 297 | -46.3 | -59.8 | 245 | 21 | |
| 2013-09-01T00:00 | 9366 | 296 | -46.4 | -59.9 | 245 | 21 | |
| 2013-09-01T00:00 | 9373 | 296 | -46.4 | -59.5 | 245 | 21 | |
| 2013-09-01T00:00 | 9381 | 296 | -46.5 | -59.6 | 245 | 21 | |
| 2013-09-01T00:00 | 9389 | 295 | -46.5 | -59.6 | 245 | 21 | |
| 2013-09-01T00:00 | 9396 | 295 | -46.6 | 245 | 21 | ||
| 2013-09-01T00:00 | 9403 | 295 | -46.6 | 245 | 21 | ||
| 2013-09-01T00:00 | 9410 | 294 | -46.7 | -59.8 | 245 | 21 | |
| 2013-09-01T00:00 | 9418 | 294 | -46.8 | -59.8 | 245 | 21 | |
| 2013-09-01T00:00 | 9426 | 294 | -46.8 | -59.8 | 245 | 21 | |
| 2013-09-01T00:00 | 9434 | 293 | -46.9 | -59.9 | 245 | 21 | |
| 2013-09-01T00:00 | 9442 | 293 | -46.9 | -59.9 | 245 | 21 | |
| 2013-09-01T00:00 | 9450 | 293 | -47.0 | -60.0 | 245 | 21 | |
| 2013-09-01T00:00 | 9458 | 292 | -47.1 | -60.5 | 245 | 21 | |
| 2013-09-01T00:00 | 9465 | 292 | -47.1 | -60.5 | 245 | 21 | |
| 2013-09-01T00:00 | 9472 | 292 | -47.2 | -60.6 | 245 | 21 | |
| 2013-09-01T00:00 | 9479 | 291 | -47.2 | -60.6 | 245 | 21 | |
| 2013-09-01T00:00 | 9486 | 291 | -47.3 | 245 | 21 | ||
| 2013-09-01T00:00 | 9493 | 291 | -47.3 | -60.3 | 245 | 21 | |
| 2013-09-01T00:00 | 9501 | 290 | -47.4 | -60.4 | 245 | 21 | |
| 2013-09-01T00:00 | 9509 | 290 | -47.5 | -60.5 | 245 | 21 | |
| 2013-09-01T00:00 | 9517 | 290 | -47.5 | -60.5 | 245 | 21 | |
| 2013-09-01T00:00 | 9525 | 289 | -47.6 | -60.6 | 246 | 21 | |
| 2013-09-01T00:00 | 9534 | 289 | -47.6 | -60.6 | 246 | 21 | |
| 2013-09-01T00:00 | 9542 | 289 | -47.7 | -60.6 | 246 | 21 | |
| 2013-09-01T00:00 | 9549 | 288 | -47.8 | -60.7 | 246 | 21 | |
| 2013-09-01T00:00 | 9556 | 288 | -47.8 | -60.7 | 246 | 21 | |
| 2013-09-01T00:00 | 9563 | 288 | -47.9 | -60.8 | 246 | 21 | |
| 2013-09-01T00:00 | 9570 | 287 | -47.9 | -60.4 | 246 | 21 | |
| 2013-09-01T00:00 | 9578 | 287 | -48.0 | -60.5 | 247 | 22 | |
| 2013-09-01T00:00 | 9586 | 287 | -48.1 | -60.6 | 247 | 22 | |
| 2013-09-01T00:00 | 9594 | 286 | -48.1 | -60.6 | 247 | 22 | |
| 2013-09-01T00:00 | 9602 | 286 | -48.2 | -60.7 | 247 | 22 | |
| 2013-09-01T00:00 | 9610 | 286 | -48.3 | -60.8 | 247 | 22 | |
| 2013-09-01T00:00 | 9619 | 285 | -48.4 | -60.9 | 247 | 22 | |
| 2013-09-01T00:00 | 9627 | 285 | -48.4 | -60.9 | 247 | 22 | |
| 2013-09-01T00:00 | 9635 | 285 | -48.5 | -61.0 | 247 | 22 | |
| 2013-09-01T00:00 | 9643 | 284 | -48.6 | -61.1 | 247 | 22 | |
| 2013-09-01T00:00 | 9651 | 284 | -48.7 | -60.8 | 247 | 22 | |
| 2013-09-01T00:00 | 9658 | 284 | -48.7 | -60.8 | 247 | 22 | |
| 2013-09-01T00:00 | 9665 | 283 | -48.8 | -60.9 | 247 | 22 | |
| 2013-09-01T00:00 | 9673 | 283 | -48.8 | -60.9 | 247 | 22 | |
| 2013-09-01T00:00 | 9680 | 283 | -48.9 | -61.0 | 247 | 22 | |
| 2013-09-01T00:00 | 9687 | 282 | -48.9 | -61.0 | 247 | 22 | |
| 2013-09-01T00:00 | 9695 | 282 | -49.0 | -61.1 | 247 | 22 | |
| 2013-09-01T00:00 | 9702 | 282 | -49.0 | -61.1 | 247 | 22 | |
| 2013-09-01T00:00 | 9709 | 281 | -49.1 | -61.2 | 247 | 22 | |
| 2013-09-01T00:00 | 9717 | 281 | -49.1 | -61.2 | 247 | 22 | |
| 2013-09-01T00:00 | 9725 | 281 | -49.2 | -61.3 | 247 | 22 | |
| 2013-09-01T00:00 | 9732 | 280 | -49.3 | -61.3 | 247 | 22 | |
| 2013-09-01T00:00 | 9740 | 280 | -49.3 | -61.3 | 247 | 22 | |
| 2013-09-01T00:00 | 9747 | 280 | -49.4 | -61.4 | 247 | 22 | |
| 2013-09-01T00:00 | 9754 | 279 | -49.4 | -61.4 | 247 | 22 | |
| 2013-09-01T00:00 | 9761 | 279 | -49.5 | -61.5 | 247 | 22 | |
| 2013-09-01T00:00 | 9769 | 279 | -49.6 | -61.6 | 247 | 22 | |
| 2013-09-01T00:00 | 9777 | 278 | -49.6 | -61.6 | 247 | 22 | |
| 2013-09-01T00:00 | 9786 | 278 | -49.7 | -61.7 | 247 | 22 | |
| 2013-09-01T00:00 | 9795 | 278 | -49.8 | -61.8 | 247 | 22 | |
| 2013-09-01T00:00 | 9804 | 277 | -49.9 | -61.9 | 246 | 22 | |
| 2013-09-01T00:00 | 9814 | 277 | -49.9 | -61.5 | 246 | 22 | |
| 2013-09-01T00:00 | 9822 | 277 | -50.0 | -61.6 | 246 | 22 | |
| 2013-09-01T00:00 | 9830 | 276 | -50.1 | -61.7 | 246 | 22 | |
| 2013-09-01T00:00 | 9840 | 276 | -50.1 | -61.7 | 246 | 22 | |
| 2013-09-01T00:00 | 9849 | 275 | -50.2 | -61.8 | 245 | 22 | |
| 2013-09-01T00:00 | 9857 | 275 | -50.3 | -61.6 | 245 | 22 | |
| 2013-09-01T00:00 | 9865 | 275 | -50.4 | -61.7 | 245 | 22 | |
| 2013-09-01T00:00 | 9873 | 274 | -50.4 | -61.4 | 244 | 22 | |
| 2013-09-01T00:00 | 9882 | 274 | -50.5 | -61.4 | 244 | 22 | |
| 2013-09-01T00:00 | 9892 | 274 | -50.5 | -61.2 | 244 | 22 | |
| 2013-09-01T00:00 | 9903 | 273 | -50.6 | -61.2 | 244 | 22 | |
| 2013-09-01T00:00 | 9914 | 273 | -50.7 | -61.0 | 243 | 22 | |
| 2013-09-01T00:00 | 9923 | 272 | -50.8 | -60.9 | 243 | 22 | |
| 2013-09-01T00:00 | 9932 | 272 | -50.9 | -60.7 | 243 | 22 | |
| 2013-09-01T00:00 | 9941 | 272 | -50.9 | -60.4 | 243 | 22 | |
| 2013-09-01T00:00 | 9950 | 271 | -51.0 | -60.3 | 243 | 22 | |
| 2013-09-01T00:00 | 9958 | 271 | -51.1 | -60.4 | 243 | 22 | |
| 2013-09-01T00:00 | 9967 | 270 | -51.2 | -60.5 | 243 | 22 | |
| 2013-09-01T00:00 | 9975 | 270 | -51.2 | 243 | 22 | ||
| 2013-09-01T00:00 | 9983 | 270 | -51.3 | -60.3 | 243 | 23 | |
| 2013-09-01T00:00 | 9990 | 270 | -51.3 | -60.1 | 244 | 23 | |
| 2013-09-01T00:00 | 9998 | 269 | -51.4 | -60.2 | 244 | 23 | |
| 2013-09-01T00:00 | 10007 | 269 | -51.4 | -59.9 | 244 | 23 | |
| 2013-09-01T00:00 | 10015 | 269 | -51.5 | -60.0 | 244 | 23 | |
| 2013-09-01T00:00 | 10023 | 268 | -51.6 | -60.1 | 244 | 22 | |
| 2013-09-01T00:00 | 10031 | 268 | -51.6 | -59.9 | 244 | 22 | |
| 2013-09-01T00:00 | 10039 | 268 | -51.7 | -60.0 | 244 | 22 | |
| 2013-09-01T00:00 | 10046 | 267 | -51.7 | -60.0 | 244 | 22 | |
| 2013-09-01T00:00 | 10055 | 267 | -51.8 | -60.1 | 244 | 22 | |
| 2013-09-01T00:00 | 10064 | 266 | -51.9 | -60.2 | 244 | 22 | |
| 2013-09-01T00:00 | 10073 | 266 | -51.9 | -60.2 | 244 | 22 | |
| 2013-09-01T00:00 | 10080 | 266 | -52.0 | -60.3 | 244 | 22 | |
| 2013-09-01T00:00 | 10088 | 265 | -52.0 | -60.3 | 244 | 22 | |
| 2013-09-01T00:00 | 10096 | 265 | -52.1 | -60.4 | 244 | 22 | |
| 2013-09-01T00:00 | 10104 | 265 | -52.1 | -60.6 | 244 | 22 | |
| 2013-09-01T00:00 | 10112 | 264 | -52.2 | -60.7 | 244 | 22 | |
| 2013-09-01T00:00 | 10122 | 264 | -52.2 | -60.9 | 244 | 22 | |
| 2013-09-01T00:00 | 10130 | 264 | -52.3 | -61.0 | 243 | 22 | |
| 2013-09-01T00:00 | 10138 | 263 | -52.3 | -61.0 | 243 | 22 | |
| 2013-09-01T00:00 | 10147 | 263 | -52.3 | -61.2 | 243 | 22 | |
| 2013-09-01T00:00 | 10154 | 263 | -52.3 | -61.2 | 243 | 22 | |
| 2013-09-01T00:00 | 10162 | 262 | -52.4 | -61.3 | 242 | 22 | |
| 2013-09-01T00:00 | 10170 | 262 | -52.4 | -61.3 | 242 | 23 | |
| 2013-09-01T00:00 | 10177 | 262 | -52.4 | -61.6 | 242 | 23 | |
| 2013-09-01T00:00 | 10186 | 261 | -52.5 | -61.6 | 242 | 23 | |
| 2013-09-01T00:00 | 10193 | 261 | -52.5 | -61.6 | 242 | 23 | |
| 2013-09-01T00:00 | 10201 | 261 | -52.5 | -61.6 | 242 | 23 | |
| 2013-09-01T00:00 | 10209 | 261 | -52.5 | -61.6 | 241 | 23 | |
| 2013-09-01T00:00 | 10217 | 260 | -52.6 | -61.7 | 241 | 23 | |
| 2013-09-01T00:00 | 10224 | 260 | -52.6 | -62.0 | 241 | 23 | |
| 2013-09-01T00:00 | 10232 | 260 | -52.7 | -62.1 | 241 | 23 | |
| 2013-09-01T00:00 | 10240 | 259 | -52.7 | -62.1 | 241 | 23 | |
| 2013-09-01T00:00 | 10249 | 259 | -52.8 | -62.2 | 241 | 23 | |
| 2013-09-01T00:00 | 10257 | 259 | -52.8 | -62.2 | 241 | 23 | |
| 2013-09-01T00:00 | 10266 | 258 | -52.9 | -62.3 | 241 | 23 | |
| 2013-09-01T00:00 | 10273 | 258 | -52.9 | -62.3 | 241 | 23 | |
| 2013-09-01T00:00 | 10282 | 258 | -53.0 | -62.6 | 242 | 23 | |
| 2013-09-01T00:00 | 10291 | 257 | -53.1 | -62.7 | 242 | 23 | |
| 2013-09-01T00:00 | 10299 | 257 | -53.2 | -62.8 | 242 | 23 | |
| 2013-09-01T00:00 | 10307 | 257 | -53.2 | -62.8 | 242 | 23 | |
| 2013-09-01T00:00 | 10315 | 256 | -53.3 | -62.9 | 243 | 23 | |
| 2013-09-01T00:00 | 10323 | 256 | -53.4 | -63.0 | 243 | 23 | |
| 2013-09-01T00:00 | 10331 | 256 | -53.4 | -63.0 | 243 | 23 | |
| 2013-09-01T00:00 | 10338 | 255 | -53.5 | -63.1 | 244 | 22 | |
| 2013-09-01T00:00 | 10346 | 255 | -53.5 | -63.1 | 244 | 22 | |
| 2013-09-01T00:00 | 10354 | 255 | -53.6 | -63.2 | 244 | 22 | |
| 2013-09-01T00:00 | 10362 | 254 | -53.6 | -63.2 | 244 | 22 | |
| 2013-09-01T00:00 | 10371 | 254 | -53.6 | -63.2 | 245 | 22 | |
| 2013-09-01T00:00 | 10378 | 254 | -53.7 | -63.2 | 245 | 22 | |
| 2013-09-01T00:00 | 10386 | 254 | -53.7 | -63.2 | 245 | 22 | |
| 2013-09-01T00:00 | 10393 | 253 | -53.7 | -63.2 | 245 | 22 | |
| 2013-09-01T00:00 | 10401 | 253 | -53.8 | -63.3 | 245 | 22 | |
| 2013-09-01T00:00 | 10408 | 253 | -53.8 | -63.3 | 245 | 22 | |
| 2013-09-01T00:00 | 10416 | 252 | -53.9 | -63.4 | 245 | 22 | |
| 2013-09-01T00:00 | 10424 | 252 | -53.9 | -63.4 | 245 | 22 | |
| 2013-09-01T00:00 | 10434 | 252 | -54.0 | -63.5 | 245 | 22 | |
| 2013-09-01T00:00 | 10443 | 251 | -54.1 | -63.6 | 245 | 22 | |
| 2013-09-01T00:00 | 10451 | 251 | -54.1 | -63.6 | 245 | 22 | |
| 2013-09-01T00:00 | 10460 | 251 | -54.2 | -63.7 | 245 | 22 | |
| 2013-09-01T00:00 | 10470 | 250 | -54.3 | -63.8 | 245 | 22 | |
| 2013-09-01T00:00 | 10480 | 250 | -54.3 | -63.8 | 245 | 22 | |
| 2013-09-01T00:00 | 10490 | 249 | -54.3 | -63.5 | 245 | 22 | |
| 2013-09-01T00:00 | 10500 | 249 | -54.4 | -63.6 | 245 | 22 | |
| 2013-09-01T00:00 | 10511 | 249 | -54.4 | -63.6 | 245 | 21 | |
| 2013-09-01T00:00 | 10520 | 248 | -54.5 | -63.7 | 245 | 21 | |
| 2013-09-01T00:00 | 10530 | 248 | -54.5 | -63.7 | 245 | 21 | |
| 2013-09-01T00:00 | 10538 | 248 | -54.6 | -63.8 | 245 | 21 | |
| 2013-09-01T00:00 | 10547 | 247 | -54.6 | -63.8 | 245 | 21 | |
| 2013-09-01T00:00 | 10555 | 247 | -54.7 | -63.7 | 245 | 21 | |
| 2013-09-01T00:00 | 10563 | 247 | -54.7 | -63.7 | 245 | 21 | |
| 2013-09-01T00:00 | 10570 | 246 | -54.7 | -63.7 | 244 | 21 | |
| 2013-09-01T00:00 | 10579 | 246 | -54.8 | -63.8 | 244 | 21 | |
| 2013-09-01T00:00 | 10589 | 246 | -54.8 | -63.8 | 244 | 21 | |
| 2013-09-01T00:00 | 10598 | 245 | -54.9 | -63.6 | 244 | 21 | |
| 2013-09-01T00:00 | 10607 | 245 | -55.0 | -63.7 | 244 | 22 | |
| 2013-09-01T00:00 | 10616 | 245 | -55.0 | -63.7 | 244 | 22 | |
| 2013-09-01T00:00 | 10625 | 244 | -55.0 | -63.7 | 244 | 22 | |
| 2013-09-01T00:00 | 10634 | 244 | -55.1 | -63.8 | 244 | 22 | |
| 2013-09-01T00:00 | 10644 | 243 | -55.1 | -63.6 | 244 | 22 | |
| 2013-09-01T00:00 | 10654 | 243 | -55.2 | -63.7 | 244 | 22 | |
| 2013-09-01T00:00 | 10664 | 243 | -55.2 | -63.7 | 244 | 22 | |
| 2013-09-01T00:00 | 10674 | 242 | -55.3 | -63.8 | 244 | 22 | |
| 2013-09-01T00:00 | 10685 | 242 | -55.3 | -63.5 | 244 | 22 | |
| 2013-09-01T00:00 | 10696 | 241 | -55.4 | -63.6 | 244 | 22 | |
| 2013-09-01T00:00 | 10707 | 241 | -55.4 | -63.6 | 244 | 21 | |
| 2013-09-01T00:00 | 10717 | 241 | -55.5 | -63.5 | 245 | 21 | |
| 2013-09-01T00:00 | 10727 | 240 | -55.5 | -63.5 | 245 | 21 | |
| 2013-09-01T00:00 | 10736 | 240 | -55.6 | -63.6 | 245 | 21 | |
| 2013-09-01T00:00 | 10747 | 240 | -55.6 | -63.6 | 245 | 21 | |
| 2013-09-01T00:00 | 10756 | 239 | -55.7 | -63.5 | 245 | 21 | |
| 2013-09-01T00:00 | 10764 | 239 | -55.8 | -63.6 | 245 | 21 | |
| 2013-09-01T00:00 | 10772 | 239 | -55.8 | -63.6 | 245 | 21 | |
| 2013-09-01T00:00 | 10780 | 238 | -55.9 | -63.7 | 245 | 21 | |
| 2013-09-01T00:00 | 10789 | 238 | -55.9 | -63.5 | 245 | 21 | |
| 2013-09-01T00:00 | 10797 | 238 | -56.0 | -63.6 | 246 | 21 | |
| 2013-09-01T00:00 | 10805 | 237 | -56.1 | -63.7 | 246 | 21 | |
| 2013-09-01T00:00 | 10814 | 237 | -56.1 | -63.7 | 246 | 21 | |
| 2013-09-01T00:00 | 10824 | 237 | -56.1 | -63.7 | 246 | 21 | |
| 2013-09-01T00:00 | 10833 | 236 | -56.1 | -63.5 | 246 | 21 | |
| 2013-09-01T00:00 | 10842 | 236 | -56.1 | -63.5 | 246 | 21 | |
| 2013-09-01T00:00 | 10851 | 236 | -56.1 | -63.5 | 246 | 21 | |
| 2013-09-01T00:00 | 10861 | 235 | -56.0 | -63.4 | 247 | 21 | |
| 2013-09-01T00:00 | 10870 | 235 | -55.9 | -63.3 | 247 | 22 | |
| 2013-09-01T00:00 | 10879 | 235 | -55.8 | -63.2 | 246 | 22 | |
| 2013-09-01T00:00 | 10888 | 234 | -55.8 | -63.2 | 246 | 22 | |
| 2013-09-01T00:00 | 10896 | 234 | -55.8 | -63.2 | 246 | 22 | |
| 2013-09-01T00:00 | 10904 | 234 | -55.7 | -63.1 | 246 | 22 | |
| 2013-09-01T00:00 | 10913 | 233 | -55.6 | -63.2 | 246 | 22 | |
| 2013-09-01T00:00 | 10922 | 233 | -55.5 | -63.1 | 245 | 22 | |
| 2013-09-01T00:00 | 10931 | 233 | -55.6 | -63.4 | 245 | 22 | |
| 2013-09-01T00:00 | 10940 | 232 | -55.6 | -63.4 | 244 | 21 | |
| 2013-09-01T00:00 | 10950 | 232 | -55.6 | -63.6 | 244 | 21 | |
| 2013-09-01T00:00 | 10960 | 232 | -55.6 | -63.6 | 243 | 21 | |
| 2013-09-01T00:00 | 10969 | 231 | -55.6 | -63.8 | 243 | 21 | |
| 2013-09-01T00:00 | 10977 | 231 | -55.6 | -63.8 | 243 | 22 | |
| 2013-09-01T00:00 | 10986 | 231 | -55.6 | -63.8 | 243 | 22 | |
| 2013-09-01T00:00 | 10994 | 230 | -55.7 | -64.1 | 243 | 22 | |
| 2013-09-01T00:00 | 11003 | 230 | -55.6 | -64.0 | 243 | 22 | |
| 2013-09-01T00:00 | 11012 | 230 | -55.6 | -64.3 | 243 | 22 | |
| 2013-09-01T00:00 | 11021 | 229 | -55.5 | -64.2 | 244 | 22 | |
| 2013-09-01T00:00 | 11030 | 229 | -55.3 | -64.2 | 244 | 22 | |
| 2013-09-01T00:00 | 11039 | 229 | -55.1 | -64.3 | 245 | 22 | |
| 2013-09-01T00:00 | 11048 | 229 | -55.0 | -64.4 | 246 | 22 | |
| 2013-09-01T00:00 | 11056 | 228 | -54.9 | -64.3 | 246 | 22 | |
| 2013-09-01T00:00 | 11065 | 228 | -54.9 | -64.6 | 247 | 22 | |
| 2013-09-01T00:00 | 11074 | 228 | -54.9 | -64.9 | 248 | 22 | |
| 2013-09-01T00:00 | 11082 | 227 | -54.9 | -65.1 | 248 | 22 | |
| 2013-09-01T00:00 | 11091 | 227 | -54.9 | -65.4 | 249 | 22 | |
| 2013-09-01T00:00 | 11100 | 227 | -54.9 | -65.7 | 250 | 22 | |
| 2013-09-01T00:00 | 11109 | 226 | -55.0 | -65.8 | 250 | 22 | |
| 2013-09-01T00:00 | 11117 | 226 | -55.0 | -66.1 | 250 | 22 | |
| 2013-09-01T00:00 | 11126 | 226 | -55.0 | -66.5 | 251 | 22 | |
| 2013-09-01T00:00 | 11134 | 225 | -54.9 | -66.4 | 251 | 22 | |
| 2013-09-01T00:00 | 11142 | 225 | -54.9 | -66.7 | 251 | 22 | |
| 2013-09-01T00:00 | 11150 | 225 | -54.8 | -67.0 | 251 | 22 | |
| 2013-09-01T00:00 | 11158 | 225 | -54.7 | -66.9 | 251 | 22 | |
| 2013-09-01T00:00 | 11166 | 224 | -54.7 | -67.3 | 251 | 22 | |
| 2013-09-01T00:00 | 11174 | 224 | -54.7 | -67.3 | 251 | 22 | |
| 2013-09-01T00:00 | 11182 | 224 | -54.6 | -67.6 | 250 | 22 | |
| 2013-09-01T00:00 | 11191 | 223 | -54.5 | -67.5 | 250 | 22 | |
| 2013-09-01T00:00 | 11199 | 223 | -54.5 | -67.9 | 250 | 22 | |
| 2013-09-01T00:00 | 11208 | 223 | -54.4 | -67.8 | 250 | 23 | |
| 2013-09-01T00:00 | 11216 | 223 | -54.4 | -68.2 | 250 | 23 | |
| 2013-09-01T00:00 | 11224 | 222 | -54.3 | -68.2 | 250 | 22 | |
| 2013-09-01T00:00 | 11232 | 222 | -54.3 | -68.6 | 250 | 22 | |
| 2013-09-01T00:00 | 11239 | 222 | -54.2 | -68.5 | 250 | 22 | |
| 2013-09-01T00:00 | 11247 | 222 | -54.2 | -68.5 | 250 | 22 | |
| 2013-09-01T00:00 | 11255 | 221 | -54.2 | -69.0 | 250 | 22 | |
| 2013-09-01T00:00 | 11264 | 221 | -54.2 | -69.0 | 250 | 22 | |
| 2013-09-01T00:00 | 11272 | 221 | -54.1 | -69.0 | 250 | 22 | |
| 2013-09-01T00:00 | 11281 | 220 | -54.1 | -69.5 | 250 | 22 | |
| 2013-09-01T00:00 | 11289 | 220 | -54.1 | -69.5 | 251 | 22 | |
| 2013-09-01T00:00 | 11297 | 220 | -54.2 | -69.6 | 251 | 22 | |
| 2013-09-01T00:00 | 11305 | 220 | -54.1 | -70.1 | 251 | 22 | |
| 2013-09-01T00:00 | 11313 | 219 | -54.1 | -70.1 | 251 | 22 | |
| 2013-09-01T00:00 | 11321 | 219 | -54.1 | -70.1 | 251 | 22 | |
| 2013-09-01T00:00 | 11329 | 219 | -54.0 | -70.0 | 251 | 22 | |
| 2013-09-01T00:00 | 11338 | 218 | -53.9 | -69.9 | 251 | 22 | |
| 2013-09-01T00:00 | 11346 | 218 | -53.9 | -70.6 | 251 | 22 | |
| 2013-09-01T00:00 | 11354 | 218 | -53.9 | -70.6 | 252 | 22 | |
| 2013-09-01T00:00 | 11362 | 218 | -53.7 | -70.4 | 252 | 22 | |
| 2013-09-01T00:00 | 11370 | 217 | -53.5 | -70.2 | 252 | 22 | |
| 2013-09-01T00:00 | 11378 | 217 | -53.6 | -70.3 | 252 | 21 | |
| 2013-09-01T00:00 | 11386 | 217 | -53.6 | -71.0 | 252 | 21 | |
| 2013-09-01T00:00 | 11394 | 216 | -53.7 | -71.1 | 252 | 21 | |
| 2013-09-01T00:00 | 11402 | 216 | -53.6 | -71.0 | 253 | 21 | |
| 2013-09-01T00:00 | 11411 | 216 | -53.5 | -70.9 | 253 | 21 | |
| 2013-09-01T00:00 | 11419 | 216 | -53.5 | -70.9 | 253 | 21 | |
| 2013-09-01T00:00 | 11427 | 215 | -53.5 | -71.7 | 253 | 21 | |
| 2013-09-01T00:00 | 11435 | 215 | -53.5 | -71.7 | 253 | 21 | |
| 2013-09-01T00:00 | 11443 | 215 | -53.4 | -71.6 | 253 | 21 | |
| 2013-09-01T00:00 | 11451 | 215 | -53.4 | -71.6 | 254 | 20 | |
| 2013-09-01T00:00 | 11459 | 214 | -53.4 | -71.6 | 254 | 20 | |
| 2013-09-01T00:00 | 11467 | 214 | -53.3 | -72.4 | 254 | 20 | |
| 2013-09-01T00:00 | 11476 | 214 | -53.3 | -72.4 | 254 | 20 | |
| 2013-09-01T00:00 | 11484 | 213 | -53.2 | -72.3 | 253 | 20 | |
| 2013-09-01T00:00 | 11492 | 213 | -53.2 | -72.3 | 253 | 20 | |
| 2013-09-01T00:00 | 11501 | 213 | -53.1 | -72.2 | 253 | 20 | |
| 2013-09-01T00:00 | 11509 | 213 | -53.1 | -72.2 | 253 | 20 | |
| 2013-09-01T00:00 | 11517 | 212 | -53.0 | -72.2 | 253 | 19 | |
| 2013-09-01T00:00 | 11524 | 212 | -52.9 | -73.1 | 253 | 19 | |
| 2013-09-01T00:00 | 11532 | 212 | -52.9 | -73.1 | 253 | 19 | |
| 2013-09-01T00:00 | 11540 | 212 | -52.9 | -73.1 | 253 | 19 | |
| 2013-09-01T00:00 | 11548 | 211 | -52.9 | -73.1 | 253 | 19 | |
| 2013-09-01T00:00 | 11556 | 211 | -52.9 | -73.1 | 252 | 19 | |
| 2013-09-01T00:00 | 11565 | 211 | -52.9 | -73.1 | 252 | 19 | |
| 2013-09-01T00:00 | 11573 | 211 | -52.9 | -73.1 | 252 | 19 | |
| 2013-09-01T00:00 | 11581 | 210 | -52.8 | -73.0 | 252 | 19 | |
| 2013-09-01T00:00 | 11588 | 210 | -52.7 | -72.9 | 252 | 19 | |
| 2013-09-01T00:00 | 11596 | 210 | -52.7 | -72.9 | 252 | 19 | |
| 2013-09-01T00:00 | 11604 | 210 | -52.7 | -74.1 | 252 | 19 | |
| 2013-09-01T00:00 | 11612 | 209 | -52.6 | -74.0 | 252 | 19 | |
| 2013-09-01T00:00 | 11620 | 209 | -52.4 | -73.9 | 252 | 20 | |
| 2013-09-01T00:00 | 11628 | 209 | -52.3 | -73.8 | 252 | 20 | |
| 2013-09-01T00:00 | 11637 | 208 | -52.2 | -73.7 | 252 | 20 | |
| 2013-09-01T00:00 | 11645 | 208 | -52.3 | -73.8 | 252 | 20 | |
| 2013-09-01T00:00 | 11653 | 208 | -52.3 | -73.8 | 253 | 20 | |
| 2013-09-01T00:00 | 11660 | 208 | -52.2 | -73.7 | 253 | 20 | |
| 2013-09-01T00:00 | 11667 | 208 | -52.2 | -73.7 | 253 | 20 | |
| 2013-09-01T00:00 | 11675 | 207 | -52.1 | -75.1 | 253 | 20 | |
| 2013-09-01T00:00 | 11683 | 207 | -52.1 | -75.1 | 254 | 20 | |
| 2013-09-01T00:00 | 11691 | 207 | -52.0 | -75.0 | 254 | 20 | |
| 2013-09-01T00:00 | 11700 | 206 | -52.0 | -75.0 | 254 | 20 | |
| 2013-09-01T00:00 | 11708 | 206 | -51.9 | -74.9 | 254 | 20 | |
| 2013-09-01T00:00 | 11717 | 206 | -51.9 | -74.9 | 255 | 20 | |
| 2013-09-01T00:00 | 11725 | 206 | -51.9 | -74.9 | 255 | 21 | |
| 2013-09-01T00:00 | 11733 | 205 | -51.8 | -74.8 | 255 | 21 | |
| 2013-09-01T00:00 | 11740 | 205 | -51.8 | -74.8 | 255 | 21 | |
| 2013-09-01T00:00 | 11749 | 205 | -51.6 | -74.6 | 255 | 21 | |
| 2013-09-01T00:00 | 11758 | 205 | -51.5 | -76.4 | 255 | 21 | |
| 2013-09-01T00:00 | 11766 | 204 | -51.4 | -76.3 | 255 | 21 | |
| 2013-09-01T00:00 | 11774 | 204 | -51.4 | -76.3 | 255 | 21 | |
| 2013-09-01T00:00 | 11782 | 204 | -51.4 | -76.3 | 256 | 21 | |
| 2013-09-01T00:00 | 11789 | 204 | -51.5 | -76.4 | 256 | 21 | |
| 2013-09-01T00:00 | 11796 | 203 | -51.5 | -76.4 | 256 | 21 | |
| 2013-09-01T00:00 | 11804 | 203 | -51.6 | -76.5 | 256 | 21 | |
| 2013-09-01T00:00 | 11812 | 203 | -51.7 | -76.6 | 256 | 21 | |
| 2013-09-01T00:00 | 11820 | 203 | -51.7 | -76.6 | 256 | 21 | |
| 2013-09-01T00:00 | 11828 | 202 | -51.6 | -76.5 | 256 | 21 | |
| 2013-09-01T00:00 | 11836 | 202 | -51.7 | -76.6 | 257 | 21 | |
| 2013-09-01T00:00 | 11845 | 202 | -51.7 | -76.6 | 257 | 21 | |
| 2013-09-01T00:00 | 11853 | 202 | -51.7 | -76.6 | 257 | 21 | |
| 2013-09-01T00:00 | 11861 | 201 | -51.8 | -79.2 | 258 | 20 | |
| 2013-09-01T00:00 | 11870 | 201 | -51.7 | -79.1 | 258 | 20 | |
| 2013-09-01T00:00 | 11878 | 201 | -51.6 | -79.0 | 258 | 20 | |
| 2013-09-01T00:00 | 11886 | 201 | -51.6 | -79.0 | 259 | 20 | |
| 2013-09-01T00:00 | 11893 | 200 | -51.5 | -78.9 | 259 | 20 | |
| 2013-09-01T00:00 | 11901 | 200 | -51.5 | -78.9 | 259 | 20 | |
| 2013-09-01T00:00 | 11909 | 200 | -51.4 | -78.8 | 260 | 20 | |
| 2013-09-01T00:00 | 11917 | 200 | -51.4 | -78.8 | 260 | 20 | |
| 2013-09-01T00:00 | 11924 | 199 | -51.4 | -78.8 | 260 | 19 | |
| 2013-09-01T00:00 | 11932 | 199 | -51.4 | -78.8 | 260 | 19 | |
| 2013-09-01T00:00 | 11939 | 199 | -51.4 | -78.8 | 260 | 19 | |
| 2013-09-01T00:00 | 11946 | 199 | -51.3 | -78.8 | 261 | 19 | |
| 2013-09-01T00:00 | 11954 | 199 | -51.3 | -78.8 | 261 | 19 | |
| 2013-09-01T00:00 | 11962 | 198 | -51.3 | -78.8 | 260 | 19 | |
| 2013-09-01T00:00 | 11970 | 198 | -51.3 | -78.8 | 260 | 19 | |
| 2013-09-01T00:00 | 11978 | 198 | -51.3 | -78.8 | 260 | 19 | |
| 2013-09-01T00:00 | 11984 | 198 | -51.3 | -78.8 | 260 | 19 | |
| 2013-09-01T00:00 | 11991 | 197 | -51.3 | -78.8 | 259 | 19 | |
| 2013-09-01T00:00 | 11999 | 197 | -51.3 | -78.8 | 259 | 19 | |
| 2013-09-01T00:00 | 12006 | 197 | -51.3 | -78.8 | 259 | 19 | |
| 2013-09-01T00:00 | 12014 | 197 | -51.2 | -78.7 | 258 | 19 | |
| 2013-09-01T00:00 | 12022 | 196 | -51.1 | -78.6 | 258 | 19 | |
| 2013-09-01T00:00 | 12030 | 196 | -50.9 | -78.5 | 257 | 19 | |
| 2013-09-01T00:00 | 12038 | 196 | -50.8 | -78.4 | 257 | 19 | |
| 2013-09-01T00:00 | 12047 | 196 | -50.7 | -78.3 | 256 | 19 | |
| 2013-09-01T00:00 | 12055 | 195 | -50.6 | -78.2 | 256 | 20 | |
| 2013-09-01T00:00 | 12062 | 195 | -50.6 | -78.2 | 255 | 20 | |
| 2013-09-01T00:00 | 12069 | 195 | -50.6 | -78.2 | 255 | 20 | |
| 2013-09-01T00:00 | 12077 | 195 | -50.6 | -78.2 | 254 | 20 | |
| 2013-09-01T00:00 | 12084 | 195 | -50.5 | -78.2 | 254 | 20 | |
| 2013-09-01T00:00 | 12091 | 194 | -50.4 | -78.1 | 253 | 20 | |
| 2013-09-01T00:00 | 12099 | 194 | -50.3 | -78.0 | 253 | 20 | |
| 2013-09-01T00:00 | 12107 | 194 | -50.2 | -77.9 | 253 | 20 | |
| 2013-09-01T00:00 | 12115 | 194 | -50.1 | -77.8 | 253 | 20 | |
| 2013-09-01T00:00 | 12123 | 193 | -50.0 | -77.8 | 253 | 20 | |
| 2013-09-01T00:00 | 12131 | 193 | -50.0 | -77.8 | 253 | 20 | |
| 2013-09-01T00:00 | 12139 | 193 | -49.9 | -81.9 | 253 | 20 | |
| 2013-09-01T00:00 | 12147 | 193 | -49.8 | -81.8 | 253 | 20 | |
| 2013-09-01T00:00 | 12154 | 193 | -49.6 | -81.7 | 253 | 20 | |
| 2013-09-01T00:00 | 12161 | 192 | -49.6 | -81.7 | 253 | 20 | |
| 2013-09-01T00:00 | 12169 | 192 | -49.5 | -81.6 | 253 | 20 | |
| 2013-09-01T00:00 | 12178 | 192 | -49.5 | -81.6 | 253 | 20 | |
| 2013-09-01T00:00 | 12186 | 192 | -49.4 | -81.6 | 253 | 20 | |
| 2013-09-01T00:00 | 12193 | 191 | -49.4 | -81.6 | 253 | 20 | |
| 2013-09-01T00:00 | 12201 | 191 | -49.4 | -81.6 | 253 | 20 | |
| 2013-09-01T00:00 | 12210 | 191 | -49.4 | -81.6 | 252 | 20 | |
| 2013-09-01T00:00 | 12218 | 191 | -49.4 | -81.6 | 252 | 20 | |
| 2013-09-01T00:00 | 12226 | 190 | -49.4 | -81.6 | 252 | 20 | |
| 2013-09-01T00:00 | 12234 | 190 | -49.3 | -81.5 | 252 | 20 | |
| 2013-09-01T00:00 | 12242 | 190 | -49.2 | -81.4 | 252 | 20 | |
| 2013-09-01T00:00 | 12249 | 190 | -49.2 | -81.4 | 252 | 20 | |
| 2013-09-01T00:00 | 12257 | 190 | -49.2 | -81.4 | 251 | 20 | |
| 2013-09-01T00:00 | 12266 | 189 | -49.2 | -81.4 | 251 | 20 | |
| 2013-09-01T00:00 | 12274 | 189 | -49.2 | -81.4 | 251 | 20 | |
| 2013-09-01T00:00 | 12282 | 189 | -49.1 | -81.3 | 251 | 20 | |
| 2013-09-01T00:00 | 12291 | 189 | -49.1 | -81.3 | 251 | 20 | |
| 2013-09-01T00:00 | 12299 | 188 | -49.1 | -81.3 | 251 | 20 | |
| 2013-09-01T00:00 | 12306 | 188 | -49.2 | -81.4 | 251 | 20 | |
| 2013-09-01T00:00 | 12313 | 188 | -49.2 | -81.4 | 251 | 20 | |
| 2013-09-01T00:00 | 12321 | 188 | -49.2 | -81.4 | 251 | 20 | |
| 2013-09-01T00:00 | 12330 | 187 | -49.2 | -81.4 | 251 | 20 | |
| 2013-09-01T00:00 | 12338 | 187 | -49.2 | -81.4 | 251 | 20 | |
| 2013-09-01T00:00 | 12346 | 187 | -49.3 | -81.5 | 251 | 20 | |
| 2013-09-01T00:00 | 12355 | 187 | -49.3 | -81.5 | 251 | 20 | |
| 2013-09-01T00:00 | 12363 | 186 | -49.4 | -81.6 | 251 | 20 | |
| 2013-09-01T00:00 | 12372 | 186 | -49.4 | -81.6 | 251 | 20 | |
| 2013-09-01T00:00 | 12381 | 186 | -49.5 | -81.6 | 251 | 20 | |
| 2013-09-01T00:00 | 12389 | 186 | -49.4 | -81.6 | 251 | 20 | |
| 2013-09-01T00:00 | 12398 | 186 | -49.3 | -81.5 | 251 | 20 | |
| 2013-09-01T00:00 | 12405 | 185 | -49.3 | -81.5 | 251 | 20 | |
| 2013-09-01T00:00 | 12414 | 185 | -49.2 | -81.4 | 251 | 20 | |
| 2013-09-01T00:00 | 12422 | 185 | -49.2 | -81.4 | 251 | 20 | |
| 2013-09-01T00:00 | 12430 | 185 | -49.2 | -81.4 | 252 | 20 | |
| 2013-09-01T00:00 | 12438 | 184 | -49.2 | -81.4 | 252 | 20 | |
| 2013-09-01T00:00 | 12445 | 184 | -49.1 | -81.3 | 252 | 20 | |
| 2013-09-01T00:00 | 12454 | 184 | -49.0 | -81.3 | 252 | 20 | |
| 2013-09-01T00:00 | 12462 | 184 | -49.0 | -81.3 | 252 | 20 | |
| 2013-09-01T00:00 | 12469 | 183 | -48.9 | -81.2 | 252 | 20 | |
| 2013-09-01T00:00 | 12477 | 183 | -48.9 | -81.2 | 253 | 20 | |
| 2013-09-01T00:00 | 12484 | 183 | -48.9 | -81.2 | 253 | 20 | |
| 2013-09-01T00:00 | 12492 | 183 | -49.0 | -81.3 | 253 | 20 | |
| 2013-09-01T00:00 | 12500 | 183 | -49.0 | -81.3 | 253 | 20 | |
| 2013-09-01T00:00 | 12509 | 182 | -49.0 | -81.3 | 253 | 20 | |
| 2013-09-01T00:00 | 12518 | 182 | -49.1 | -81.3 | 253 | 20 | |
| 2013-09-01T00:00 | 12526 | 182 | -49.1 | -81.3 | 253 | 20 | |
| 2013-09-01T00:00 | 12534 | 182 | -49.2 | -81.4 | 254 | 20 | |
| 2013-09-01T00:00 | 12542 | 181 | -49.2 | -81.4 | 254 | 20 | |
| 2013-09-01T00:00 | 12550 | 181 | -49.2 | -81.4 | 254 | 20 | |
| 2013-09-01T00:00 | 12559 | 181 | -49.2 | -81.4 | 255 | 20 | |
| 2013-09-01T00:00 | 12567 | 181 | -49.2 | -81.4 | 255 | 19 | |
| 2013-09-01T00:00 | 12575 | 181 | -49.2 | -81.4 | 255 | 19 | |
| 2013-09-01T00:00 | 12582 | 180 | -49.1 | -81.3 | 256 | 19 | |
| 2013-09-01T00:00 | 12589 | 180 | -49.0 | -81.3 | 256 | 19 | |
| 2013-09-01T00:00 | 12597 | 180 | -49.0 | -81.3 | 257 | 19 | |
| 2013-09-01T00:00 | 12605 | 180 | -48.9 | -81.2 | 257 | 18 | |
| 2013-09-01T00:00 | 12613 | 180 | -48.8 | 258 | 18 | ||
| 2013-09-01T00:00 | 12621 | 179 | -48.7 | -81.0 | 258 | 18 | |
| 2013-09-01T00:00 | 12628 | 179 | -48.7 | -81.0 | 258 | 18 | |
| 2013-09-01T00:00 | 12635 | 179 | -48.7 | -81.0 | 259 | 18 | |
| 2013-09-01T00:00 | 12644 | 179 | -48.7 | -81.0 | 259 | 18 | |
| 2013-09-01T00:00 | 12651 | 178 | -48.8 | 260 | 18 | ||
| 2013-09-01T00:00 | 12659 | 178 | -48.8 | 260 | 18 | ||
| 2013-09-01T00:00 | 12667 | 178 | -48.9 | -81.2 | 261 | 17 | |
| 2013-09-01T00:00 | 12675 | 178 | -48.9 | -81.2 | 261 | 17 | |
| 2013-09-01T00:00 | 12682 | 178 | -48.9 | -81.2 | 262 | 17 | |
| 2013-09-01T00:00 | 12689 | 177 | -48.9 | -81.2 | 262 | 17 | |
| 2013-09-01T00:00 | 12697 | 177 | -48.9 | -81.2 | 262 | 17 | |
| 2013-09-01T00:00 | 12706 | 177 | -48.9 | -81.2 | 262 | 17 | |
| 2013-09-01T00:00 | 12714 | 177 | -49.0 | -81.3 | 263 | 17 | |
| 2013-09-01T00:00 | 12722 | 177 | -48.9 | -81.2 | 263 | 17 | |
| 2013-09-01T00:00 | 12730 | 176 | -48.9 | -81.2 | 263 | 16 | |
| 2013-09-01T00:00 | 12738 | 176 | -48.9 | -81.2 | 263 | 16 | |
| 2013-09-01T00:00 | 12745 | 176 | -48.9 | -81.2 | 263 | 16 | |
| 2013-09-01T00:00 | 12752 | 176 | -48.8 | 263 | 16 | ||
| 2013-09-01T00:00 | 12759 | 176 | -48.9 | -81.2 | 263 | 16 | |
| 2013-09-01T00:00 | 12767 | 175 | -48.8 | 263 | 16 | ||
| 2013-09-01T00:00 | 12775 | 175 | -48.9 | -81.2 | 263 | 16 | |
| 2013-09-01T00:00 | 12783 | 175 | -48.9 | -81.2 | 263 | 15 | |
| 2013-09-01T00:00 | 12792 | 175 | -48.9 | -81.2 | 263 | 15 | |
| 2013-09-01T00:00 | 12799 | 174 | -48.9 | -81.2 | 263 | 15 | |
| 2013-09-01T00:00 | 12807 | 174 | -49.0 | -81.3 | 263 | 15 | |
| 2013-09-01T00:00 | 12815 | 174 | -49.0 | -81.3 | 263 | 15 | |
| 2013-09-01T00:00 | 12822 | 174 | -49.0 | -81.3 | 263 | 15 | |
| 2013-09-01T00:00 | 12829 | 174 | -49.1 | -81.3 | 263 | 15 | |
| 2013-09-01T00:00 | 12837 | 173 | -49.1 | -81.3 | 263 | 15 | |
| 2013-09-01T00:00 | 12846 | 173 | -49.1 | -81.3 | 263 | 15 | |
| 2013-09-01T00:00 | 12853 | 173 | -49.2 | -81.4 | 263 | 15 | |
| 2013-09-01T00:00 | 12861 | 173 | -49.2 | -81.4 | 263 | 15 | |
| 2013-09-01T00:00 | 12869 | 173 | -49.2 | -81.4 | 263 | 15 | |
| 2013-09-01T00:00 | 12877 | 172 | -49.2 | -81.4 | 263 | 15 | |
| 2013-09-01T00:00 | 12884 | 172 | -49.2 | -81.4 | 263 | 15 | |
| 2013-09-01T00:00 | 12891 | 172 | -49.2 | -81.4 | 263 | 15 | |
| 2013-09-01T00:00 | 12899 | 172 | -49.2 | -81.4 | 263 | 15 | |
| 2013-09-01T00:00 | 12906 | 172 | -49.2 | -81.4 | 263 | 15 | |
| 2013-09-01T00:00 | 12914 | 171 | -49.3 | -81.5 | 262 | 15 | |
| 2013-09-01T00:00 | 12922 | 171 | -49.4 | -81.6 | 262 | 15 | |
| 2013-09-01T00:00 | 12931 | 171 | -49.4 | -81.6 | 262 | 15 | |
| 2013-09-01T00:00 | 12938 | 171 | -49.5 | -81.6 | 262 | 15 | |
| 2013-09-01T00:00 | 12946 | 171 | -49.5 | -81.6 | 261 | 15 | |
| 2013-09-01T00:00 | 12953 | 170 | -49.6 | -81.7 | 261 | 15 | |
| 2013-09-01T00:00 | 12961 | 170 | -49.6 | -81.7 | 261 | 15 | |
| 2013-09-01T00:00 | 12969 | 170 | -49.6 | -81.7 | 261 | 15 | |
| 2013-09-01T00:00 | 12978 | 170 | -49.6 | -81.7 | 260 | 15 | |
| 2013-09-01T00:00 | 12985 | 170 | -49.6 | -81.7 | 260 | 15 | |
| 2013-09-01T00:00 | 12993 | 169 | -49.6 | -81.7 | 260 | 15 | |
| 2013-09-01T00:00 | 13000 | 169 | -49.6 | -81.7 | 260 | 15 | |
| 2013-09-01T00:00 | 13008 | 169 | -49.6 | -81.7 | 260 | 15 | |
| 2013-09-01T00:00 | 13016 | 169 | -49.6 | -81.7 | 259 | 15 | |
| 2013-09-01T00:00 | 13025 | 169 | -49.6 | -81.7 | 259 | 15 | |
| 2013-09-01T00:00 | 13033 | 168 | -49.7 | -81.8 | 259 | 15 | |
| 2013-09-01T00:00 | 13042 | 168 | -49.8 | -81.8 | 259 | 15 | |
| 2013-09-01T00:00 | 13050 | 168 | -49.8 | -81.8 | 259 | 15 | |
| 2013-09-01T00:00 | 13058 | 168 | -49.8 | -81.8 | 259 | 15 | |
| 2013-09-01T00:00 | 13066 | 168 | -49.8 | -81.8 | 259 | 15 | |
| 2013-09-01T00:00 | 13073 | 167 | -49.8 | -81.8 | 259 | 15 | |
| 2013-09-01T00:00 | 13081 | 167 | -49.7 | -81.8 | 259 | 15 | |
| 2013-09-01T00:00 | 13090 | 167 | -49.8 | -81.8 | 260 | 16 | |
| 2013-09-01T00:00 | 13098 | 167 | -49.8 | -81.8 | 260 | 16 | |
| 2013-09-01T00:00 | 13105 | 167 | -49.8 | -81.8 | 260 | 16 | |
| 2013-09-01T00:00 | 13113 | 166 | -49.8 | -81.8 | 260 | 16 | |
| 2013-09-01T00:00 | 13121 | 166 | -49.8 | -81.8 | 260 | 16 | |
| 2013-09-01T00:00 | 13130 | 166 | -49.9 | -81.9 | 260 | 16 | |
| 2013-09-01T00:00 | 13137 | 166 | -49.9 | -81.9 | 260 | 16 | |
| 2013-09-01T00:00 | 13145 | 166 | -49.9 | -81.9 | 260 | 16 | |
| 2013-09-01T00:00 | 13152 | 165 | -49.9 | -81.9 | 260 | 16 | |
| 2013-09-01T00:00 | 13160 | 165 | -49.8 | -81.8 | 259 | 16 | |
| 2013-09-01T00:00 | 13167 | 165 | -49.7 | -81.8 | 259 | 16 | |
| 2013-09-01T00:00 | 13176 | 165 | -49.7 | -81.8 | 259 | 16 | |
| 2013-09-01T00:00 | 13184 | 165 | -49.7 | -81.8 | 258 | 16 | |
| 2013-09-01T00:00 | 13192 | 164 | -49.7 | -81.8 | 258 | 16 | |
| 2013-09-01T00:00 | 13199 | 164 | -49.7 | -81.8 | 258 | 15 | |
| 2013-09-01T00:00 | 13207 | 164 | -49.7 | -81.8 | 257 | 15 | |
| 2013-09-01T00:00 | 13215 | 164 | -49.7 | -81.8 | 257 | 16 | |
| 2013-09-01T00:00 | 13223 | 164 | -49.7 | -81.8 | 257 | 16 | |
| 2013-09-01T00:00 | 13231 | 163 | -49.8 | -81.8 | 257 | 16 | |
| 2013-09-01T00:00 | 13239 | 163 | -49.8 | -81.8 | 257 | 16 | |
| 2013-09-01T00:00 | 13247 | 163 | -49.8 | -81.8 | 257 | 16 | |
| 2013-09-01T00:00 | 13255 | 163 | -49.8 | -81.8 | 258 | 16 | |
| 2013-09-01T00:00 | 13264 | 163 | -49.9 | -81.9 | 258 | 16 | |
| 2013-09-01T00:00 | 13272 | 162 | -49.9 | -81.9 | 258 | 16 | |
| 2013-09-01T00:00 | 13280 | 162 | -49.9 | -81.9 | 259 | 16 | |
| 2013-09-01T00:00 | 13287 | 162 | -49.9 | -81.9 | 260 | 17 | |
| 2013-09-01T00:00 | 13295 | 162 | -49.9 | -81.9 | 260 | 17 | |
| 2013-09-01T00:00 | 13303 | 162 | -49.9 | -81.9 | 261 | 17 | |
| 2013-09-01T00:00 | 13311 | 161 | -49.9 | -81.9 | 262 | 17 | |
| 2013-09-01T00:00 | 13319 | 161 | -49.9 | -81.9 | 263 | 17 | |
| 2013-09-01T00:00 | 13327 | 161 | -49.9 | -81.9 | 263 | 17 | |
| 2013-09-01T00:00 | 13335 | 161 | -49.8 | -81.8 | 264 | 17 | |
| 2013-09-01T00:00 | 13343 | 161 | -49.8 | -81.8 | 265 | 17 | |
| 2013-09-01T00:00 | 13352 | 160 | -49.7 | -81.8 | 265 | 17 | |
| 2013-09-01T00:00 | 13361 | 160 | -49.7 | -81.8 | 266 | 17 | |
| 2013-09-01T00:00 | 13369 | 160 | -49.7 | -81.8 | 267 | 17 | |
| 2013-09-01T00:00 | 13378 | 160 | -49.6 | -81.7 | 267 | 17 | |
| 2013-09-01T00:00 | 13386 | 160 | -49.6 | -81.7 | 267 | 17 | |
| 2013-09-01T00:00 | 13395 | 159 | -49.6 | -81.7 | 268 | 17 | |
| 2013-09-01T00:00 | 13404 | 159 | -49.6 | -81.7 | 268 | 17 | |
| 2013-09-01T00:00 | 13413 | 159 | -49.6 | -81.7 | 268 | 17 | |
| 2013-09-01T00:00 | 13422 | 159 | -49.6 | -81.7 | 268 | 17 | |
| 2013-09-01T00:00 | 13430 | 158 | -49.6 | -81.7 | 268 | 16 | |
| 2013-09-01T00:00 | 13439 | 158 | -49.7 | -81.8 | 268 | 16 | |
| 2013-09-01T00:00 | 13447 | 158 | -49.7 | -81.8 | 268 | 16 | |
| 2013-09-01T00:00 | 13455 | 158 | -49.8 | -81.8 | 268 | 16 | |
| 2013-09-01T00:00 | 13463 | 158 | -49.8 | -81.8 | 267 | 16 | |
| 2013-09-01T00:00 | 13472 | 157 | -49.8 | -81.8 | 267 | 16 | |
| 2013-09-01T00:00 | 13481 | 157 | -49.8 | -81.8 | 267 | 15 | |
| 2013-09-01T00:00 | 13490 | 157 | -49.9 | -81.9 | 267 | 15 | |
| 2013-09-01T00:00 | 13498 | 157 | -49.9 | -81.9 | 266 | 15 | |
| 2013-09-01T00:00 | 13507 | 157 | -49.9 | -81.9 | 266 | 15 | |
| 2013-09-01T00:00 | 13516 | 156 | -50.0 | -82.0 | 266 | 15 | |
| 2013-09-01T00:00 | 13524 | 156 | -50.0 | -82.0 | 265 | 15 | |
| 2013-09-01T00:00 | 13531 | 156 | -50.0 | -82.0 | 265 | 15 | |
| 2013-09-01T00:00 | 13540 | 156 | -50.1 | -82.1 | 265 | 15 | |
| 2013-09-01T00:00 | 13549 | 156 | -50.1 | -82.1 | 264 | 15 | |
| 2013-09-01T00:00 | 13558 | 155 | -50.1 | -82.1 | 264 | 15 | |
| 2013-09-01T00:00 | 13566 | 155 | -50.1 | -82.1 | 264 | 15 | |
| 2013-09-01T00:00 | 13574 | 155 | -50.1 | -82.1 | 264 | 15 | |
| 2013-09-01T00:00 | 13582 | 155 | -50.1 | -82.1 | 264 | 15 | |
| 2013-09-01T00:00 | 13590 | 155 | -50.1 | -82.1 | 264 | 15 | |
| 2013-09-01T00:00 | 13597 | 154 | -50.0 | -82.0 | 264 | 15 | |
| 2013-09-01T00:00 | 13605 | 154 | -50.0 | -82.0 | 264 | 15 | |
| 2013-09-01T00:00 | 13613 | 154 | -49.9 | -81.9 | 265 | 15 | |
| 2013-09-01T00:00 | 13622 | 154 | -49.9 | -81.9 | 265 | 15 | |
| 2013-09-01T00:00 | 13630 | 154 | -49.9 | -81.9 | 266 | 15 | |
| 2013-09-01T00:00 | 13638 | 153 | -49.9 | -81.9 | 266 | 15 | |
| 2013-09-01T00:00 | 13647 | 153 | -49.9 | -81.9 | 267 | 15 | |
| 2013-09-01T00:00 | 13656 | 153 | -49.9 | -81.9 | 267 | 15 | |
| 2013-09-01T00:00 | 13664 | 153 | -50.0 | -82.0 | 267 | 15 | |
| 2013-09-01T00:00 | 13673 | 153 | -50.0 | -82.0 | 268 | 15 | |
| 2013-09-01T00:00 | 13681 | 152 | -50.0 | -82.0 | 268 | 15 | |
| 2013-09-01T00:00 | 13689 | 152 | -50.1 | -82.1 | 269 | 15 | |
| 2013-09-01T00:00 | 13697 | 152 | -50.1 | -82.1 | 269 | 15 | |
| 2013-09-01T00:00 | 13706 | 152 | -50.1 | -82.1 | 270 | 15 | |
| 2013-09-01T00:00 | 13714 | 152 | -50.1 | -82.1 | 270 | 15 | |
| 2013-09-01T00:00 | 13721 | 152 | -50.2 | -82.1 | 270 | 15 | |
| 2013-09-01T00:00 | 13730 | 151 | -50.3 | -82.2 | 270 | 15 | |
| 2013-09-01T00:00 | 13738 | 151 | -50.3 | -82.2 | 271 | 15 | |
| 2013-09-01T00:00 | 13747 | 151 | -50.3 | -82.2 | 271 | 15 | |
| 2013-09-01T00:00 | 13754 | 151 | -50.4 | -82.3 | 271 | 15 | |
| 2013-09-01T00:00 | 13762 | 151 | -50.4 | -82.3 | 271 | 15 | |
| 2013-09-01T00:00 | 13770 | 150 | -50.5 | 272 | 15 | ||
| 2013-09-01T00:00 | 13778 | 150 | -50.6 | -82.4 | 272 | 15 | |
| 2013-09-01T00:00 | 13786 | 150 | -50.6 | -82.4 | 272 | 15 | |
| 2013-09-01T00:00 | 13796 | 150 | -50.7 | -82.5 | 272 | 15 | |
| 2013-09-01T00:00 | 13804 | 150 | -50.7 | -82.5 | 272 | 15 | |
| 2013-09-01T00:00 | 13812 | 149 | -50.7 | -82.5 | 272 | 15 | |
| 2013-09-01T00:00 | 13820 | 149 | -50.7 | -82.5 | 272 | 14 | |
| 2013-09-01T00:00 | 13828 | 149 | -50.7 | -82.5 | 271 | 14 | |
| 2013-09-01T00:00 | 13837 | 149 | -50.8 | -82.6 | 271 | 14 | |
| 2013-09-01T00:00 | 13846 | 149 | -50.8 | -82.6 | 271 | 14 | |
| 2013-09-01T00:00 | 13854 | 148 | -50.7 | -82.5 | 270 | 14 | |
| 2013-09-01T00:00 | 13862 | 148 | -50.7 | -82.5 | 270 | 14 | |
| 2013-09-01T00:00 | 13870 | 148 | -50.8 | -82.6 | 269 | 14 | |
| 2013-09-01T00:00 | 13877 | 148 | -50.8 | -82.6 | 268 | 14 | |
| 2013-09-01T00:00 | 13885 | 148 | -50.9 | -82.7 | 268 | 14 | |
| 2013-09-01T00:00 | 13894 | 148 | -50.9 | -82.7 | 267 | 13 | |
| 2013-09-01T00:00 | 13902 | 147 | -51.0 | -82.7 | 266 | 13 | |
| 2013-09-01T00:00 | 13909 | 147 | -51.0 | -82.7 | 266 | 13 | |
| 2013-09-01T00:00 | 13918 | 147 | -51.1 | -82.8 | 265 | 13 | |
| 2013-09-01T00:00 | 13926 | 147 | -51.1 | -82.8 | 265 | 13 | |
| 2013-09-01T00:00 | 13935 | 147 | -51.1 | -82.8 | 265 | 13 | |
| 2013-09-01T00:00 | 13943 | 146 | -51.0 | -82.7 | 265 | 13 | |
| 2013-09-01T00:00 | 13951 | 146 | -51.0 | -82.7 | 264 | 13 | |
| 2013-09-01T00:00 | 13959 | 146 | -51.1 | -82.8 | 264 | 13 | |
| 2013-09-01T00:00 | 13967 | 146 | -51.1 | -82.8 | 265 | 13 | |
| 2013-09-01T00:00 | 13976 | 146 | -51.0 | -82.7 | 265 | 13 | |
| 2013-09-01T00:00 | 13984 | 146 | -50.9 | -82.7 | 265 | 13 | |
| 2013-09-01T00:00 | 13992 | 145 | -50.9 | -82.7 | 266 | 13 | |
| 2013-09-01T00:00 | 14000 | 145 | -50.9 | -82.7 | 266 | 13 | |
| 2013-09-01T00:00 | 14009 | 145 | -51.0 | -82.7 | 267 | 13 | |
| 2013-09-01T00:00 | 14017 | 145 | -51.1 | -82.8 | 268 | 13 | |
| 2013-09-01T00:00 | 14025 | 145 | -51.2 | -82.9 | 268 | 13 | |
| 2013-09-01T00:00 | 14034 | 144 | -51.2 | -82.9 | 269 | 13 | |
| 2013-09-01T00:00 | 14042 | 144 | -51.3 | -82.9 | 270 | 13 | |
| 2013-09-01T00:00 | 14051 | 144 | -51.3 | -82.9 | 271 | 13 | |
| 2013-09-01T00:00 | 14060 | 144 | -51.4 | -83.0 | 272 | 13 | |
| 2013-09-01T00:00 | 14069 | 144 | -51.4 | -83.0 | 273 | 13 | |
| 2013-09-01T00:00 | 14078 | 143 | -51.4 | -83.0 | 273 | 13 | |
| 2013-09-01T00:00 | 14085 | 143 | -51.4 | -83.0 | 274 | 13 | |
| 2013-09-01T00:00 | 14093 | 143 | -51.3 | -82.9 | 275 | 13 | |
| 2013-09-01T00:00 | 14102 | 143 | -51.3 | -82.9 | 275 | 13 | |
| 2013-09-01T00:00 | 14111 | 143 | -51.3 | -82.9 | 275 | 13 | |
| 2013-09-01T00:00 | 14119 | 143 | -51.3 | -82.9 | 276 | 13 | |
| 2013-09-01T00:00 | 14127 | 142 | -51.3 | -82.9 | 276 | 13 | |
| 2013-09-01T00:00 | 14136 | 142 | -51.3 | -82.9 | 276 | 13 | |
| 2013-09-01T00:00 | 14144 | 142 | -51.3 | -82.9 | 276 | 13 | |
| 2013-09-01T00:00 | 14153 | 142 | -51.3 | -82.9 | 276 | 13 | |
| 2013-09-01T00:00 | 14162 | 142 | -51.3 | -82.9 | 275 | 13 | |
| 2013-09-01T00:00 | 14170 | 141 | -51.3 | -82.9 | 275 | 13 | |
| 2013-09-01T00:00 | 14179 | 141 | -51.3 | -82.9 | 275 | 13 | |
| 2013-09-01T00:00 | 14186 | 141 | -51.4 | -83.0 | 275 | 13 | |
| 2013-09-01T00:00 | 14194 | 141 | -51.4 | -83.0 | 274 | 13 | |
| 2013-09-01T00:00 | 14202 | 141 | -51.4 | -83.0 | 274 | 12 | |
| 2013-09-01T00:00 | 14210 | 141 | -51.4 | -83.0 | 273 | 12 | |
| 2013-09-01T00:00 | 14218 | 140 | -51.5 | -83.1 | 273 | 12 | |
| 2013-09-01T00:00 | 14226 | 140 | -51.5 | -83.1 | 273 | 12 | |
| 2013-09-01T00:00 | 14234 | 140 | -51.5 | -83.1 | 272 | 12 | |
| 2013-09-01T00:00 | 14242 | 140 | -51.6 | -83.2 | 272 | 12 | |
| 2013-09-01T00:00 | 14250 | 140 | -51.6 | -83.2 | 272 | 12 | |
| 2013-09-01T00:00 | 14259 | 140 | -51.7 | -83.2 | 272 | 12 | |
| 2013-09-01T00:00 | 14267 | 139 | -51.8 | -83.3 | 271 | 12 | |
| 2013-09-01T00:00 | 14276 | 139 | -51.8 | -83.3 | 271 | 13 | |
| 2013-09-01T00:00 | 14285 | 139 | -51.9 | -83.4 | 271 | 13 | |
| 2013-09-01T00:00 | 14294 | 139 | -51.9 | -83.4 | 271 | 13 | |
| 2013-09-01T00:00 | 14303 | 139 | -52.0 | -83.5 | 271 | 13 | |
| 2013-09-01T00:00 | 14311 | 138 | -52.0 | -83.5 | 271 | 13 | |
| 2013-09-01T00:00 | 14319 | 138 | -52.0 | -83.5 | 270 | 13 | |
| 2013-09-01T00:00 | 14328 | 138 | -52.1 | -83.5 | 270 | 13 | |
| 2013-09-01T00:00 | 14337 | 138 | -52.1 | -83.5 | 270 | 13 | |
| 2013-09-01T00:00 | 14346 | 138 | -52.1 | -83.5 | 270 | 13 | |
| 2013-09-01T00:00 | 14355 | 137 | -52.1 | -83.5 | 269 | 13 | |
| 2013-09-01T00:00 | 14363 | 137 | -52.1 | -83.5 | 269 | 13 | |
| 2013-09-01T00:00 | 14371 | 137 | -52.0 | -83.5 | 268 | 13 | |
| 2013-09-01T00:00 | 14380 | 137 | -51.9 | -83.4 | 268 | 13 | |
| 2013-09-01T00:00 | 14388 | 137 | -51.9 | -83.4 | 268 | 13 | |
| 2013-09-01T00:00 | 14396 | 137 | -51.9 | -83.4 | 267 | 13 | |
| 2013-09-01T00:00 | 14406 | 136 | -51.9 | -83.4 | 267 | 13 | |
| 2013-09-01T00:00 | 14415 | 136 | -51.9 | -83.4 | 266 | 13 | |
| 2013-09-01T00:00 | 14424 | 136 | -51.8 | -83.3 | 266 | 13 | |
| 2013-09-01T00:00 | 14433 | 136 | -51.8 | -83.3 | 266 | 13 | |
| 2013-09-01T00:00 | 14442 | 136 | -51.8 | -83.3 | 266 | 13 | |
| 2013-09-01T00:00 | 14451 | 135 | -51.8 | -83.3 | 267 | 13 | |
| 2013-09-01T00:00 | 14460 | 135 | -51.8 | -83.3 | 267 | 13 | |
| 2013-09-01T00:00 | 14469 | 135 | -51.8 | -83.3 | 267 | 13 | |
| 2013-09-01T00:00 | 14478 | 135 | -51.8 | -83.3 | 268 | 13 | |
| 2013-09-01T00:00 | 14486 | 135 | -51.8 | -83.3 | 269 | 13 | |
| 2013-09-01T00:00 | 14495 | 135 | -51.8 | -83.3 | 270 | 13 | |
| 2013-09-01T00:00 | 14504 | 134 | -51.9 | -83.4 | 271 | 13 | |
| 2013-09-01T00:00 | 14512 | 134 | -51.8 | -83.3 | 271 | 13 | |
| 2013-09-01T00:00 | 14521 | 134 | -51.7 | -83.2 | 272 | 13 | |
| 2013-09-01T00:00 | 14529 | 134 | -51.6 | -83.2 | 273 | 13 | |
| 2013-09-01T00:00 | 14537 | 134 | -51.5 | -83.1 | 274 | 13 | |
| 2013-09-01T00:00 | 14545 | 133 | -51.4 | -83.0 | 274 | 13 | |
| 2013-09-01T00:00 | 14555 | 133 | -51.4 | -83.0 | 275 | 13 | |
| 2013-09-01T00:00 | 14563 | 133 | -51.4 | -83.0 | 275 | 13 | |
| 2013-09-01T00:00 | 14572 | 133 | -51.4 | -83.0 | 276 | 12 | |
| 2013-09-01T00:00 | 14581 | 133 | -51.3 | -82.9 | 276 | 12 | |
| 2013-09-01T00:00 | 14591 | 133 | -51.3 | -82.9 | 276 | 12 | |
| 2013-09-01T00:00 | 14598 | 132 | -51.3 | -82.9 | 276 | 12 | |
| 2013-09-01T00:00 | 14606 | 132 | -51.2 | -82.9 | 275 | 12 | |
| 2013-09-01T00:00 | 14614 | 132 | -51.1 | -82.8 | 275 | 11 | |
| 2013-09-01T00:00 | 14622 | 132 | -51.0 | -82.7 | 275 | 11 | |
| 2013-09-01T00:00 | 14631 | 132 | -51.0 | -82.7 | 274 | 11 | |
| 2013-09-01T00:00 | 14640 | 132 | -50.9 | -82.7 | 274 | 11 | |
| 2013-09-01T00:00 | 14648 | 131 | -50.9 | -82.7 | 273 | 11 | |
| 2013-09-01T00:00 | 14656 | 131 | -50.9 | -82.7 | 273 | 11 | |
| 2013-09-01T00:00 | 14665 | 131 | -51.0 | -82.7 | 272 | 11 | |
| 2013-09-01T00:00 | 14673 | 131 | -51.0 | -82.7 | 271 | 10 | |
| 2013-09-01T00:00 | 14681 | 131 | -51.0 | -82.7 | 270 | 10 | |
| 2013-09-01T00:00 | 14689 | 131 | -51.1 | -82.8 | 269 | 10 | |
| 2013-09-01T00:00 | 14698 | 130 | -51.1 | -82.8 | 269 | 10 | |
| 2013-09-01T00:00 | 14707 | 130 | -51.1 | -82.8 | 268 | 10 | |
| 2013-09-01T00:00 | 14716 | 130 | -51.0 | -82.7 | 267 | 10 | |
| 2013-09-01T00:00 | 14724 | 130 | -51.0 | -82.7 | 266 | 10 | |
| 2013-09-01T00:00 | 14733 | 130 | -51.1 | -82.8 | 265 | 10 | |
| 2013-09-01T00:00 | 14741 | 130 | -51.1 | -82.8 | 264 | 10 | |
| 2013-09-01T00:00 | 14750 | 129 | -51.2 | -82.9 | 263 | 10 | |
| 2013-09-01T00:00 | 14759 | 129 | -51.3 | -82.9 | 263 | 10 | |
| 2013-09-01T00:00 | 14766 | 129 | -51.3 | -82.9 | 262 | 10 | |
| 2013-09-01T00:00 | 14775 | 129 | -51.4 | -83.0 | 261 | 10 | |
| 2013-09-01T00:00 | 14784 | 129 | -51.5 | -83.1 | 260 | 10 | |
| 2013-09-01T00:00 | 14792 | 129 | -51.5 | -83.1 | 259 | 10 | |
| 2013-09-01T00:00 | 14801 | 128 | -51.6 | -83.2 | 259 | 10 | |
| 2013-09-01T00:00 | 14810 | 128 | -51.7 | -83.2 | 258 | 10 | |
| 2013-09-01T00:00 | 14817 | 128 | -51.7 | -83.2 | 257 | 10 | |
| 2013-09-01T00:00 | 14826 | 128 | -51.8 | -83.3 | 256 | 10 | |
| 2013-09-01T00:00 | 14836 | 128 | -51.9 | -83.4 | 256 | 10 | |
| 2013-09-01T00:00 | 14846 | 127 | -52.0 | -83.5 | 255 | 10 | |
| 2013-09-01T00:00 | 14855 | 127 | -52.1 | -83.5 | 255 | 10 | |
| 2013-09-01T00:00 | 14862 | 127 | -52.2 | -83.6 | 254 | 10 | |
| 2013-09-01T00:00 | 14870 | 127 | -52.2 | -83.6 | 254 | 10 | |
| 2013-09-01T00:00 | 14878 | 127 | -52.3 | -83.7 | 254 | 10 | |
| 2013-09-01T00:00 | 14886 | 127 | -52.3 | -83.7 | 254 | 11 | |
| 2013-09-01T00:00 | 14894 | 127 | -52.3 | -83.7 | 254 | 11 | |
| 2013-09-01T00:00 | 14902 | 126 | -52.3 | -83.7 | 254 | 11 | |
| 2013-09-01T00:00 | 14910 | 126 | -52.3 | -83.7 | 254 | 11 | |
| 2013-09-01T00:00 | 14918 | 126 | -52.3 | -83.7 | 254 | 11 | |
| 2013-09-01T00:00 | 14926 | 126 | -52.2 | -83.6 | 254 | 11 | |
| 2013-09-01T00:00 | 14932 | 126 | -52.2 | -83.6 | 255 | 11 | |
| 2013-09-01T00:00 | 14940 | 126 | -52.2 | -83.6 | 255 | 11 | |
| 2013-09-01T00:00 | 14949 | 125 | -52.3 | -83.7 | 255 | 11 | |
| 2013-09-01T00:00 | 14959 | 125 | -52.3 | -83.7 | 255 | 12 | |
| 2013-09-01T00:00 | 14967 | 125 | -52.4 | -83.8 | 256 | 12 | |
| 2013-09-01T00:00 | 14976 | 125 | -52.4 | -83.8 | 256 | 12 | |
| 2013-09-01T00:00 | 14985 | 125 | -52.5 | -83.8 | 256 | 12 | |
| 2013-09-01T00:00 | 14994 | 125 | -52.6 | -83.9 | 257 | 12 | |
| 2013-09-01T00:00 | 15001 | 124 | -52.7 | -84.0 | 257 | 12 | |
| 2013-09-01T00:00 | 15009 | 124 | -52.7 | -84.0 | 257 | 12 | |
| 2013-09-01T00:00 | 15018 | 124 | -52.7 | -84.0 | 258 | 12 | |
| 2013-09-01T00:00 | 15026 | 124 | -52.8 | -84.1 | 258 | 12 | |
| 2013-09-01T00:00 | 15034 | 124 | -52.8 | -84.1 | 259 | 13 | |
| 2013-09-01T00:00 | 15042 | 124 | -52.8 | -84.1 | 259 | 13 | |
| 2013-09-01T00:00 | 15050 | 123 | -52.9 | -84.1 | 259 | 13 | |
| 2013-09-01T00:00 | 15059 | 123 | -52.9 | -84.1 | 260 | 13 | |
| 2013-09-01T00:00 | 15068 | 123 | -53.0 | -84.2 | 260 | 13 | |
| 2013-09-01T00:00 | 15076 | 123 | -53.0 | -84.2 | 261 | 13 | |
| 2013-09-01T00:00 | 15083 | 123 | -53.1 | -84.3 | 261 | 13 | |
| 2013-09-01T00:00 | 15092 | 123 | -53.1 | -84.3 | 262 | 13 | |
| 2013-09-01T00:00 | 15100 | 123 | -53.2 | -84.4 | 262 | 14 | |
| 2013-09-01T00:00 | 15108 | 122 | -53.2 | -84.4 | 262 | 14 | |
| 2013-09-01T00:00 | 15117 | 122 | -53.3 | -84.4 | 263 | 14 | |
| 2013-09-01T00:00 | 15125 | 122 | -53.3 | -84.4 | 263 | 14 | |
| 2013-09-01T00:00 | 15132 | 122 | -53.3 | -84.4 | 264 | 14 | |
| 2013-09-01T00:00 | 15139 | 122 | -53.2 | -84.4 | 264 | 14 | |
| 2013-09-01T00:00 | 15147 | 122 | -53.2 | -84.4 | 265 | 14 | |
| 2013-09-01T00:00 | 15155 | 121 | -53.2 | -84.4 | 265 | 14 | |
| 2013-09-01T00:00 | 15163 | 121 | -53.1 | -84.3 | 266 | 14 | |
| 2013-09-01T00:00 | 15171 | 121 | -53.1 | -84.3 | 266 | 14 | |
| 2013-09-01T00:00 | 15179 | 121 | -53.1 | -84.3 | 266 | 14 | |
| 2013-09-01T00:00 | 15186 | 121 | -53.1 | -84.3 | 267 | 14 | |
| 2013-09-01T00:00 | 15195 | 121 | -53.0 | -84.2 | 267 | 14 | |
| 2013-09-01T00:00 | 15203 | 121 | -53.0 | -84.2 | 267 | 13 | |
| 2013-09-01T00:00 | 15210 | 120 | -53.0 | -84.2 | 267 | 13 | |
| 2013-09-01T00:00 | 15217 | 120 | -52.9 | -84.1 | 267 | 13 | |
| 2013-09-01T00:00 | 15225 | 120 | -52.7 | -84.0 | 267 | 13 | |
| 2013-09-01T00:00 | 15232 | 120 | -52.6 | -83.9 | 267 | 13 | |
| 2013-09-01T00:00 | 15240 | 120 | -52.6 | -83.9 | 267 | 13 | |
| 2013-09-01T00:00 | 15248 | 120 | -52.6 | -83.9 | 266 | 13 | |
| 2013-09-01T00:00 | 15257 | 120 | -52.6 | -83.9 | 266 | 13 | |
| 2013-09-01T00:00 | 15266 | 119 | -52.6 | -83.9 | 266 | 13 | |
| 2013-09-01T00:00 | 15274 | 119 | -52.6 | -83.9 | 266 | 13 | |
| 2013-09-01T00:00 | 15282 | 119 | -52.6 | -83.9 | 265 | 13 | |
| 2013-09-01T00:00 | 15290 | 119 | -52.6 | -83.9 | 265 | 13 | |
| 2013-09-01T00:00 | 15298 | 119 | -52.5 | -83.8 | 265 | 13 | |
| 2013-09-01T00:00 | 15306 | 119 | -52.5 | -83.8 | 265 | 13 | |
| 2013-09-01T00:00 | 15314 | 119 | -52.5 | -83.8 | 265 | 13 | |
| 2013-09-01T00:00 | 15322 | 118 | -52.5 | -83.8 | 265 | 13 | |
| 2013-09-01T00:00 | 15330 | 118 | -52.4 | -83.8 | 265 | 13 | |
| 2013-09-01T00:00 | 15338 | 118 | -52.4 | -83.8 | 265 | 13 | |
| 2013-09-01T00:00 | 15346 | 118 | -52.3 | -83.7 | 264 | 12 | |
| 2013-09-01T00:00 | 15354 | 118 | -52.3 | -83.7 | 264 | 12 | |
| 2013-09-01T00:00 | 15362 | 118 | -52.4 | -83.8 | 264 | 12 | |
| 2013-09-01T00:00 | 15370 | 118 | -52.5 | -83.8 | 264 | 12 | |
| 2013-09-01T00:00 | 15377 | 117 | -52.5 | -83.8 | 264 | 12 | |
| 2013-09-01T00:00 | 15385 | 117 | -52.5 | -83.8 | 264 | 12 | |
| 2013-09-01T00:00 | 15393 | 117 | -52.5 | -83.8 | 264 | 12 | |
| 2013-09-01T00:00 | 15402 | 117 | -52.4 | -83.8 | 265 | 12 | |
| 2013-09-01T00:00 | 15412 | 117 | -52.4 | -83.8 | 265 | 12 | |
| 2013-09-01T00:00 | 15420 | 117 | -52.4 | -83.8 | 265 | 12 | |
| 2013-09-01T00:00 | 15428 | 116 | -52.4 | -83.8 | 266 | 12 | |
| 2013-09-01T00:00 | 15435 | 116 | -52.5 | -83.8 | 266 | 12 | |
| 2013-09-01T00:00 | 15443 | 116 | -52.6 | -83.9 | 267 | 12 | |
| 2013-09-01T00:00 | 15451 | 116 | -52.6 | -83.9 | 268 | 12 | |
| 2013-09-01T00:00 | 15459 | 116 | -52.5 | -83.8 | 268 | 12 | |
| 2013-09-01T00:00 | 15467 | 116 | -52.4 | -83.8 | 269 | 12 | |
| 2013-09-01T00:00 | 15476 | 116 | -52.4 | -83.8 | 270 | 12 | |
| 2013-09-01T00:00 | 15484 | 115 | -52.5 | -83.8 | 271 | 12 | |
| 2013-09-01T00:00 | 15492 | 115 | -52.6 | -83.9 | 272 | 12 | |
| 2013-09-01T00:00 | 15500 | 115 | -52.6 | -83.9 | 272 | 12 | |
| 2013-09-01T00:00 | 15507 | 115 | -52.6 | -83.9 | 273 | 12 | |
| 2013-09-01T00:00 | 15514 | 115 | -52.7 | -84.0 | 274 | 12 | |
| 2013-09-01T00:00 | 15522 | 115 | -52.8 | -84.1 | 274 | 11 | |
| 2013-09-01T00:00 | 15530 | 115 | -52.8 | -84.1 | 275 | 11 | |
| 2013-09-01T00:00 | 15538 | 114 | -52.9 | -84.1 | 275 | 11 | |
| 2013-09-01T00:00 | 15546 | 114 | -52.8 | -84.1 | 276 | 11 | |
| 2013-09-01T00:00 | 15554 | 114 | -52.7 | -84.0 | 276 | 11 | |
| 2013-09-01T00:00 | 15562 | 114 | -52.6 | -83.9 | 276 | 11 | |
| 2013-09-01T00:00 | 15570 | 114 | -52.5 | -83.8 | 277 | 11 | |
| 2013-09-01T00:00 | 15579 | 114 | -52.5 | -83.8 | 277 | 11 | |
| 2013-09-01T00:00 | 15587 | 114 | -52.5 | -83.8 | 277 | 11 | |
| 2013-09-01T00:00 | 15594 | 113 | -52.3 | -83.7 | 277 | 10 | |
| 2013-09-01T00:00 | 15602 | 113 | -52.2 | -83.6 | 277 | 10 | |
| 2013-09-01T00:00 | 15610 | 113 | -52.2 | -83.6 | 277 | 10 | |
| 2013-09-01T00:00 | 15618 | 113 | -52.2 | -83.6 | 277 | 10 | |
| 2013-09-01T00:00 | 15626 | 113 | -52.1 | -83.5 | 277 | 10 | |
| 2013-09-01T00:00 | 15634 | 113 | -52.0 | -83.5 | 277 | 9 | |
| 2013-09-01T00:00 | 15642 | 113 | -51.9 | -83.4 | 277 | 9 | |
| 2013-09-01T00:00 | 15649 | 113 | -51.8 | -83.3 | 277 | 9 | |
| 2013-09-01T00:00 | 15656 | 112 | -51.7 | -83.2 | 276 | 9 | |
| 2013-09-01T00:00 | 15664 | 112 | -51.5 | -83.1 | 276 | 8 | |
| 2013-09-01T00:00 | 15672 | 112 | -51.4 | -83.0 | 275 | 8 | |
| 2013-09-01T00:00 | 15682 | 112 | -51.3 | -82.9 | 274 | 8 | |
| 2013-09-01T00:00 | 15690 | 112 | -51.3 | -82.9 | 273 | 8 | |
| 2013-09-01T00:00 | 15698 | 112 | -51.3 | -82.9 | 272 | 8 | |
| 2013-09-01T00:00 | 15707 | 112 | -51.3 | -82.9 | 271 | 7 | |
| 2013-09-01T00:00 | 15715 | 111 | -51.2 | -82.9 | 269 | 7 | |
| 2013-09-01T00:00 | 15724 | 111 | -51.3 | -82.9 | 268 | 7 | |
| 2013-09-01T00:00 | 15733 | 111 | -51.3 | -82.9 | 266 | 7 | |
| 2013-09-01T00:00 | 15742 | 111 | -51.4 | -83.0 | 264 | 7 | |
| 2013-09-01T00:00 | 15751 | 111 | -51.5 | -83.1 | 262 | 7 | |
| 2013-09-01T00:00 | 15760 | 111 | -51.5 | -83.1 | 260 | 7 | |
| 2013-09-01T00:00 | 15769 | 110 | -51.6 | -83.2 | 259 | 7 | |
| 2013-09-01T00:00 | 15777 | 110 | -51.6 | -83.2 | 257 | 7 | |
| 2013-09-01T00:00 | 15786 | 110 | -51.6 | -83.2 | 256 | 7 | |
| 2013-09-01T00:00 | 15794 | 110 | -51.5 | -83.1 | 254 | 7 | |
| 2013-09-01T00:00 | 15803 | 110 | -51.3 | -82.9 | 253 | 7 | |
| 2013-09-01T00:00 | 15811 | 110 | -51.3 | -82.9 | 252 | 7 | |
| 2013-09-01T00:00 | 15820 | 110 | -51.3 | -82.9 | 251 | 7 | |
| 2013-09-01T00:00 | 15830 | 109 | -51.4 | -83.0 | 250 | 7 | |
| 2013-09-01T00:00 | 15839 | 109 | -51.5 | -83.1 | 249 | 7 | |
| 2013-09-01T00:00 | 15847 | 109 | -51.6 | -83.2 | 249 | 7 | |
| 2013-09-01T00:00 | 15855 | 109 | -51.7 | -83.2 | 248 | 7 | |
| 2013-09-01T00:00 | 15865 | 109 | -51.8 | -83.3 | 247 | 6 | |
| 2013-09-01T00:00 | 15874 | 109 | -51.9 | -83.4 | 247 | 6 | |
| 2013-09-01T00:00 | 15884 | 109 | -52.0 | -83.5 | 246 | 6 | |
| 2013-09-01T00:00 | 15892 | 108 | -52.0 | -83.5 | 246 | 6 | |
| 2013-09-01T00:00 | 15900 | 108 | -52.1 | -83.5 | 245 | 6 | |
| 2013-09-01T00:00 | 15909 | 108 | -52.2 | -83.6 | 245 | 6 | |
| 2013-09-01T00:00 | 15917 | 108 | -52.3 | -83.7 | 244 | 6 | |
| 2013-09-01T00:00 | 15925 | 108 | -52.3 | -83.7 | 244 | 6 | |
| 2013-09-01T00:00 | 15933 | 108 | -52.4 | -83.8 | 243 | 6 | |
| 2013-09-01T00:00 | 15942 | 108 | -52.4 | -83.8 | 242 | 6 | |
| 2013-09-01T00:00 | 15951 | 107 | -52.5 | -83.8 | 241 | 6 | |
| 2013-09-01T00:00 | 15959 | 107 | -52.6 | -83.9 | 240 | 6 | |
| 2013-09-01T00:00 | 15968 | 107 | -52.7 | -84.0 | 239 | 6 | |
| 2013-09-01T00:00 | 15977 | 107 | -52.7 | -84.0 | 237 | 6 | |
| 2013-09-01T00:00 | 15985 | 107 | -52.8 | -84.1 | 235 | 6 | |
| 2013-09-01T00:00 | 15993 | 107 | -52.9 | -84.1 | 234 | 6 | |
| 2013-09-01T00:00 | 16002 | 107 | -52.9 | -84.1 | 232 | 6 | |
| 2013-09-01T00:00 | 16010 | 106 | -52.9 | -84.1 | 230 | 6 | |
| 2013-09-01T00:00 | 16019 | 106 | -52.8 | -84.1 | 228 | 6 | |
| 2013-09-01T00:00 | 16027 | 106 | -52.8 | -84.1 | 226 | 6 | |
| 2013-09-01T00:00 | 16035 | 106 | -52.8 | -84.1 | 224 | 6 | |
| 2013-09-01T00:00 | 16045 | 106 | -52.8 | -84.1 | 223 | 6 | |
| 2013-09-01T00:00 | 16054 | 106 | -52.9 | -84.1 | 222 | 6 | |
| 2013-09-01T00:00 | 16063 | 106 | -53.0 | -84.2 | 221 | 6 | |
| 2013-09-01T00:00 | 16070 | 105 | -53.0 | -84.2 | 221 | 6 | |
| 2013-09-01T00:00 | 16079 | 105 | -53.1 | -84.3 | 222 | 6 | |
| 2013-09-01T00:00 | 16087 | 105 | -53.1 | -84.3 | 223 | 6 | |
| 2013-09-01T00:00 | 16095 | 105 | -53.1 | -84.3 | 224 | 6 | |
| 2013-09-01T00:00 | 16104 | 105 | -53.1 | -84.3 | 226 | 6 | |
| 2013-09-01T00:00 | 16114 | 105 | -53.1 | -84.3 | 228 | 7 | |
| 2013-09-01T00:00 | 16123 | 105 | -53.2 | -84.4 | 230 | 7 | |
| 2013-09-01T00:00 | 16132 | 104 | -53.2 | -84.4 | 232 | 7 | |
| 2013-09-01T00:00 | 16141 | 104 | -53.2 | -84.4 | 235 | 7 | |
| 2013-09-01T00:00 | 16150 | 104 | -53.2 | -84.4 | 237 | 7 | |
| 2013-09-01T00:00 | 16160 | 104 | -53.2 | -84.4 | 239 | 7 | |
| 2013-09-01T00:00 | 16170 | 104 | -53.0 | -84.2 | 241 | 8 | |
| 2013-09-01T00:00 | 16179 | 104 | -52.8 | -84.1 | 242 | 8 | |
| 2013-09-01T00:00 | 16188 | 104 | -52.7 | -84.0 | 244 | 8 | |
| 2013-09-01T00:00 | 16196 | 103 | -52.6 | -83.9 | 245 | 8 | |
| 2013-09-01T00:00 | 16205 | 103 | -52.5 | -83.8 | 246 | 8 | |
| 2013-09-01T00:00 | 16213 | 103 | -52.5 | -83.8 | 246 | 8 | |
| 2013-09-01T00:00 | 16222 | 103 | -52.5 | -83.8 | 246 | 8 | |
| 2013-09-01T00:00 | 16232 | 103 | -52.5 | -83.8 | 246 | 8 | |
| 2013-09-01T00:00 | 16240 | 103 | -52.3 | -83.7 | 246 | 8 | |
| 2013-09-01T00:00 | 16250 | 103 | -52.2 | -83.6 | 246 | 8 | |
| 2013-09-01T00:00 | 16259 | 102 | -52.2 | -83.6 | 246 | 8 | |
| 2013-09-01T00:00 | 16267 | 102 | -52.2 | -83.6 | 246 | 8 | |
| 2013-09-01T00:00 | 16275 | 102 | -52.3 | -83.7 | 246 | 8 | |
| 2013-09-01T00:00 | 16285 | 102 | -52.3 | -83.7 | 246 | 8 | |
| 2013-09-01T00:00 | 16295 | 102 | -52.3 | -83.7 | 246 | 8 | |
| 2013-09-01T00:00 | 16304 | 102 | -52.3 | -83.7 | 246 | 8 | |
| 2013-09-01T00:00 | 16313 | 102 | -52.4 | -83.8 | 246 | 8 | |
| 2013-09-01T00:00 | 16322 | 101 | -52.4 | -83.8 | 246 | 8 | |
| 2013-09-01T00:00 | 16330 | 101 | -52.4 | -83.8 | 246 | 8 | |
| 2013-09-01T00:00 | 16338 | 101 | -52.4 | -83.8 | 245 | 9 | |
| 2013-09-01T00:00 | 16347 | 101 | -52.4 | -83.8 | 245 | 9 | |
| 2013-09-01T00:00 | 16356 | 101 | -52.4 | -83.8 | 244 | 9 | |
| 2013-09-01T00:00 | 16365 | 101 | -52.5 | -83.8 | 244 | 9 | |
| 2013-09-01T00:00 | 16375 | 101 | -52.5 | -83.8 | 243 | 9 | |
| 2013-09-01T00:00 | 16383 | 100 | -52.5 | -83.8 | 242 | 9 | |
| 2013-09-01T00:00 | 16392 | 100 | -52.6 | -83.9 | 241 | 9 | |
| 2013-09-01T00:00 | 16400 | 100 | -52.6 | -83.9 | 240 | 9 | |
| 2013-09-01T00:00 | 16410 | 100 | -52.7 | -84.0 | 239 | 9 | |
| 2013-09-01T00:00 | 16418 | 100 | -52.7 | -84.0 | 238 | 10 | |
| 2013-09-01T00:00 | 16428 | 100 | -52.7 | -84.0 | 237 | 10 | |
| 2013-09-01T00:00 | 16437 | 100 | -52.8 | -84.1 | 236 | 10 | |
| 2013-09-01T00:00 | 16445 | 100 | -52.8 | -84.1 | 235 | 10 | |
| 2013-09-01T00:00 | 16453 | 99 | -52.8 | -84.1 | 234 | 10 | |
| 2013-09-01T00:00 | 16463 | 99 | -52.8 | -84.1 | 234 | 10 | |
| 2013-09-01T00:00 | 16471 | 99 | -52.7 | -84.0 | 234 | 10 | |
| 2013-09-01T00:00 | 16479 | 99 | -52.6 | -83.9 | 233 | 11 | |
| 2013-09-01T00:00 | 16488 | 99 | -52.6 | -83.9 | 233 | 11 | |
| 2013-09-01T00:00 | 16496 | 99 | -52.5 | -83.8 | 233 | 11 | |
| 2013-09-01T00:00 | 16504 | 99 | -52.5 | -83.8 | 233 | 11 | |
| 2013-09-01T00:00 | 16511 | 98 | -52.6 | -83.9 | 233 | 11 | |
| 2013-09-01T00:00 | 16520 | 98 | -52.6 | -83.9 | 233 | 11 | |
| 2013-09-01T00:00 | 16529 | 98 | -52.7 | -84.0 | 233 | 11 | |
| 2013-09-01T00:00 | 16538 | 98 | -52.7 | -84.0 | 233 | 11 | |
| 2013-09-01T00:00 | 16546 | 98 | -52.7 | -84.0 | 233 | 11 | |
| 2013-09-01T00:00 | 16554 | 98 | -52.7 | -84.0 | 234 | 12 | |
| 2013-09-01T00:00 | 16562 | 98 | -52.8 | -84.1 | 234 | 12 | |
| 2013-09-01T00:00 | 16571 | 98 | -52.8 | -84.1 | 234 | 12 | |
| 2013-09-01T00:00 | 16579 | 97 | -52.8 | -84.1 | 234 | 12 | |
| 2013-09-01T00:00 | 16587 | 97 | -52.9 | -84.1 | 234 | 12 | |
| 2013-09-01T00:00 | 16596 | 97 | -52.9 | -84.1 | 234 | 12 | |
| 2013-09-01T00:00 | 16605 | 97 | -53.0 | -84.2 | 234 | 12 | |
| 2013-09-01T00:00 | 16613 | 97 | -53.1 | -84.3 | 234 | 12 | |
| 2013-09-01T00:00 | 16621 | 97 | -53.2 | -84.4 | 235 | 12 | |
| 2013-09-01T00:00 | 16629 | 97 | -53.2 | -84.4 | 235 | 12 | |
| 2013-09-01T00:00 | 16637 | 97 | -53.3 | -84.4 | 235 | 12 | |
| 2013-09-01T00:00 | 16645 | 96 | -53.3 | -84.4 | 235 | 13 | |
| 2013-09-01T00:00 | 16653 | 96 | -53.4 | -84.5 | 235 | 13 | |
| 2013-09-01T00:00 | 16661 | 96 | -53.4 | -84.5 | 236 | 13 | |
| 2013-09-01T00:00 | 16670 | 96 | -53.4 | -84.5 | 236 | 13 | |
| 2013-09-01T00:00 | 16678 | 96 | -53.5 | -84.6 | 236 | 13 | |
| 2013-09-01T00:00 | 16685 | 96 | -53.5 | -84.6 | 237 | 13 | |
| 2013-09-01T00:00 | 16693 | 96 | -53.5 | -84.6 | 237 | 14 | |
| 2013-09-01T00:00 | 16702 | 96 | -53.5 | -84.6 | 237 | 14 | |
| 2013-09-01T00:00 | 16710 | 95 | -53.4 | -84.5 | 237 | 14 | |
| 2013-09-01T00:00 | 16718 | 95 | -53.4 | -84.5 | 238 | 14 | |
| 2013-09-01T00:00 | 16726 | 95 | -53.3 | -84.4 | 238 | 14 | |
| 2013-09-01T00:00 | 16735 | 95 | -53.3 | -84.4 | 238 | 14 | |
| 2013-09-01T00:00 | 16743 | 95 | -53.2 | -84.4 | 238 | 14 | |
| 2013-09-01T00:00 | 16750 | 95 | -53.2 | -84.4 | 238 | 14 | |
| 2013-09-01T00:00 | 16758 | 95 | -53.2 | -84.4 | 238 | 14 | |
| 2013-09-01T00:00 | 16766 | 95 | -53.2 | -84.4 | 238 | 14 | |
| 2013-09-01T00:00 | 16775 | 95 | -53.2 | -84.4 | 239 | 14 | |
| 2013-09-01T00:00 | 16783 | 94 | -53.2 | -84.4 | 239 | 14 | |
| 2013-09-01T00:00 | 16791 | 94 | -53.2 | -84.4 | 239 | 14 | |
| 2013-09-01T00:00 | 16798 | 94 | -53.2 | -84.4 | 239 | 14 | |
| 2013-09-01T00:00 | 16807 | 94 | -53.2 | -84.4 | 240 | 14 | |
| 2013-09-01T00:00 | 16816 | 94 | -53.3 | -84.4 | 240 | 13 | |
| 2013-09-01T00:00 | 16823 | 94 | -53.3 | -84.4 | 241 | 13 | |
| 2013-09-01T00:00 | 16831 | 94 | -53.3 | -84.4 | 242 | 13 | |
| 2013-09-01T00:00 | 16839 | 94 | -53.4 | -84.5 | 242 | 13 | |
| 2013-09-01T00:00 | 16847 | 93 | -53.4 | -84.5 | 243 | 13 | |
| 2013-09-01T00:00 | 16856 | 93 | -53.4 | -84.5 | 244 | 12 | |
| 2013-09-01T00:00 | 16864 | 93 | -53.4 | -84.5 | 245 | 12 | |
| 2013-09-01T00:00 | 16872 | 93 | -53.3 | -84.4 | 246 | 12 | |
| 2013-09-01T00:00 | 16881 | 93 | -53.3 | -84.4 | 247 | 12 | |
| 2013-09-01T00:00 | 16889 | 93 | -53.4 | -84.5 | 248 | 12 | |
| 2013-09-01T00:00 | 16897 | 93 | -53.4 | -84.5 | 249 | 12 | |
| 2013-09-01T00:00 | 16905 | 93 | -53.5 | -84.6 | 250 | 12 | |
| 2013-09-01T00:00 | 16913 | 93 | -53.5 | -84.6 | 251 | 12 | |
| 2013-09-01T00:00 | 16921 | 92 | -53.5 | -84.6 | 252 | 12 | |
| 2013-09-01T00:00 | 16930 | 92 | -53.4 | -84.5 | 253 | 12 | |
| 2013-09-01T00:00 | 16939 | 92 | -53.5 | -84.6 | 254 | 11 | |
| 2013-09-01T00:00 | 16947 | 92 | -53.5 | -84.6 | 255 | 11 | |
| 2013-09-01T00:00 | 16955 | 92 | -53.5 | -84.6 | 256 | 11 | |
| 2013-09-01T00:00 | 16964 | 92 | -53.6 | -84.6 | 257 | 11 | |
| 2013-09-01T00:00 | 16973 | 92 | -53.6 | -84.6 | 257 | 11 | |
| 2013-09-01T00:00 | 16981 | 92 | -53.7 | -84.7 | 258 | 11 | |
| 2013-09-01T00:00 | 16989 | 91 | -53.7 | -84.7 | 258 | 11 | |
| 2013-09-01T00:00 | 16997 | 91 | -53.6 | -84.6 | 258 | 11 | |
| 2013-09-01T00:00 | 17006 | 91 | -53.5 | -84.6 | 258 | 11 | |
| 2013-09-01T00:00 | 17013 | 91 | -53.4 | -84.5 | 258 | 12 | |
| 2013-09-01T00:00 | 17021 | 91 | -53.3 | -84.4 | 258 | 12 | |
| 2013-09-01T00:00 | 17030 | 91 | -53.4 | -84.5 | 258 | 12 | |
| 2013-09-01T00:00 | 17037 | 91 | -53.4 | -84.5 | 257 | 12 | |
| 2013-09-01T00:00 | 17044 | 91 | -53.4 | -84.5 | 257 | 12 | |
| 2013-09-01T00:00 | 17052 | 91 | -53.3 | -84.4 | 257 | 12 | |
| 2013-09-01T00:00 | 17061 | 90 | -53.2 | -84.4 | 256 | 12 | |
| 2013-09-01T00:00 | 17068 | 90 | -53.2 | -84.4 | 256 | 12 | |
| 2013-09-01T00:00 | 17076 | 90 | -53.2 | -84.4 | 256 | 13 | |
| 2013-09-01T00:00 | 17084 | 90 | -53.2 | -84.4 | 256 | 13 | |
| 2013-09-01T00:00 | 17091 | 90 | -53.2 | -84.4 | 256 | 13 | |
| 2013-09-01T00:00 | 17100 | 90 | -53.2 | -84.4 | 256 | 13 | |
| 2013-09-01T00:00 | 17107 | 90 | -53.1 | -84.3 | 256 | 13 | |
| 2013-09-01T00:00 | 17115 | 90 | -53.0 | -84.2 | 256 | 13 | |
| 2013-09-01T00:00 | 17124 | 90 | -52.9 | -84.1 | 256 | 13 | |
| 2013-09-01T00:00 | 17133 | 89 | -52.9 | -84.1 | 257 | 13 | |
| 2013-09-01T00:00 | 17141 | 89 | -52.9 | -84.1 | 257 | 13 | |
| 2013-09-01T00:00 | 17148 | 89 | -52.9 | -84.1 | 258 | 13 | |
| 2013-09-01T00:00 | 17156 | 89 | -52.9 | -84.1 | 259 | 13 | |
| 2013-09-01T00:00 | 17165 | 89 | -53.0 | -84.2 | 260 | 13 | |
| 2013-09-01T00:00 | 17175 | 89 | -53.0 | -84.2 | 261 | 13 | |
| 2013-09-01T00:00 | 17183 | 89 | -53.1 | -84.3 | 262 | 13 | |
| 2013-09-01T00:00 | 17190 | 89 | -53.1 | -84.3 | 264 | 13 | |
| 2013-09-01T00:00 | 17197 | 89 | -53.1 | -84.3 | 265 | 13 | |
| 2013-09-01T00:00 | 17206 | 88 | -53.1 | -84.3 | 266 | 12 | |
| 2013-09-01T00:00 | 17214 | 88 | -53.1 | -84.3 | 268 | 12 | |
| 2013-09-01T00:00 | 17222 | 88 | -53.1 | -84.3 | 270 | 12 | |
| 2013-09-01T00:00 | 17231 | 88 | -53.1 | -84.3 | 271 | 12 | |
| 2013-09-01T00:00 | 17239 | 88 | -53.1 | -84.3 | 273 | 12 | |
| 2013-09-01T00:00 | 17248 | 88 | -53.1 | -84.3 | 275 | 12 | |
| 2013-09-01T00:00 | 17258 | 88 | -53.0 | -84.2 | 276 | 12 | |
| 2013-09-01T00:00 | 17265 | 88 | -53.0 | -84.2 | 278 | 12 | |
| 2013-09-01T00:00 | 17272 | 88 | -53.0 | -84.2 | 280 | 12 | |
| 2013-09-01T00:00 | 17280 | 87 | -53.0 | -84.2 | 281 | 12 | |
| 2013-09-01T00:00 | 17289 | 87 | -53.0 | -84.2 | 283 | 12 | |
| 2013-09-01T00:00 | 17299 | 87 | -53.0 | -84.2 | 285 | 12 | |
| 2013-09-01T00:00 | 17308 | 87 | -53.0 | -84.2 | 286 | 12 | |
| 2013-09-01T00:00 | 17316 | 87 | -53.0 | -84.2 | 288 | 12 | |
| 2013-09-01T00:00 | 17325 | 87 | -53.0 | -84.2 | 289 | 12 | |
| 2013-09-01T00:00 | 17333 | 87 | -53.0 | -84.2 | 291 | 11 | |
| 2013-09-01T00:00 | 17342 | 87 | -53.0 | -84.2 | 292 | 11 | |
| 2013-09-01T00:00 | 17351 | 86 | -53.0 | -84.2 | 293 | 11 | |
| 2013-09-01T00:00 | 17360 | 86 | -53.1 | -84.3 | 295 | 11 | |
| 2013-09-01T00:00 | 17370 | 86 | -53.1 | -84.3 | 296 | 11 | |
| 2013-09-01T00:00 | 17378 | 86 | -53.2 | -84.4 | 297 | 11 | |
| 2013-09-01T00:00 | 17385 | 86 | -53.2 | -84.4 | 298 | 11 | |
| 2013-09-01T00:00 | 17393 | 86 | -53.2 | -84.4 | 299 | 10 | |
| 2013-09-01T00:00 | 17402 | 86 | -53.2 | -84.4 | 300 | 10 | |
| 2013-09-01T00:00 | 17410 | 86 | -53.2 | -84.4 | 301 | 10 | |
| 2013-09-01T00:00 | 17418 | 86 | -53.2 | -84.4 | 301 | 10 | |
| 2013-09-01T00:00 | 17427 | 85 | -53.2 | -84.4 | 302 | 9 | |
| 2013-09-01T00:00 | 17435 | 85 | -53.2 | -84.4 | 303 | 9 | |
| 2013-09-01T00:00 | 17444 | 85 | -53.2 | -84.4 | 304 | 9 | |
| 2013-09-01T00:00 | 17452 | 85 | -53.2 | -84.4 | 305 | 9 | |
| 2013-09-01T00:00 | 17460 | 85 | -53.2 | -84.4 | 306 | 9 | |
| 2013-09-01T00:00 | 17469 | 85 | -53.3 | -84.4 | 306 | 8 | |
| 2013-09-01T00:00 | 17476 | 85 | -53.3 | -84.4 | 307 | 8 | |
| 2013-09-01T00:00 | 17485 | 85 | -53.3 | -84.4 | 307 | 8 | |
| 2013-09-01T00:00 | 17494 | 85 | -53.3 | -84.4 | 308 | 8 | |
| 2013-09-01T00:00 | 17503 | 84 | -53.3 | -84.4 | 308 | 8 | |
| 2013-09-01T00:00 | 17510 | 84 | -53.3 | -84.4 | 308 | 8 | |
| 2013-09-01T00:00 | 17519 | 84 | -53.3 | -84.4 | 308 | 8 | |
| 2013-09-01T00:00 | 17529 | 84 | -53.2 | -84.4 | 307 | 8 | |
| 2013-09-01T00:00 | 17537 | 84 | -53.2 | -84.4 | 307 | 8 | |
| 2013-09-01T00:00 | 17547 | 84 | -53.2 | -84.4 | 306 | 8 | |
| 2013-09-01T00:00 | 17556 | 84 | -53.2 | -84.4 | 306 | 8 | |
| 2013-09-01T00:00 | 17564 | 84 | -53.3 | -84.4 | 305 | 8 | |
| 2013-09-01T00:00 | 17571 | 84 | -53.3 | -84.4 | 304 | 8 | |
| 2013-09-01T00:00 | 17580 | 83 | -53.4 | -84.5 | 303 | 8 | |
| 2013-09-01T00:00 | 17589 | 83 | -53.4 | -84.5 | 303 | 8 | |
| 2013-09-01T00:00 | 17597 | 83 | -53.5 | -84.6 | 302 | 8 | |
| 2013-09-01T00:00 | 17606 | 83 | -53.6 | -84.6 | 302 | 8 | |
| 2013-09-01T00:00 | 17615 | 83 | -53.6 | -84.6 | 302 | 8 | |
| 2013-09-01T00:00 | 17624 | 83 | -53.7 | -84.7 | 301 | 8 | |
| 2013-09-01T00:00 | 17632 | 83 | -53.8 | -84.8 | 301 | 8 | |
| 2013-09-01T00:00 | 17640 | 83 | -53.8 | -84.8 | 301 | 8 | |
| 2013-09-01T00:00 | 17649 | 83 | -53.8 | -84.8 | 302 | 8 | |
| 2013-09-01T00:00 | 17658 | 82 | -53.8 | -84.8 | 302 | 8 | |
| 2013-09-01T00:00 | 17667 | 82 | -53.8 | -84.8 | 302 | 8 | |
| 2013-09-01T00:00 | 17676 | 82 | -53.8 | -84.8 | 302 | 8 | |
| 2013-09-01T00:00 | 17685 | 82 | -53.8 | -84.8 | 303 | 8 | |
| 2013-09-01T00:00 | 17694 | 82 | -53.8 | -84.8 | 303 | 7 | |
| 2013-09-01T00:00 | 17703 | 82 | -53.8 | -84.8 | 303 | 7 | |
| 2013-09-01T00:00 | 17712 | 82 | -53.8 | -84.8 | 303 | 7 | |
| 2013-09-01T00:00 | 17722 | 82 | -53.8 | -84.8 | 303 | 7 | |
| 2013-09-01T00:00 | 17730 | 81 | -53.8 | -84.8 | 303 | 7 | |
| 2013-09-01T00:00 | 17738 | 81 | -53.6 | -84.6 | 302 | 6 | |
| 2013-09-01T00:00 | 17746 | 81 | -53.5 | -84.6 | 302 | 6 | |
| 2013-09-01T00:00 | 17756 | 81 | -53.4 | -84.5 | 301 | 6 | |
| 2013-09-01T00:00 | 17765 | 81 | -53.4 | -84.5 | 300 | 6 | |
| 2013-09-01T00:00 | 17773 | 81 | -53.5 | -84.6 | 299 | 6 | |
| 2013-09-01T00:00 | 17781 | 81 | -53.5 | -84.6 | 298 | 5 | |
| 2013-09-01T00:00 | 17791 | 81 | -53.6 | -84.6 | 297 | 5 | |
| 2013-09-01T00:00 | 17800 | 81 | -53.6 | -84.6 | 296 | 5 | |
| 2013-09-01T00:00 | 17809 | 81 | -53.5 | -84.6 | 294 | 5 | |
| 2013-09-01T00:00 | 17819 | 80 | -53.4 | -84.5 | 293 | 5 | |
| 2013-09-01T00:00 | 17828 | 80 | -53.3 | -84.4 | 291 | 4 | |
| 2013-09-01T00:00 | 17836 | 80 | -53.3 | -84.4 | 289 | 4 | |
| 2013-09-01T00:00 | 17845 | 80 | -53.2 | -84.4 | 286 | 4 | |
| 2013-09-01T00:00 | 17854 | 80 | -53.1 | -84.3 | 284 | 4 | |
| 2013-09-01T00:00 | 17862 | 80 | -53.1 | -84.3 | 281 | 4 | |
| 2013-09-01T00:00 | 17871 | 80 | -53.2 | -84.4 | 278 | 3 | |
| 2013-09-01T00:00 | 17879 | 80 | -53.2 | -84.4 | 275 | 3 | |
| 2013-09-01T00:00 | 17888 | 80 | -53.2 | -84.4 | 271 | 3 | |
| 2013-09-01T00:00 | 17898 | 79 | -53.1 | -84.3 | 268 | 3 | |
| 2013-09-01T00:00 | 17907 | 79 | -53.0 | -84.2 | 264 | 3 | |
| 2013-09-01T00:00 | 17916 | 79 | -52.9 | -84.1 | 260 | 3 | |
| 2013-09-01T00:00 | 17925 | 79 | -52.9 | -84.1 | 257 | 3 | |
| 2013-09-01T00:00 | 17935 | 79 | -52.9 | -84.1 | 253 | 3 | |
| 2013-09-01T00:00 | 17944 | 79 | -52.9 | -84.1 | 251 | 3 | |
| 2013-09-01T00:00 | 17952 | 79 | -52.9 | -84.1 | 249 | 3 | |
| 2013-09-01T00:00 | 17961 | 79 | -52.9 | -84.1 | 247 | 3 | |
| 2013-09-01T00:00 | 17969 | 79 | -52.9 | -84.1 | 246 | 4 | |
| 2013-09-01T00:00 | 17978 | 78 | -52.9 | -84.1 | 245 | 4 | |
| 2013-09-01T00:00 | 17988 | 78 | -52.9 | -84.1 | 245 | 4 | |
| 2013-09-01T00:00 | 17997 | 78 | -52.9 | -84.1 | 244 | 4 | |
| 2013-09-01T00:00 | 18005 | 78 | -53.0 | -84.2 | 244 | 5 | |
| 2013-09-01T00:00 | 18013 | 78 | -53.0 | -84.2 | 245 | 5 | |
| 2013-09-01T00:00 | 18021 | 78 | -53.1 | -84.3 | 245 | 5 | |
| 2013-09-01T00:00 | 18031 | 78 | -53.1 | -84.3 | 245 | 5 | |
| 2013-09-01T00:00 | 18041 | 78 | -53.1 | -84.3 | 246 | 6 | |
| 2013-09-01T00:00 | 18050 | 78 | -53.2 | -84.4 | 247 | 6 | |
| 2013-09-01T00:00 | 18059 | 77 | -53.2 | -84.4 | 248 | 6 | |
| 2013-09-01T00:00 | 18067 | 77 | -53.2 | -84.4 | 248 | 6 | |
| 2013-09-01T00:00 | 18076 | 77 | -53.3 | -84.4 | 250 | 7 | |
| 2013-09-01T00:00 | 18086 | 77 | -53.3 | -84.4 | 251 | 7 | |
| 2013-09-01T00:00 | 18096 | 77 | -53.3 | -84.4 | 252 | 7 | |
| 2013-09-01T00:00 | 18104 | 77 | -53.3 | -84.4 | 253 | 7 | |
| 2013-09-01T00:00 | 18113 | 77 | -53.3 | -84.4 | 255 | 8 | |
| 2013-09-01T00:00 | 18123 | 77 | -53.4 | -84.5 | 256 | 8 | |
| 2013-09-01T00:00 | 18133 | 77 | -53.4 | -84.5 | 258 | 8 | |
| 2013-09-01T00:00 | 18141 | 76 | -53.4 | -84.5 | 259 | 8 | |
| 2013-09-01T00:00 | 18150 | 76 | -53.5 | -84.6 | 261 | 9 | |
| 2013-09-01T00:00 | 18159 | 76 | -53.5 | -84.6 | 262 | 9 | |
| 2013-09-01T00:00 | 18167 | 76 | -53.6 | -84.6 | 264 | 9 | |
| 2013-09-01T00:00 | 18176 | 76 | -53.6 | -84.6 | 265 | 9 | |
| 2013-09-01T00:00 | 18186 | 76 | -53.7 | -84.7 | 267 | 9 | |
| 2013-09-01T00:00 | 18195 | 76 | -53.8 | -84.8 | 268 | 10 | |
| 2013-09-01T00:00 | 18203 | 76 | -53.8 | -84.8 | 270 | 10 | |
| 2013-09-01T00:00 | 18211 | 76 | -53.9 | -84.9 | 271 | 10 | |
| 2013-09-01T00:00 | 18220 | 76 | -53.9 | -84.9 | 272 | 10 | |
| 2013-09-01T00:00 | 18229 | 75 | -53.9 | -84.9 | 274 | 10 | |
| 2013-09-01T00:00 | 18237 | 75 | -54.0 | -84.9 | 275 | 10 | |
| 2013-09-01T00:00 | 18246 | 75 | -54.0 | -84.9 | 276 | 10 |
Only the first 2000 rows were shown. To view the complete dataset, download it as tab-delimited text. You can still view the full matrix in your browser, but be aware that this may crash the browser due to the huge size.
